<?xml version="1.0" encoding="UTF-8" standalone="no" ?>
<gpx xmlns="http://www.topografix.com/GPX/1/1" xmlns:xsi="http://www.w3.org/2001/XMLSchema-instance" xsi:schemaLocation="http://www.topografix.com/GPX/1/1 http://www.topografix.com/GPX/1/1/gpx.xsd" version="1.1" creator="VisuGPX - https://www.visugpx.com">
  <metadata>
    <name>fer à cheval</name>
    <desc><![CDATA[un beau parcours en crete dans le pays d\'olmes]]></desc>
  </metadata>
  <trk>
    <name><![CDATA[2013-01-25T13:26:51Z]]></name>
    <trkseg>
      <trkpt lat="42.96508" lon="1.87173">
        <ele>459.1668701</ele>
        <time>2013-01-25T13:26:51Z</time>
      </trkpt>
      <trkpt lat="42.96513" lon="1.87166">
        <ele>459.1668701</ele>
        <time>2013-01-25T13:26:57Z</time>
      </trkpt>
      <trkpt lat="42.96509" lon="1.87156">
        <ele>458.2055664</ele>
        <time>2013-01-25T13:27:01Z</time>
      </trkpt>
      <trkpt lat="42.96497" lon="1.87142">
        <ele>456.7635498</ele>
        <time>2013-01-25T13:27:07Z</time>
      </trkpt>
      <trkpt lat="42.96483" lon="1.87127">
        <ele>454.3602295</ele>
        <time>2013-01-25T13:27:14Z</time>
      </trkpt>
      <trkpt lat="42.96469" lon="1.87113">
        <ele>454.3602295</ele>
        <time>2013-01-25T13:27:21Z</time>
      </trkpt>
      <trkpt lat="42.96456" lon="1.871">
        <ele>453.8796387</ele>
        <time>2013-01-25T13:27:27Z</time>
      </trkpt>
      <trkpt lat="42.96443" lon="1.87088">
        <ele>454.8408203</ele>
        <time>2013-01-25T13:27:33Z</time>
      </trkpt>
      <trkpt lat="42.96431" lon="1.87076">
        <ele>455.3215332</ele>
        <time>2013-01-25T13:27:39Z</time>
      </trkpt>
      <trkpt lat="42.96416" lon="1.87062">
        <ele>455.3215332</ele>
        <time>2013-01-25T13:27:46Z</time>
      </trkpt>
      <trkpt lat="42.96407" lon="1.87051">
        <ele>454.8408203</ele>
        <time>2013-01-25T13:27:51Z</time>
      </trkpt>
      <trkpt lat="42.964" lon="1.87034">
        <ele>454.8408203</ele>
        <time>2013-01-25T13:27:56Z</time>
      </trkpt>
      <trkpt lat="42.96394" lon="1.87018">
        <ele>455.8022461</ele>
        <time>2013-01-25T13:28:01Z</time>
      </trkpt>
      <trkpt lat="42.96388" lon="1.87002">
        <ele>456.282959</ele>
        <time>2013-01-25T13:28:06Z</time>
      </trkpt>
      <trkpt lat="42.9638" lon="1.86984">
        <ele>454.8408203</ele>
        <time>2013-01-25T13:28:12Z</time>
      </trkpt>
      <trkpt lat="42.96372" lon="1.86969">
        <ele>453.8796387</ele>
        <time>2013-01-25T13:28:17Z</time>
      </trkpt>
      <trkpt lat="42.96363" lon="1.86955">
        <ele>453.3989258</ele>
        <time>2013-01-25T13:28:22Z</time>
      </trkpt>
      <trkpt lat="42.96349" lon="1.86946">
        <ele>454.8408203</ele>
        <time>2013-01-25T13:28:28Z</time>
      </trkpt>
      <trkpt lat="42.96335" lon="1.86938">
        <ele>457.7249756</ele>
        <time>2013-01-25T13:28:34Z</time>
      </trkpt>
      <trkpt lat="42.96323" lon="1.86931">
        <ele>457.7249756</ele>
        <time>2013-01-25T13:28:39Z</time>
      </trkpt>
      <trkpt lat="42.96309" lon="1.86924">
        <ele>459.647583</ele>
        <time>2013-01-25T13:28:45Z</time>
      </trkpt>
      <trkpt lat="42.96296" lon="1.86918">
        <ele>461.5701904</ele>
        <time>2013-01-25T13:28:50Z</time>
      </trkpt>
      <trkpt lat="42.96286" lon="1.86914">
        <ele>462.0507813</ele>
        <time>2013-01-25T13:28:54Z</time>
      </trkpt>
      <trkpt lat="42.96271" lon="1.86909">
        <ele>462.0507813</ele>
        <time>2013-01-25T13:29:00Z</time>
      </trkpt>
      <trkpt lat="42.96255" lon="1.86905">
        <ele>462.0507813</ele>
        <time>2013-01-25T13:29:06Z</time>
      </trkpt>
      <trkpt lat="42.96242" lon="1.86902">
        <ele>462.5313721</ele>
        <time>2013-01-25T13:29:11Z</time>
      </trkpt>
      <trkpt lat="42.96228" lon="1.86903">
        <ele>463.9733887</ele>
        <time>2013-01-25T13:29:16Z</time>
      </trkpt>
      <trkpt lat="42.96214" lon="1.86905">
        <ele>465.4155273</ele>
        <time>2013-01-25T13:29:21Z</time>
      </trkpt>
      <trkpt lat="42.96198" lon="1.86906">
        <ele>464.9348145</ele>
        <time>2013-01-25T13:29:27Z</time>
      </trkpt>
      <trkpt lat="42.96185" lon="1.86899">
        <ele>463.9733887</ele>
        <time>2013-01-25T13:29:32Z</time>
      </trkpt>
      <trkpt lat="42.96171" lon="1.86891">
        <ele>465.4155273</ele>
        <time>2013-01-25T13:29:38Z</time>
      </trkpt>
      <trkpt lat="42.96162" lon="1.86887">
        <ele>465.8961182</ele>
        <time>2013-01-25T13:29:41Z</time>
      </trkpt>
      <trkpt lat="42.9615" lon="1.86881">
        <ele>465.4155273</ele>
        <time>2013-01-25T13:29:46Z</time>
      </trkpt>
      <trkpt lat="42.96138" lon="1.86873">
        <ele>464.4541016</ele>
        <time>2013-01-25T13:29:51Z</time>
      </trkpt>
      <trkpt lat="42.96125" lon="1.86867">
        <ele>466.8574219</ele>
        <time>2013-01-25T13:29:56Z</time>
      </trkpt>
      <trkpt lat="42.96116" lon="1.86862">
        <ele>469.741333</ele>
        <time>2013-01-25T13:30:00Z</time>
      </trkpt>
      <trkpt lat="42.96107" lon="1.86857">
        <ele>469.741333</ele>
        <time>2013-01-25T13:30:04Z</time>
      </trkpt>
      <trkpt lat="42.96092" lon="1.86847">
        <ele>471.1833496</ele>
        <time>2013-01-25T13:30:11Z</time>
      </trkpt>
      <trkpt lat="42.96082" lon="1.86843">
        <ele>471.6639404</ele>
        <time>2013-01-25T13:30:16Z</time>
      </trkpt>
      <trkpt lat="42.9607" lon="1.86841">
        <ele>473.1060791</ele>
        <time>2013-01-25T13:30:21Z</time>
      </trkpt>
      <trkpt lat="42.96058" lon="1.86837">
        <ele>472.6253662</ele>
        <time>2013-01-25T13:30:26Z</time>
      </trkpt>
      <trkpt lat="42.96039" lon="1.86834">
        <ele>472.6253662</ele>
        <time>2013-01-25T13:30:33Z</time>
      </trkpt>
      <trkpt lat="42.96024" lon="1.86828">
        <ele>472.1446533</ele>
        <time>2013-01-25T13:30:39Z</time>
      </trkpt>
      <trkpt lat="42.96012" lon="1.86821">
        <ele>470.2219238</ele>
        <time>2013-01-25T13:30:44Z</time>
      </trkpt>
      <trkpt lat="42.95997" lon="1.86821">
        <ele>470.7026367</ele>
        <time>2013-01-25T13:30:49Z</time>
      </trkpt>
      <trkpt lat="42.95985" lon="1.86815">
        <ele>467.8187256</ele>
        <time>2013-01-25T13:30:54Z</time>
      </trkpt>
      <trkpt lat="42.95975" lon="1.86812">
        <ele>466.376709</ele>
        <time>2013-01-25T13:30:59Z</time>
      </trkpt>
      <trkpt lat="42.95965" lon="1.86809">
        <ele>467.8187256</ele>
        <time>2013-01-25T13:31:03Z</time>
      </trkpt>
      <trkpt lat="42.95953" lon="1.86794">
        <ele>468.2993164</ele>
        <time>2013-01-25T13:31:09Z</time>
      </trkpt>
      <trkpt lat="42.95943" lon="1.8678">
        <ele>467.8187256</ele>
        <time>2013-01-25T13:31:14Z</time>
      </trkpt>
      <trkpt lat="42.95935" lon="1.8676">
        <ele>467.8187256</ele>
        <time>2013-01-25T13:31:20Z</time>
      </trkpt>
      <trkpt lat="42.95929" lon="1.86742">
        <ele>467.8187256</ele>
        <time>2013-01-25T13:31:25Z</time>
      </trkpt>
      <trkpt lat="42.95923" lon="1.86725">
        <ele>468.2993164</ele>
        <time>2013-01-25T13:31:30Z</time>
      </trkpt>
      <trkpt lat="42.95918" lon="1.86709">
        <ele>468.7800293</ele>
        <time>2013-01-25T13:31:34Z</time>
      </trkpt>
      <trkpt lat="42.95913" lon="1.86695">
        <ele>468.2993164</ele>
        <time>2013-01-25T13:31:38Z</time>
      </trkpt>
      <trkpt lat="42.95906" lon="1.86675">
        <ele>467.8187256</ele>
        <time>2013-01-25T13:31:44Z</time>
      </trkpt>
      <trkpt lat="42.95899" lon="1.8666">
        <ele>468.2993164</ele>
        <time>2013-01-25T13:31:49Z</time>
      </trkpt>
      <trkpt lat="42.95887" lon="1.86641">
        <ele>466.8574219</ele>
        <time>2013-01-25T13:31:56Z</time>
      </trkpt>
      <trkpt lat="42.95875" lon="1.86632">
        <ele>467.3381348</ele>
        <time>2013-01-25T13:32:01Z</time>
      </trkpt>
      <trkpt lat="42.95865" lon="1.86628">
        <ele>467.3381348</ele>
        <time>2013-01-25T13:32:05Z</time>
      </trkpt>
      <trkpt lat="42.95854" lon="1.86622">
        <ele>468.2993164</ele>
        <time>2013-01-25T13:32:09Z</time>
      </trkpt>
      <trkpt lat="42.95838" lon="1.86613">
        <ele>469.2607422</ele>
        <time>2013-01-25T13:32:15Z</time>
      </trkpt>
      <trkpt lat="42.95826" lon="1.86605">
        <ele>469.741333</ele>
        <time>2013-01-25T13:32:20Z</time>
      </trkpt>
      <trkpt lat="42.95811" lon="1.86597">
        <ele>470.7026367</ele>
        <time>2013-01-25T13:32:26Z</time>
      </trkpt>
      <trkpt lat="42.95796" lon="1.86589">
        <ele>471.6639404</ele>
        <time>2013-01-25T13:32:32Z</time>
      </trkpt>
      <trkpt lat="42.95781" lon="1.8658">
        <ele>470.2219238</ele>
        <time>2013-01-25T13:32:38Z</time>
      </trkpt>
      <trkpt lat="42.95773" lon="1.86576">
        <ele>470.2219238</ele>
        <time>2013-01-25T13:32:42Z</time>
      </trkpt>
      <trkpt lat="42.95761" lon="1.86581">
        <ele>469.741333</ele>
        <time>2013-01-25T13:32:47Z</time>
      </trkpt>
      <trkpt lat="42.95751" lon="1.86592">
        <ele>471.6639404</ele>
        <time>2013-01-25T13:32:52Z</time>
      </trkpt>
      <trkpt lat="42.9574" lon="1.86593">
        <ele>475.0286865</ele>
        <time>2013-01-25T13:32:56Z</time>
      </trkpt>
      <trkpt lat="42.95729" lon="1.86581">
        <ele>478.3931885</ele>
        <time>2013-01-25T13:33:02Z</time>
      </trkpt>
      <trkpt lat="42.95718" lon="1.86571">
        <ele>480.315918</ele>
        <time>2013-01-25T13:33:07Z</time>
      </trkpt>
      <trkpt lat="42.95707" lon="1.8656">
        <ele>483.1998291</ele>
        <time>2013-01-25T13:33:13Z</time>
      </trkpt>
      <trkpt lat="42.95696" lon="1.86549">
        <ele>483.6804199</ele>
        <time>2013-01-25T13:33:18Z</time>
      </trkpt>
      <trkpt lat="42.95693" lon="1.86544">
        <ele>483.6804199</ele>
        <time>2013-01-25T13:33:20Z</time>
      </trkpt>
      <trkpt lat="42.95685" lon="1.8653">
        <ele>483.6804199</ele>
        <time>2013-01-25T13:33:26Z</time>
      </trkpt>
      <trkpt lat="42.95681" lon="1.86522">
        <ele>480.7966309</ele>
        <time>2013-01-25T13:33:30Z</time>
      </trkpt>
      <trkpt lat="42.95668" lon="1.86508">
        <ele>479.835083</ele>
        <time>2013-01-25T13:33:36Z</time>
      </trkpt>
      <trkpt lat="42.95655" lon="1.865">
        <ele>480.315918</ele>
        <time>2013-01-25T13:33:41Z</time>
      </trkpt>
      <trkpt lat="42.95649" lon="1.86491">
        <ele>479.3544922</ele>
        <time>2013-01-25T13:33:45Z</time>
      </trkpt>
      <trkpt lat="42.95648" lon="1.86466">
        <ele>480.7966309</ele>
        <time>2013-01-25T13:33:52Z</time>
      </trkpt>
      <trkpt lat="42.95651" lon="1.86444">
        <ele>480.7966309</ele>
        <time>2013-01-25T13:33:58Z</time>
      </trkpt>
      <trkpt lat="42.9565" lon="1.86438">
        <ele>481.2772217</ele>
        <time>2013-01-25T13:34:00Z</time>
      </trkpt>
      <trkpt lat="42.95641" lon="1.86419">
        <ele>479.835083</ele>
        <time>2013-01-25T13:34:06Z</time>
      </trkpt>
      <trkpt lat="42.9563" lon="1.86409">
        <ele>479.835083</ele>
        <time>2013-01-25T13:34:11Z</time>
      </trkpt>
      <trkpt lat="42.95625" lon="1.86403">
        <ele>478.3931885</ele>
        <time>2013-01-25T13:34:14Z</time>
      </trkpt>
      <trkpt lat="42.9562" lon="1.86399">
        <ele>476.9512939</ele>
        <time>2013-01-25T13:34:18Z</time>
      </trkpt>
      <trkpt lat="42.95607" lon="1.86394">
        <ele>477.4318848</ele>
        <time>2013-01-25T13:34:24Z</time>
      </trkpt>
      <trkpt lat="42.956" lon="1.86391">
        <ele>478.8739014</ele>
        <time>2013-01-25T13:34:28Z</time>
      </trkpt>
      <trkpt lat="42.95596" lon="1.8639">
        <ele>479.835083</ele>
        <time>2013-01-25T13:34:31Z</time>
      </trkpt>
      <trkpt lat="42.95581" lon="1.86389">
        <ele>484.1611328</ele>
        <time>2013-01-25T13:34:36Z</time>
      </trkpt>
      <trkpt lat="42.95573" lon="1.86388">
        <ele>486.0837402</ele>
        <time>2013-01-25T13:34:39Z</time>
      </trkpt>
      <trkpt lat="42.9556" lon="1.86376">
        <ele>485.1224365</ele>
        <time>2013-01-25T13:34:45Z</time>
      </trkpt>
      <trkpt lat="42.9555" lon="1.8636">
        <ele>481.2772217</ele>
        <time>2013-01-25T13:34:52Z</time>
      </trkpt>
      <trkpt lat="42.95542" lon="1.86346">
        <ele>480.7966309</ele>
        <time>2013-01-25T13:34:57Z</time>
      </trkpt>
      <trkpt lat="42.95534" lon="1.86335">
        <ele>480.315918</ele>
        <time>2013-01-25T13:35:01Z</time>
      </trkpt>
      <trkpt lat="42.95526" lon="1.8632">
        <ele>477.4318848</ele>
        <time>2013-01-25T13:35:06Z</time>
      </trkpt>
      <trkpt lat="42.95516" lon="1.8631">
        <ele>479.835083</ele>
        <time>2013-01-25T13:35:11Z</time>
      </trkpt>
      <trkpt lat="42.95509" lon="1.86302">
        <ele>479.835083</ele>
        <time>2013-01-25T13:35:14Z</time>
      </trkpt>
      <trkpt lat="42.95499" lon="1.8629">
        <ele>478.8739014</ele>
        <time>2013-01-25T13:35:19Z</time>
      </trkpt>
      <trkpt lat="42.95487" lon="1.8628">
        <ele>482.2385254</ele>
        <time>2013-01-25T13:35:25Z</time>
      </trkpt>
      <trkpt lat="42.95485" lon="1.86278">
        <ele>482.7192383</ele>
        <time>2013-01-25T13:35:26Z</time>
      </trkpt>
      <trkpt lat="42.9547" lon="1.86272">
        <ele>487.0450439</ele>
        <time>2013-01-25T13:35:32Z</time>
      </trkpt>
      <trkpt lat="42.95464" lon="1.86271">
        <ele>488.0064697</ele>
        <time>2013-01-25T13:35:34Z</time>
      </trkpt>
      <trkpt lat="42.9545" lon="1.86279">
        <ele>488.0064697</ele>
        <time>2013-01-25T13:35:40Z</time>
      </trkpt>
      <trkpt lat="42.95437" lon="1.86289">
        <ele>493.2935791</ele>
        <time>2013-01-25T13:35:45Z</time>
      </trkpt>
      <trkpt lat="42.95429" lon="1.863">
        <ele>496.1777344</ele>
        <time>2013-01-25T13:35:49Z</time>
      </trkpt>
      <trkpt lat="42.9542" lon="1.86316">
        <ele>496.1777344</ele>
        <time>2013-01-25T13:35:54Z</time>
      </trkpt>
      <trkpt lat="42.95419" lon="1.86318">
        <ele>495.2161865</ele>
        <time>2013-01-25T13:35:55Z</time>
      </trkpt>
      <trkpt lat="42.95406" lon="1.86343">
        <ele>493.774292</ele>
        <time>2013-01-25T13:36:02Z</time>
      </trkpt>
      <trkpt lat="42.95403" lon="1.86347">
        <ele>493.2935791</ele>
        <time>2013-01-25T13:36:05Z</time>
      </trkpt>
      <trkpt lat="42.95391" lon="1.86357">
        <ele>492.3323975</ele>
        <time>2013-01-25T13:36:11Z</time>
      </trkpt>
      <trkpt lat="42.9538" lon="1.86364">
        <ele>492.3323975</ele>
        <time>2013-01-25T13:36:15Z</time>
      </trkpt>
      <trkpt lat="42.95365" lon="1.86367">
        <ele>488.4871826</ele>
        <time>2013-01-25T13:36:21Z</time>
      </trkpt>
      <trkpt lat="42.9535" lon="1.86369">
        <ele>487.5256348</ele>
        <time>2013-01-25T13:36:27Z</time>
      </trkpt>
      <trkpt lat="42.95338" lon="1.8637">
        <ele>486.0837402</ele>
        <time>2013-01-25T13:36:32Z</time>
      </trkpt>
      <trkpt lat="42.95323" lon="1.86375">
        <ele>488.4871826</ele>
        <time>2013-01-25T13:36:37Z</time>
      </trkpt>
      <trkpt lat="42.95312" lon="1.86378">
        <ele>490.40979</ele>
        <time>2013-01-25T13:36:41Z</time>
      </trkpt>
      <trkpt lat="42.953" lon="1.86382">
        <ele>491.8516846</ele>
        <time>2013-01-25T13:36:45Z</time>
      </trkpt>
      <trkpt lat="42.95288" lon="1.86388">
        <ele>491.3709717</ele>
        <time>2013-01-25T13:36:50Z</time>
      </trkpt>
      <trkpt lat="42.95274" lon="1.86393">
        <ele>492.8129883</ele>
        <time>2013-01-25T13:36:56Z</time>
      </trkpt>
      <trkpt lat="42.95262" lon="1.86399">
        <ele>492.3323975</ele>
        <time>2013-01-25T13:37:01Z</time>
      </trkpt>
      <trkpt lat="42.95252" lon="1.86405">
        <ele>490.8903809</ele>
        <time>2013-01-25T13:37:06Z</time>
      </trkpt>
      <trkpt lat="42.95251" lon="1.86407">
        <ele>491.3709717</ele>
        <time>2013-01-25T13:37:07Z</time>
      </trkpt>
      <trkpt lat="42.95255" lon="1.86422">
        <ele>486.5644531</ele>
        <time>2013-01-25T13:37:12Z</time>
      </trkpt>
      <trkpt lat="42.95257" lon="1.86429">
        <ele>486.0837402</ele>
        <time>2013-01-25T13:37:14Z</time>
      </trkpt>
      <trkpt lat="42.95247" lon="1.86442">
        <ele>487.0450439</ele>
        <time>2013-01-25T13:37:20Z</time>
      </trkpt>
      <trkpt lat="42.95236" lon="1.86447">
        <ele>490.40979</ele>
        <time>2013-01-25T13:37:24Z</time>
      </trkpt>
      <trkpt lat="42.9523" lon="1.8645">
        <ele>492.8129883</ele>
        <time>2013-01-25T13:37:26Z</time>
      </trkpt>
      <trkpt lat="42.95215" lon="1.86462">
        <ele>498.1003418</ele>
        <time>2013-01-25T13:37:32Z</time>
      </trkpt>
      <trkpt lat="42.95201" lon="1.86474">
        <ele>503.8681641</ele>
        <time>2013-01-25T13:37:37Z</time>
      </trkpt>
      <trkpt lat="42.95188" lon="1.86477">
        <ele>506.2714844</ele>
        <time>2013-01-25T13:37:42Z</time>
      </trkpt>
      <trkpt lat="42.95186" lon="1.86477">
        <ele>506.2714844</ele>
        <time>2013-01-25T13:37:43Z</time>
      </trkpt>
      <trkpt lat="42.95177" lon="1.86472">
        <ele>504.8294678</ele>
        <time>2013-01-25T13:37:48Z</time>
      </trkpt>
      <trkpt lat="42.95173" lon="1.86472">
        <ele>504.348877</ele>
        <time>2013-01-25T13:37:50Z</time>
      </trkpt>
      <trkpt lat="42.95157" lon="1.86478">
        <ele>502.9067383</ele>
        <time>2013-01-25T13:37:57Z</time>
      </trkpt>
      <trkpt lat="42.95144" lon="1.86487">
        <ele>502.9067383</ele>
        <time>2013-01-25T13:38:03Z</time>
      </trkpt>
      <trkpt lat="42.95133" lon="1.86492">
        <ele>508.1940918</ele>
        <time>2013-01-25T13:38:07Z</time>
      </trkpt>
      <trkpt lat="42.95123" lon="1.86497">
        <ele>509.6361084</ele>
        <time>2013-01-25T13:38:11Z</time>
      </trkpt>
      <trkpt lat="42.95112" lon="1.86503">
        <ele>508.6746826</ele>
        <time>2013-01-25T13:38:16Z</time>
      </trkpt>
      <trkpt lat="42.95097" lon="1.86508">
        <ele>505.7908936</ele>
        <time>2013-01-25T13:38:22Z</time>
      </trkpt>
      <trkpt lat="42.95084" lon="1.86511">
        <ele>504.348877</ele>
        <time>2013-01-25T13:38:27Z</time>
      </trkpt>
      <trkpt lat="42.95075" lon="1.86515">
        <ele>504.8294678</ele>
        <time>2013-01-25T13:38:31Z</time>
      </trkpt>
      <trkpt lat="42.95065" lon="1.86517">
        <ele>504.348877</ele>
        <time>2013-01-25T13:38:35Z</time>
      </trkpt>
      <trkpt lat="42.95053" lon="1.86519">
        <ele>504.8294678</ele>
        <time>2013-01-25T13:38:39Z</time>
      </trkpt>
      <trkpt lat="42.95042" lon="1.8652">
        <ele>505.7908936</ele>
        <time>2013-01-25T13:38:43Z</time>
      </trkpt>
      <trkpt lat="42.95027" lon="1.86522">
        <ele>504.348877</ele>
        <time>2013-01-25T13:38:48Z</time>
      </trkpt>
      <trkpt lat="42.95013" lon="1.86522">
        <ele>502.9067383</ele>
        <time>2013-01-25T13:38:54Z</time>
      </trkpt>
      <trkpt lat="42.95003" lon="1.86522">
        <ele>501.4648438</ele>
        <time>2013-01-25T13:38:58Z</time>
      </trkpt>
      <trkpt lat="42.94989" lon="1.8652">
        <ele>500.0229492</ele>
        <time>2013-01-25T13:39:03Z</time>
      </trkpt>
      <trkpt lat="42.94975" lon="1.86519">
        <ele>498.5809326</ele>
        <time>2013-01-25T13:39:08Z</time>
      </trkpt>
      <trkpt lat="42.94961" lon="1.86516">
        <ele>497.138916</ele>
        <time>2013-01-25T13:39:13Z</time>
      </trkpt>
      <trkpt lat="42.94944" lon="1.86511">
        <ele>497.138916</ele>
        <time>2013-01-25T13:39:19Z</time>
      </trkpt>
      <trkpt lat="42.9493" lon="1.86506">
        <ele>495.6968994</ele>
        <time>2013-01-25T13:39:24Z</time>
      </trkpt>
      <trkpt lat="42.94915" lon="1.86501">
        <ele>497.138916</ele>
        <time>2013-01-25T13:39:29Z</time>
      </trkpt>
      <trkpt lat="42.94901" lon="1.86495">
        <ele>496.6583252</ele>
        <time>2013-01-25T13:39:35Z</time>
      </trkpt>
      <trkpt lat="42.94886" lon="1.86494">
        <ele>502.9067383</ele>
        <time>2013-01-25T13:39:40Z</time>
      </trkpt>
      <trkpt lat="42.94873" lon="1.86491">
        <ele>506.7520752</ele>
        <time>2013-01-25T13:39:45Z</time>
      </trkpt>
      <trkpt lat="42.94861" lon="1.86484">
        <ele>506.7520752</ele>
        <time>2013-01-25T13:39:50Z</time>
      </trkpt>
      <trkpt lat="42.94849" lon="1.86475">
        <ele>504.8294678</ele>
        <time>2013-01-25T13:39:55Z</time>
      </trkpt>
      <trkpt lat="42.94838" lon="1.86466">
        <ele>502.9067383</ele>
        <time>2013-01-25T13:40:00Z</time>
      </trkpt>
      <trkpt lat="42.94823" lon="1.86456">
        <ele>502.4261475</ele>
        <time>2013-01-25T13:40:06Z</time>
      </trkpt>
      <trkpt lat="42.9482" lon="1.86447">
        <ele>500.50354</ele>
        <time>2013-01-25T13:40:10Z</time>
      </trkpt>
      <trkpt lat="42.94818" lon="1.86445">
        <ele>500.0229492</ele>
        <time>2013-01-25T13:40:11Z</time>
      </trkpt>
      <trkpt lat="42.94806" lon="1.86436">
        <ele>499.0615234</ele>
        <time>2013-01-25T13:40:17Z</time>
      </trkpt>
      <trkpt lat="42.94801" lon="1.86432">
        <ele>498.1003418</ele>
        <time>2013-01-25T13:40:20Z</time>
      </trkpt>
      <trkpt lat="42.94799" lon="1.86424">
        <ele>496.6583252</ele>
        <time>2013-01-25T13:40:24Z</time>
      </trkpt>
      <trkpt lat="42.94794" lon="1.86418">
        <ele>496.1777344</ele>
        <time>2013-01-25T13:40:27Z</time>
      </trkpt>
      <trkpt lat="42.94779" lon="1.86405">
        <ele>495.2161865</ele>
        <time>2013-01-25T13:40:34Z</time>
      </trkpt>
      <trkpt lat="42.94769" lon="1.86392">
        <ele>495.6968994</ele>
        <time>2013-01-25T13:40:39Z</time>
      </trkpt>
      <trkpt lat="42.94759" lon="1.8638">
        <ele>497.6196289</ele>
        <time>2013-01-25T13:40:44Z</time>
      </trkpt>
      <trkpt lat="42.94748" lon="1.86365">
        <ele>498.1003418</ele>
        <time>2013-01-25T13:40:50Z</time>
      </trkpt>
      <trkpt lat="42.94736" lon="1.8635">
        <ele>500.0229492</ele>
        <time>2013-01-25T13:40:56Z</time>
      </trkpt>
      <trkpt lat="42.94726" lon="1.86333">
        <ele>500.9841309</ele>
        <time>2013-01-25T13:41:02Z</time>
      </trkpt>
      <trkpt lat="42.94718" lon="1.86321">
        <ele>502.4261475</ele>
        <time>2013-01-25T13:41:06Z</time>
      </trkpt>
      <trkpt lat="42.94709" lon="1.86308">
        <ele>503.3874512</ele>
        <time>2013-01-25T13:41:11Z</time>
      </trkpt>
      <trkpt lat="42.94698" lon="1.86293">
        <ele>504.8294678</ele>
        <time>2013-01-25T13:41:17Z</time>
      </trkpt>
      <trkpt lat="42.94688" lon="1.86279">
        <ele>507.713501</ele>
        <time>2013-01-25T13:41:23Z</time>
      </trkpt>
      <trkpt lat="42.94679" lon="1.86268">
        <ele>509.6361084</ele>
        <time>2013-01-25T13:41:28Z</time>
      </trkpt>
      <trkpt lat="42.94675" lon="1.86262">
        <ele>508.6746826</ele>
        <time>2013-01-25T13:41:30Z</time>
      </trkpt>
      <trkpt lat="42.94666" lon="1.86248">
        <ele>506.7520752</ele>
        <time>2013-01-25T13:41:36Z</time>
      </trkpt>
      <trkpt lat="42.94656" lon="1.86235">
        <ele>505.3101807</ele>
        <time>2013-01-25T13:41:41Z</time>
      </trkpt>
      <trkpt lat="42.94643" lon="1.86221">
        <ele>503.3874512</ele>
        <time>2013-01-25T13:41:47Z</time>
      </trkpt>
      <trkpt lat="42.94637" lon="1.86207">
        <ele>502.4261475</ele>
        <time>2013-01-25T13:41:51Z</time>
      </trkpt>
      <trkpt lat="42.94628" lon="1.86195">
        <ele>502.9067383</ele>
        <time>2013-01-25T13:41:56Z</time>
      </trkpt>
      <trkpt lat="42.94615" lon="1.86181">
        <ele>506.7520752</ele>
        <time>2013-01-25T13:42:02Z</time>
      </trkpt>
      <trkpt lat="42.94606" lon="1.86167">
        <ele>508.1940918</ele>
        <time>2013-01-25T13:42:07Z</time>
      </trkpt>
      <trkpt lat="42.94597" lon="1.86153">
        <ele>506.2714844</ele>
        <time>2013-01-25T13:42:12Z</time>
      </trkpt>
      <trkpt lat="42.94589" lon="1.86139">
        <ele>504.8294678</ele>
        <time>2013-01-25T13:42:17Z</time>
      </trkpt>
      <trkpt lat="42.94579" lon="1.86122">
        <ele>506.2714844</ele>
        <time>2013-01-25T13:42:23Z</time>
      </trkpt>
      <trkpt lat="42.94567" lon="1.86105">
        <ele>508.6746826</ele>
        <time>2013-01-25T13:42:29Z</time>
      </trkpt>
      <trkpt lat="42.94558" lon="1.8609">
        <ele>510.1166992</ele>
        <time>2013-01-25T13:42:34Z</time>
      </trkpt>
      <trkpt lat="42.94549" lon="1.86076">
        <ele>509.6361084</ele>
        <time>2013-01-25T13:42:39Z</time>
      </trkpt>
      <trkpt lat="42.9454" lon="1.86062">
        <ele>509.1553955</ele>
        <time>2013-01-25T13:42:44Z</time>
      </trkpt>
      <trkpt lat="42.94529" lon="1.86044">
        <ele>505.7908936</ele>
        <time>2013-01-25T13:42:50Z</time>
      </trkpt>
      <trkpt lat="42.9452" lon="1.86028">
        <ele>505.3101807</ele>
        <time>2013-01-25T13:42:55Z</time>
      </trkpt>
      <trkpt lat="42.94509" lon="1.8601">
        <ele>506.7520752</ele>
        <time>2013-01-25T13:43:01Z</time>
      </trkpt>
      <trkpt lat="42.945" lon="1.86">
        <ele>505.3101807</ele>
        <time>2013-01-25T13:43:05Z</time>
      </trkpt>
      <trkpt lat="42.94495" lon="1.85988">
        <ele>505.3101807</ele>
        <time>2013-01-25T13:43:09Z</time>
      </trkpt>
      <trkpt lat="42.94482" lon="1.85973">
        <ele>506.2714844</ele>
        <time>2013-01-25T13:43:15Z</time>
      </trkpt>
      <trkpt lat="42.94473" lon="1.8596">
        <ele>506.7520752</ele>
        <time>2013-01-25T13:43:20Z</time>
      </trkpt>
      <trkpt lat="42.94465" lon="1.85947">
        <ele>507.2327881</ele>
        <time>2013-01-25T13:43:25Z</time>
      </trkpt>
      <trkpt lat="42.94454" lon="1.85934">
        <ele>507.713501</ele>
        <time>2013-01-25T13:43:30Z</time>
      </trkpt>
      <trkpt lat="42.94443" lon="1.85922">
        <ele>509.6361084</ele>
        <time>2013-01-25T13:43:35Z</time>
      </trkpt>
      <trkpt lat="42.94432" lon="1.85915">
        <ele>511.5587158</ele>
        <time>2013-01-25T13:43:39Z</time>
      </trkpt>
      <trkpt lat="42.94423" lon="1.85907">
        <ele>513.9620361</ele>
        <time>2013-01-25T13:43:43Z</time>
      </trkpt>
      <trkpt lat="42.94413" lon="1.85892">
        <ele>515.8846436</ele>
        <time>2013-01-25T13:43:49Z</time>
      </trkpt>
      <trkpt lat="42.94406" lon="1.85883">
        <ele>517.3266602</ele>
        <time>2013-01-25T13:43:53Z</time>
      </trkpt>
      <trkpt lat="42.94393" lon="1.85871">
        <ele>519.2492676</ele>
        <time>2013-01-25T13:43:58Z</time>
      </trkpt>
      <trkpt lat="42.94383" lon="1.85864">
        <ele>522.6138916</ele>
        <time>2013-01-25T13:44:02Z</time>
      </trkpt>
      <trkpt lat="42.94377" lon="1.85855">
        <ele>522.6138916</ele>
        <time>2013-01-25T13:44:06Z</time>
      </trkpt>
      <trkpt lat="42.94364" lon="1.85846">
        <ele>523.0946045</ele>
        <time>2013-01-25T13:44:11Z</time>
      </trkpt>
      <trkpt lat="42.94347" lon="1.85832">
        <ele>520.6912842</ele>
        <time>2013-01-25T13:44:18Z</time>
      </trkpt>
      <trkpt lat="42.94339" lon="1.85824">
        <ele>519.2492676</ele>
        <time>2013-01-25T13:44:22Z</time>
      </trkpt>
      <trkpt lat="42.94328" lon="1.85814">
        <ele>517.807251</ele>
        <time>2013-01-25T13:44:27Z</time>
      </trkpt>
      <trkpt lat="42.94316" lon="1.85808">
        <ele>516.8459473</ele>
        <time>2013-01-25T13:44:32Z</time>
      </trkpt>
      <trkpt lat="42.94303" lon="1.85796">
        <ele>516.3652344</ele>
        <time>2013-01-25T13:44:37Z</time>
      </trkpt>
      <trkpt lat="42.94293" lon="1.85789">
        <ele>518.2878418</ele>
        <time>2013-01-25T13:44:41Z</time>
      </trkpt>
      <trkpt lat="42.94281" lon="1.85775">
        <ele>517.3266602</ele>
        <time>2013-01-25T13:44:46Z</time>
      </trkpt>
      <trkpt lat="42.94269" lon="1.85766">
        <ele>518.7685547</ele>
        <time>2013-01-25T13:44:51Z</time>
      </trkpt>
      <trkpt lat="42.94258" lon="1.85757">
        <ele>515.4040527</ele>
        <time>2013-01-25T13:44:56Z</time>
      </trkpt>
      <trkpt lat="42.94245" lon="1.85743">
        <ele>512.0394287</ele>
        <time>2013-01-25T13:45:02Z</time>
      </trkpt>
      <trkpt lat="42.94231" lon="1.85732">
        <ele>508.6746826</ele>
        <time>2013-01-25T13:45:08Z</time>
      </trkpt>
      <trkpt lat="42.94219" lon="1.85724">
        <ele>506.2714844</ele>
        <time>2013-01-25T13:45:13Z</time>
      </trkpt>
      <trkpt lat="42.94202" lon="1.85713">
        <ele>505.7908936</ele>
        <time>2013-01-25T13:45:20Z</time>
      </trkpt>
      <trkpt lat="42.94199" lon="1.85711">
        <ele>505.3101807</ele>
        <time>2013-01-25T13:45:22Z</time>
      </trkpt>
      <trkpt lat="42.94193" lon="1.85694">
        <ele>505.3101807</ele>
        <time>2013-01-25T13:45:28Z</time>
      </trkpt>
      <trkpt lat="42.94183" lon="1.85678">
        <ele>505.3101807</ele>
        <time>2013-01-25T13:45:34Z</time>
      </trkpt>
      <trkpt lat="42.94173" lon="1.85661">
        <ele>505.3101807</ele>
        <time>2013-01-25T13:45:40Z</time>
      </trkpt>
      <trkpt lat="42.94164" lon="1.85642">
        <ele>505.3101807</ele>
        <time>2013-01-25T13:45:46Z</time>
      </trkpt>
      <trkpt lat="42.94157" lon="1.85626">
        <ele>505.7908936</ele>
        <time>2013-01-25T13:45:51Z</time>
      </trkpt>
      <trkpt lat="42.94151" lon="1.8561">
        <ele>506.7520752</ele>
        <time>2013-01-25T13:45:56Z</time>
      </trkpt>
      <trkpt lat="42.94149" lon="1.85597">
        <ele>507.2327881</ele>
        <time>2013-01-25T13:46:00Z</time>
      </trkpt>
      <trkpt lat="42.94135" lon="1.85582">
        <ele>509.1553955</ele>
        <time>2013-01-25T13:46:06Z</time>
      </trkpt>
      <trkpt lat="42.9412" lon="1.85567">
        <ele>509.1553955</ele>
        <time>2013-01-25T13:46:13Z</time>
      </trkpt>
      <trkpt lat="42.94104" lon="1.85555">
        <ele>507.713501</ele>
        <time>2013-01-25T13:46:20Z</time>
      </trkpt>
      <trkpt lat="42.94087" lon="1.85542">
        <ele>506.7520752</ele>
        <time>2013-01-25T13:46:27Z</time>
      </trkpt>
      <trkpt lat="42.94071" lon="1.85528">
        <ele>506.2714844</ele>
        <time>2013-01-25T13:46:34Z</time>
      </trkpt>
      <trkpt lat="42.94057" lon="1.85516">
        <ele>507.713501</ele>
        <time>2013-01-25T13:46:40Z</time>
      </trkpt>
      <trkpt lat="42.94046" lon="1.85502">
        <ele>509.1553955</ele>
        <time>2013-01-25T13:46:46Z</time>
      </trkpt>
      <trkpt lat="42.94037" lon="1.85484">
        <ele>509.1553955</ele>
        <time>2013-01-25T13:46:52Z</time>
      </trkpt>
      <trkpt lat="42.94036" lon="1.85482">
        <ele>509.6361084</ele>
        <time>2013-01-25T13:46:53Z</time>
      </trkpt>
      <trkpt lat="42.94032" lon="1.85464">
        <ele>510.1166992</ele>
        <time>2013-01-25T13:46:59Z</time>
      </trkpt>
      <trkpt lat="42.94024" lon="1.85454">
        <ele>510.59729</ele>
        <time>2013-01-25T13:47:03Z</time>
      </trkpt>
      <trkpt lat="42.94009" lon="1.8544">
        <ele>512.5200195</ele>
        <time>2013-01-25T13:47:10Z</time>
      </trkpt>
      <trkpt lat="42.94001" lon="1.85434">
        <ele>513.4814453</ele>
        <time>2013-01-25T13:47:14Z</time>
      </trkpt>
      <trkpt lat="42.94001" lon="1.85424">
        <ele>513.4814453</ele>
        <time>2013-01-25T13:47:21Z</time>
      </trkpt>
      <trkpt lat="42.93997" lon="1.85412">
        <ele>513.4814453</ele>
        <time>2013-01-25T13:47:25Z</time>
      </trkpt>
      <trkpt lat="42.93987" lon="1.85403">
        <ele>513.0007324</ele>
        <time>2013-01-25T13:47:29Z</time>
      </trkpt>
      <trkpt lat="42.93975" lon="1.85391">
        <ele>511.5587158</ele>
        <time>2013-01-25T13:47:34Z</time>
      </trkpt>
      <trkpt lat="42.93963" lon="1.8538">
        <ele>512.5200195</ele>
        <time>2013-01-25T13:47:39Z</time>
      </trkpt>
      <trkpt lat="42.9395" lon="1.8537">
        <ele>512.0394287</ele>
        <time>2013-01-25T13:47:44Z</time>
      </trkpt>
      <trkpt lat="42.93938" lon="1.85359">
        <ele>512.5200195</ele>
        <time>2013-01-25T13:47:49Z</time>
      </trkpt>
      <trkpt lat="42.93926" lon="1.85351">
        <ele>512.5200195</ele>
        <time>2013-01-25T13:47:54Z</time>
      </trkpt>
      <trkpt lat="42.93914" lon="1.85343">
        <ele>513.0007324</ele>
        <time>2013-01-25T13:47:59Z</time>
      </trkpt>
      <trkpt lat="42.93902" lon="1.85334">
        <ele>512.5200195</ele>
        <time>2013-01-25T13:48:04Z</time>
      </trkpt>
      <trkpt lat="42.93885" lon="1.85321">
        <ele>511.0780029</ele>
        <time>2013-01-25T13:48:11Z</time>
      </trkpt>
      <trkpt lat="42.93875" lon="1.8531">
        <ele>511.0780029</ele>
        <time>2013-01-25T13:48:16Z</time>
      </trkpt>
      <trkpt lat="42.93864" lon="1.85301">
        <ele>511.5587158</ele>
        <time>2013-01-25T13:48:21Z</time>
      </trkpt>
      <trkpt lat="42.93857" lon="1.85292">
        <ele>513.0007324</ele>
        <time>2013-01-25T13:48:25Z</time>
      </trkpt>
      <trkpt lat="42.93842" lon="1.85282">
        <ele>514.9233398</ele>
        <time>2013-01-25T13:48:31Z</time>
      </trkpt>
      <trkpt lat="42.93827" lon="1.85273">
        <ele>516.8459473</ele>
        <time>2013-01-25T13:48:37Z</time>
      </trkpt>
      <trkpt lat="42.93814" lon="1.85262">
        <ele>517.807251</ele>
        <time>2013-01-25T13:48:42Z</time>
      </trkpt>
      <trkpt lat="42.93798" lon="1.85253">
        <ele>520.6912842</ele>
        <time>2013-01-25T13:48:48Z</time>
      </trkpt>
      <trkpt lat="42.93783" lon="1.85246">
        <ele>525.9783936</ele>
        <time>2013-01-25T13:48:54Z</time>
      </trkpt>
      <trkpt lat="42.93776" lon="1.85239">
        <ele>524.0557861</ele>
        <time>2013-01-25T13:48:57Z</time>
      </trkpt>
      <trkpt lat="42.93761" lon="1.85221">
        <ele>520.6912842</ele>
        <time>2013-01-25T13:49:04Z</time>
      </trkpt>
      <trkpt lat="42.93747" lon="1.85208">
        <ele>518.7685547</ele>
        <time>2013-01-25T13:49:10Z</time>
      </trkpt>
      <trkpt lat="42.93736" lon="1.85198">
        <ele>518.2878418</ele>
        <time>2013-01-25T13:49:15Z</time>
      </trkpt>
      <trkpt lat="42.93723" lon="1.85188">
        <ele>518.7685547</ele>
        <time>2013-01-25T13:49:20Z</time>
      </trkpt>
      <trkpt lat="42.93709" lon="1.85176">
        <ele>519.2492676</ele>
        <time>2013-01-25T13:49:26Z</time>
      </trkpt>
      <trkpt lat="42.93693" lon="1.85165">
        <ele>521.6525879</ele>
        <time>2013-01-25T13:49:33Z</time>
      </trkpt>
      <trkpt lat="42.93675" lon="1.85155">
        <ele>527.901001</ele>
        <time>2013-01-25T13:49:40Z</time>
      </trkpt>
      <trkpt lat="42.93662" lon="1.85145">
        <ele>528.8625488</ele>
        <time>2013-01-25T13:49:45Z</time>
      </trkpt>
      <trkpt lat="42.9365" lon="1.85138">
        <ele>531.7463379</ele>
        <time>2013-01-25T13:49:50Z</time>
      </trkpt>
      <trkpt lat="42.93637" lon="1.85133">
        <ele>535.1109619</ele>
        <time>2013-01-25T13:49:55Z</time>
      </trkpt>
      <trkpt lat="42.93627" lon="1.85128">
        <ele>537.5142822</ele>
        <time>2013-01-25T13:49:59Z</time>
      </trkpt>
      <trkpt lat="42.93616" lon="1.85113">
        <ele>533.1883545</ele>
        <time>2013-01-25T13:50:04Z</time>
      </trkpt>
      <trkpt lat="42.93604" lon="1.85096">
        <ele>528.3818359</ele>
        <time>2013-01-25T13:50:10Z</time>
      </trkpt>
      <trkpt lat="42.93594" lon="1.85089">
        <ele>528.3818359</ele>
        <time>2013-01-25T13:50:14Z</time>
      </trkpt>
      <trkpt lat="42.93578" lon="1.85074">
        <ele>526.4591064</ele>
        <time>2013-01-25T13:50:21Z</time>
      </trkpt>
      <trkpt lat="42.93561" lon="1.85063">
        <ele>530.7851563</ele>
        <time>2013-01-25T13:50:28Z</time>
      </trkpt>
      <trkpt lat="42.93551" lon="1.85054">
        <ele>532.2270508</ele>
        <time>2013-01-25T13:50:32Z</time>
      </trkpt>
      <trkpt lat="42.93535" lon="1.85046">
        <ele>537.5142822</ele>
        <time>2013-01-25T13:50:38Z</time>
      </trkpt>
      <trkpt lat="42.93528" lon="1.85036">
        <ele>537.5142822</ele>
        <time>2013-01-25T13:50:42Z</time>
      </trkpt>
      <trkpt lat="42.93514" lon="1.85025">
        <ele>535.1109619</ele>
        <time>2013-01-25T13:50:48Z</time>
      </trkpt>
      <trkpt lat="42.93501" lon="1.85015">
        <ele>531.7463379</ele>
        <time>2013-01-25T13:50:54Z</time>
      </trkpt>
      <trkpt lat="42.93498" lon="1.85013">
        <ele>531.2657471</ele>
        <time>2013-01-25T13:50:55Z</time>
      </trkpt>
      <trkpt lat="42.93495" lon="1.84996">
        <ele>529.8237305</ele>
        <time>2013-01-25T13:51:00Z</time>
      </trkpt>
      <trkpt lat="42.93497" lon="1.84988">
        <ele>527.901001</ele>
        <time>2013-01-25T13:51:02Z</time>
      </trkpt>
      <trkpt lat="42.93501" lon="1.84972">
        <ele>530.3044434</ele>
        <time>2013-01-25T13:51:07Z</time>
      </trkpt>
      <trkpt lat="42.93509" lon="1.84967">
        <ele>532.2270508</ele>
        <time>2013-01-25T13:51:12Z</time>
      </trkpt>
      <trkpt lat="42.93534" lon="1.84968">
        <ele>537.9949951</ele>
        <time>2013-01-25T13:51:19Z</time>
      </trkpt>
      <trkpt lat="42.9354" lon="1.84972">
        <ele>537.5142822</ele>
        <time>2013-01-25T13:51:24Z</time>
      </trkpt>
      <trkpt lat="42.93526" lon="1.84969">
        <ele>539.4368896</ele>
        <time>2013-01-25T13:51:29Z</time>
      </trkpt>
      <trkpt lat="42.93512" lon="1.84967">
        <ele>544.7242432</ele>
        <time>2013-01-25T13:51:34Z</time>
      </trkpt>
      <trkpt lat="42.93498" lon="1.8497">
        <ele>548.0888672</ele>
        <time>2013-01-25T13:51:39Z</time>
      </trkpt>
      <trkpt lat="42.93479" lon="1.84979">
        <ele>562.0280762</ele>
        <time>2013-01-25T13:51:45Z</time>
      </trkpt>
      <trkpt lat="42.93465" lon="1.84981">
        <ele>567.7956543</ele>
        <time>2013-01-25T13:51:50Z</time>
      </trkpt>
      <trkpt lat="42.93452" lon="1.84973">
        <ele>565.3925781</ele>
        <time>2013-01-25T13:51:56Z</time>
      </trkpt>
      <trkpt lat="42.93441" lon="1.84964">
        <ele>562.9892578</ele>
        <time>2013-01-25T13:52:01Z</time>
      </trkpt>
      <trkpt lat="42.9343" lon="1.84953">
        <ele>561.5473633</ele>
        <time>2013-01-25T13:52:06Z</time>
      </trkpt>
      <trkpt lat="42.93422" lon="1.84937">
        <ele>554.8178711</ele>
        <time>2013-01-25T13:52:11Z</time>
      </trkpt>
      <trkpt lat="42.93407" lon="1.84929">
        <ele>558.1828613</ele>
        <time>2013-01-25T13:52:17Z</time>
      </trkpt>
      <trkpt lat="42.93392" lon="1.84924">
        <ele>559.6247559</ele>
        <time>2013-01-25T13:52:23Z</time>
      </trkpt>
      <trkpt lat="42.93377" lon="1.84921">
        <ele>566.8344727</ele>
        <time>2013-01-25T13:52:28Z</time>
      </trkpt>
      <trkpt lat="42.93362" lon="1.84909">
        <ele>566.8344727</ele>
        <time>2013-01-25T13:52:34Z</time>
      </trkpt>
      <trkpt lat="42.93351" lon="1.84896">
        <ele>564.4311523</ele>
        <time>2013-01-25T13:52:39Z</time>
      </trkpt>
      <trkpt lat="42.93343" lon="1.84873">
        <ele>556.2600098</ele>
        <time>2013-01-25T13:52:45Z</time>
      </trkpt>
      <trkpt lat="42.93346" lon="1.84846">
        <ele>541.3594971</ele>
        <time>2013-01-25T13:52:50Z</time>
      </trkpt>
      <trkpt lat="42.93354" lon="1.8482">
        <ele>527.901001</ele>
        <time>2013-01-25T13:52:55Z</time>
      </trkpt>
      <trkpt lat="42.93361" lon="1.84798">
        <ele>518.2878418</ele>
        <time>2013-01-25T13:53:01Z</time>
      </trkpt>
      <trkpt lat="42.93364" lon="1.84789">
        <ele>517.3266602</ele>
        <time>2013-01-25T13:53:03Z</time>
      </trkpt>
      <trkpt lat="42.93367" lon="1.84769">
        <ele>515.4040527</ele>
        <time>2013-01-25T13:53:08Z</time>
      </trkpt>
      <trkpt lat="42.93364" lon="1.84766">
        <ele>517.3266602</ele>
        <time>2013-01-25T13:53:09Z</time>
      </trkpt>
      <trkpt lat="42.93352" lon="1.84744">
        <ele>523.0946045</ele>
        <time>2013-01-25T13:53:16Z</time>
      </trkpt>
      <trkpt lat="42.93348" lon="1.84719">
        <ele>523.5751953</ele>
        <time>2013-01-25T13:53:23Z</time>
      </trkpt>
      <trkpt lat="42.93345" lon="1.84703">
        <ele>525.9783936</ele>
        <time>2013-01-25T13:53:28Z</time>
      </trkpt>
      <trkpt lat="42.93343" lon="1.84686">
        <ele>527.901001</ele>
        <time>2013-01-25T13:53:33Z</time>
      </trkpt>
      <trkpt lat="42.93341" lon="1.84665">
        <ele>529.8237305</ele>
        <time>2013-01-25T13:53:39Z</time>
      </trkpt>
      <trkpt lat="42.93338" lon="1.84647">
        <ele>531.2657471</ele>
        <time>2013-01-25T13:53:44Z</time>
      </trkpt>
      <trkpt lat="42.93334" lon="1.84629">
        <ele>535.1109619</ele>
        <time>2013-01-25T13:53:49Z</time>
      </trkpt>
      <trkpt lat="42.93331" lon="1.84612">
        <ele>536.0723877</ele>
        <time>2013-01-25T13:53:54Z</time>
      </trkpt>
      <trkpt lat="42.93329" lon="1.84589">
        <ele>535.1109619</ele>
        <time>2013-01-25T13:54:00Z</time>
      </trkpt>
      <trkpt lat="42.93328" lon="1.84574">
        <ele>535.1109619</ele>
        <time>2013-01-25T13:54:04Z</time>
      </trkpt>
      <trkpt lat="42.93327" lon="1.84557">
        <ele>535.1109619</ele>
        <time>2013-01-25T13:54:09Z</time>
      </trkpt>
      <trkpt lat="42.93325" lon="1.84535">
        <ele>533.6689453</ele>
        <time>2013-01-25T13:54:15Z</time>
      </trkpt>
      <trkpt lat="42.93325" lon="1.84519">
        <ele>535.1109619</ele>
        <time>2013-01-25T13:54:20Z</time>
      </trkpt>
      <trkpt lat="42.93324" lon="1.84497">
        <ele>533.6689453</ele>
        <time>2013-01-25T13:54:26Z</time>
      </trkpt>
      <trkpt lat="42.93322" lon="1.84483">
        <ele>535.1109619</ele>
        <time>2013-01-25T13:54:30Z</time>
      </trkpt>
      <trkpt lat="42.93321" lon="1.84465">
        <ele>536.5531006</ele>
        <time>2013-01-25T13:54:35Z</time>
      </trkpt>
      <trkpt lat="42.93317" lon="1.84441">
        <ele>536.5531006</ele>
        <time>2013-01-25T13:54:42Z</time>
      </trkpt>
      <trkpt lat="42.93314" lon="1.84421">
        <ele>534.6303711</ele>
        <time>2013-01-25T13:54:48Z</time>
      </trkpt>
      <trkpt lat="42.93312" lon="1.84398">
        <ele>534.1496582</ele>
        <time>2013-01-25T13:54:56Z</time>
      </trkpt>
      <trkpt lat="42.93313" lon="1.84397">
        <ele>534.1496582</ele>
        <time>2013-01-25T13:54:58Z</time>
      </trkpt>
      <trkpt lat="42.93324" lon="1.84398">
        <ele>535.1109619</ele>
        <time>2013-01-25T13:55:07Z</time>
      </trkpt>
      <trkpt lat="42.9333" lon="1.84398">
        <ele>536.0723877</ele>
        <time>2013-01-25T13:55:13Z</time>
      </trkpt>
      <trkpt lat="42.93336" lon="1.84396">
        <ele>537.0336914</ele>
        <time>2013-01-25T13:55:17Z</time>
      </trkpt>
      <trkpt lat="42.9334" lon="1.84392">
        <ele>537.0336914</ele>
        <time>2013-01-25T13:55:24Z</time>
      </trkpt>
      <trkpt lat="42.93341" lon="1.8439">
        <ele>535.5915527</ele>
        <time>2013-01-25T13:55:32Z</time>
      </trkpt>
      <trkpt lat="42.9334" lon="1.84391">
        <ele>536.0723877</ele>
        <time>2013-01-25T13:55:40Z</time>
      </trkpt>
      <trkpt lat="42.93343" lon="1.8439">
        <ele>535.5915527</ele>
        <time>2013-01-25T13:56:06Z</time>
      </trkpt>
      <trkpt lat="42.93344" lon="1.84389">
        <ele>535.5915527</ele>
        <time>2013-01-25T13:56:07Z</time>
      </trkpt>
      <trkpt lat="42.93351" lon="1.84384">
        <ele>536.0723877</ele>
        <time>2013-01-25T13:56:12Z</time>
      </trkpt>
      <trkpt lat="42.93352" lon="1.84383">
        <ele>536.5531006</ele>
        <time>2013-01-25T13:56:13Z</time>
      </trkpt>
      <trkpt lat="42.93358" lon="1.84377">
        <ele>539.4368896</ele>
        <time>2013-01-25T13:56:19Z</time>
      </trkpt>
      <trkpt lat="42.93363" lon="1.84372">
        <ele>541.3594971</ele>
        <time>2013-01-25T13:56:23Z</time>
      </trkpt>
      <trkpt lat="42.93366" lon="1.84369">
        <ele>543.2821045</ele>
        <time>2013-01-25T13:56:26Z</time>
      </trkpt>
      <trkpt lat="42.9337" lon="1.8436">
        <ele>546.6468506</ele>
        <time>2013-01-25T13:56:32Z</time>
      </trkpt>
      <trkpt lat="42.93374" lon="1.84346">
        <ele>550.0114746</ele>
        <time>2013-01-25T13:56:39Z</time>
      </trkpt>
      <trkpt lat="42.93374" lon="1.84343">
        <ele>550.9726563</ele>
        <time>2013-01-25T13:56:40Z</time>
      </trkpt>
      <trkpt lat="42.93375" lon="1.84338">
        <ele>552.4145508</ele>
        <time>2013-01-25T13:56:43Z</time>
      </trkpt>
      <trkpt lat="42.93377" lon="1.84323">
        <ele>554.8178711</ele>
        <time>2013-01-25T13:56:49Z</time>
      </trkpt>
      <trkpt lat="42.93378" lon="1.84318">
        <ele>555.298584</ele>
        <time>2013-01-25T13:56:51Z</time>
      </trkpt>
      <trkpt lat="42.93383" lon="1.84299">
        <ele>555.298584</ele>
        <time>2013-01-25T13:56:58Z</time>
      </trkpt>
      <trkpt lat="42.93386" lon="1.84281">
        <ele>555.298584</ele>
        <time>2013-01-25T13:57:05Z</time>
      </trkpt>
      <trkpt lat="42.93387" lon="1.84273">
        <ele>555.7792969</ele>
        <time>2013-01-25T13:57:08Z</time>
      </trkpt>
      <trkpt lat="42.9339" lon="1.84262">
        <ele>555.298584</ele>
        <time>2013-01-25T13:57:12Z</time>
      </trkpt>
      <trkpt lat="42.93394" lon="1.84253">
        <ele>554.8178711</ele>
        <time>2013-01-25T13:57:16Z</time>
      </trkpt>
      <trkpt lat="42.93396" lon="1.84243">
        <ele>554.8178711</ele>
        <time>2013-01-25T13:57:19Z</time>
      </trkpt>
      <trkpt lat="42.93401" lon="1.84225">
        <ele>555.7792969</ele>
        <time>2013-01-25T13:57:26Z</time>
      </trkpt>
      <trkpt lat="42.93403" lon="1.84213">
        <ele>556.2600098</ele>
        <time>2013-01-25T13:57:31Z</time>
      </trkpt>
      <trkpt lat="42.93402" lon="1.84225">
        <ele>556.7407227</ele>
        <time>2013-01-25T13:57:35Z</time>
      </trkpt>
      <trkpt lat="42.93396" lon="1.84247">
        <ele>556.7407227</ele>
        <time>2013-01-25T13:57:42Z</time>
      </trkpt>
      <trkpt lat="42.93393" lon="1.8426">
        <ele>555.298584</ele>
        <time>2013-01-25T13:57:46Z</time>
      </trkpt>
      <trkpt lat="42.93389" lon="1.84276">
        <ele>554.3374023</ele>
        <time>2013-01-25T13:57:51Z</time>
      </trkpt>
      <trkpt lat="42.93385" lon="1.84293">
        <ele>554.3374023</ele>
        <time>2013-01-25T13:57:56Z</time>
      </trkpt>
      <trkpt lat="42.93383" lon="1.8431">
        <ele>553.8566895</ele>
        <time>2013-01-25T13:58:01Z</time>
      </trkpt>
      <trkpt lat="42.93381" lon="1.84326">
        <ele>552.8952637</ele>
        <time>2013-01-25T13:58:06Z</time>
      </trkpt>
      <trkpt lat="42.93377" lon="1.84344">
        <ele>549.5307617</ele>
        <time>2013-01-25T13:58:12Z</time>
      </trkpt>
      <trkpt lat="42.93374" lon="1.84358">
        <ele>546.1662598</ele>
        <time>2013-01-25T13:58:17Z</time>
      </trkpt>
      <trkpt lat="42.93375" lon="1.84364">
        <ele>546.1662598</ele>
        <time>2013-01-25T13:58:21Z</time>
      </trkpt>
      <trkpt lat="42.93377" lon="1.84367">
        <ele>546.6468506</ele>
        <time>2013-01-25T13:58:23Z</time>
      </trkpt>
      <trkpt lat="42.93379" lon="1.84372">
        <ele>547.1274414</ele>
        <time>2013-01-25T13:58:27Z</time>
      </trkpt>
      <trkpt lat="42.9338" lon="1.84376">
        <ele>547.6081543</ele>
        <time>2013-01-25T13:58:30Z</time>
      </trkpt>
      <trkpt lat="42.93387" lon="1.84382">
        <ele>551.934082</ele>
        <time>2013-01-25T13:58:38Z</time>
      </trkpt>
      <trkpt lat="42.93393" lon="1.84383">
        <ele>554.3374023</ele>
        <time>2013-01-25T13:58:44Z</time>
      </trkpt>
      <trkpt lat="42.93396" lon="1.84384">
        <ele>554.3374023</ele>
        <time>2013-01-25T13:58:46Z</time>
      </trkpt>
      <trkpt lat="42.93402" lon="1.84386">
        <ele>557.7021484</ele>
        <time>2013-01-25T13:58:51Z</time>
      </trkpt>
      <trkpt lat="42.93404" lon="1.84387">
        <ele>559.144043</ele>
        <time>2013-01-25T13:58:53Z</time>
      </trkpt>
      <trkpt lat="42.93411" lon="1.84387">
        <ele>561.5473633</ele>
        <time>2013-01-25T13:59:02Z</time>
      </trkpt>
      <trkpt lat="42.93417" lon="1.8439">
        <ele>565.3925781</ele>
        <time>2013-01-25T13:59:10Z</time>
      </trkpt>
      <trkpt lat="42.93421" lon="1.84392">
        <ele>567.3151855</ele>
        <time>2013-01-25T13:59:16Z</time>
      </trkpt>
      <trkpt lat="42.93429" lon="1.84394">
        <ele>570.1989746</ele>
        <time>2013-01-25T13:59:24Z</time>
      </trkpt>
      <trkpt lat="42.93432" lon="1.84396">
        <ele>571.1604004</ele>
        <time>2013-01-25T13:59:29Z</time>
      </trkpt>
      <trkpt lat="42.93437" lon="1.84399">
        <ele>572.1218262</ele>
        <time>2013-01-25T13:59:36Z</time>
      </trkpt>
      <trkpt lat="42.93441" lon="1.84399">
        <ele>574.0444336</ele>
        <time>2013-01-25T13:59:42Z</time>
      </trkpt>
      <trkpt lat="42.93446" lon="1.84403">
        <ele>575.967041</ele>
        <time>2013-01-25T13:59:49Z</time>
      </trkpt>
      <trkpt lat="42.93449" lon="1.84407">
        <ele>577.4091797</ele>
        <time>2013-01-25T13:59:54Z</time>
      </trkpt>
      <trkpt lat="42.93452" lon="1.84408">
        <ele>579.8122559</ele>
        <time>2013-01-25T13:59:59Z</time>
      </trkpt>
      <trkpt lat="42.93455" lon="1.84412">
        <ele>581.2543945</ele>
        <time>2013-01-25T14:00:05Z</time>
      </trkpt>
      <trkpt lat="42.93457" lon="1.84417">
        <ele>582.6962891</ele>
        <time>2013-01-25T14:00:11Z</time>
      </trkpt>
      <trkpt lat="42.93458" lon="1.84423">
        <ele>583.6574707</ele>
        <time>2013-01-25T14:00:17Z</time>
      </trkpt>
      <trkpt lat="42.93459" lon="1.84431">
        <ele>583.6574707</ele>
        <time>2013-01-25T14:00:22Z</time>
      </trkpt>
      <trkpt lat="42.9346" lon="1.84433">
        <ele>583.6574707</ele>
        <time>2013-01-25T14:00:23Z</time>
      </trkpt>
      <trkpt lat="42.93462" lon="1.84444">
        <ele>585.0996094</ele>
        <time>2013-01-25T14:00:31Z</time>
      </trkpt>
      <trkpt lat="42.93464" lon="1.84454">
        <ele>587.0219727</ele>
        <time>2013-01-25T14:00:38Z</time>
      </trkpt>
      <trkpt lat="42.93466" lon="1.84464">
        <ele>587.9833984</ele>
        <time>2013-01-25T14:00:45Z</time>
      </trkpt>
      <trkpt lat="42.93469" lon="1.84474">
        <ele>590.3869629</ele>
        <time>2013-01-25T14:00:52Z</time>
      </trkpt>
      <trkpt lat="42.93471" lon="1.84478">
        <ele>592.3095703</ele>
        <time>2013-01-25T14:00:56Z</time>
      </trkpt>
      <trkpt lat="42.93475" lon="1.84485">
        <ele>594.7126465</ele>
        <time>2013-01-25T14:01:03Z</time>
      </trkpt>
      <trkpt lat="42.93478" lon="1.8449">
        <ele>595.1933594</ele>
        <time>2013-01-25T14:01:07Z</time>
      </trkpt>
      <trkpt lat="42.93481" lon="1.84499">
        <ele>597.1159668</ele>
        <time>2013-01-25T14:01:14Z</time>
      </trkpt>
      <trkpt lat="42.93481" lon="1.845">
        <ele>597.5966797</ele>
        <time>2013-01-25T14:01:15Z</time>
      </trkpt>
      <trkpt lat="42.93486" lon="1.84508">
        <ele>600.4807129</ele>
        <time>2013-01-25T14:01:23Z</time>
      </trkpt>
      <trkpt lat="42.93487" lon="1.84517">
        <ele>601.9226074</ele>
        <time>2013-01-25T14:01:30Z</time>
      </trkpt>
      <trkpt lat="42.9349" lon="1.84523">
        <ele>603.8452148</ele>
        <time>2013-01-25T14:01:37Z</time>
      </trkpt>
      <trkpt lat="42.93491" lon="1.84531">
        <ele>605.2873535</ele>
        <time>2013-01-25T14:01:43Z</time>
      </trkpt>
      <trkpt lat="42.93493" lon="1.84537">
        <ele>606.729248</ele>
        <time>2013-01-25T14:01:48Z</time>
      </trkpt>
      <trkpt lat="42.93497" lon="1.84543">
        <ele>609.1325684</ele>
        <time>2013-01-25T14:01:55Z</time>
      </trkpt>
      <trkpt lat="42.93499" lon="1.84549">
        <ele>610.5744629</ele>
        <time>2013-01-25T14:02:00Z</time>
      </trkpt>
      <trkpt lat="42.93503" lon="1.84556">
        <ele>611.5358887</ele>
        <time>2013-01-25T14:02:07Z</time>
      </trkpt>
      <trkpt lat="42.93506" lon="1.84565">
        <ele>613.4584961</ele>
        <time>2013-01-25T14:02:14Z</time>
      </trkpt>
      <trkpt lat="42.93507" lon="1.84566">
        <ele>613.4584961</ele>
        <time>2013-01-25T14:02:15Z</time>
      </trkpt>
      <trkpt lat="42.93508" lon="1.84578">
        <ele>613.9389648</ele>
        <time>2013-01-25T14:02:23Z</time>
      </trkpt>
      <trkpt lat="42.93508" lon="1.84588">
        <ele>614.9003906</ele>
        <time>2013-01-25T14:02:28Z</time>
      </trkpt>
      <trkpt lat="42.93507" lon="1.84603">
        <ele>613.4584961</ele>
        <time>2013-01-25T14:02:33Z</time>
      </trkpt>
      <trkpt lat="42.93506" lon="1.84616">
        <ele>612.4970703</ele>
        <time>2013-01-25T14:02:37Z</time>
      </trkpt>
      <trkpt lat="42.93507" lon="1.84629">
        <ele>612.0166016</ele>
        <time>2013-01-25T14:02:42Z</time>
      </trkpt>
      <trkpt lat="42.9351" lon="1.84642">
        <ele>612.0166016</ele>
        <time>2013-01-25T14:02:47Z</time>
      </trkpt>
      <trkpt lat="42.93513" lon="1.84649">
        <ele>612.0166016</ele>
        <time>2013-01-25T14:02:51Z</time>
      </trkpt>
      <trkpt lat="42.93513" lon="1.84652">
        <ele>612.0166016</ele>
        <time>2013-01-25T14:02:53Z</time>
      </trkpt>
      <trkpt lat="42.93514" lon="1.84661">
        <ele>612.0166016</ele>
        <time>2013-01-25T14:02:56Z</time>
      </trkpt>
      <trkpt lat="42.93519" lon="1.84668">
        <ele>612.4970703</ele>
        <time>2013-01-25T14:03:01Z</time>
      </trkpt>
      <trkpt lat="42.9352" lon="1.84667">
        <ele>612.9777832</ele>
        <time>2013-01-25T14:03:02Z</time>
      </trkpt>
      <trkpt lat="42.93521" lon="1.8467">
        <ele>614.4196777</ele>
        <time>2013-01-25T14:03:05Z</time>
      </trkpt>
      <trkpt lat="42.93525" lon="1.84673">
        <ele>617.7841797</ele>
        <time>2013-01-25T14:03:12Z</time>
      </trkpt>
      <trkpt lat="42.9353" lon="1.8468">
        <ele>619.2263184</ele>
        <time>2013-01-25T14:03:18Z</time>
      </trkpt>
      <trkpt lat="42.93532" lon="1.84683">
        <ele>620.668457</ele>
        <time>2013-01-25T14:03:22Z</time>
      </trkpt>
      <trkpt lat="42.93533" lon="1.84684">
        <ele>620.668457</ele>
        <time>2013-01-25T14:03:23Z</time>
      </trkpt>
      <trkpt lat="42.93535" lon="1.84693">
        <ele>621.1491699</ele>
        <time>2013-01-25T14:03:29Z</time>
      </trkpt>
      <trkpt lat="42.93536" lon="1.84698">
        <ele>621.1491699</ele>
        <time>2013-01-25T14:03:32Z</time>
      </trkpt>
      <trkpt lat="42.93538" lon="1.84703">
        <ele>621.6296387</ele>
        <time>2013-01-25T14:03:36Z</time>
      </trkpt>
      <trkpt lat="42.93538" lon="1.84709">
        <ele>621.6296387</ele>
        <time>2013-01-25T14:03:43Z</time>
      </trkpt>
      <trkpt lat="42.93542" lon="1.8472">
        <ele>623.0717773</ele>
        <time>2013-01-25T14:03:50Z</time>
      </trkpt>
      <trkpt lat="42.93542" lon="1.84721">
        <ele>623.5524902</ele>
        <time>2013-01-25T14:03:51Z</time>
      </trkpt>
      <trkpt lat="42.9354" lon="1.84725">
        <ele>626.4362793</ele>
        <time>2013-01-25T14:03:58Z</time>
      </trkpt>
      <trkpt lat="42.93538" lon="1.8473">
        <ele>627.3977051</ele>
        <time>2013-01-25T14:04:04Z</time>
      </trkpt>
      <trkpt lat="42.93535" lon="1.84729">
        <ele>627.8781738</ele>
        <time>2013-01-25T14:04:10Z</time>
      </trkpt>
      <trkpt lat="42.93535" lon="1.84727">
        <ele>627.8781738</ele>
        <time>2013-01-25T14:04:16Z</time>
      </trkpt>
      <trkpt lat="42.93537" lon="1.8473">
        <ele>627.3977051</ele>
        <time>2013-01-25T14:04:20Z</time>
      </trkpt>
      <trkpt lat="42.93539" lon="1.84726">
        <ele>627.3977051</ele>
        <time>2013-01-25T14:04:26Z</time>
      </trkpt>
      <trkpt lat="42.93542" lon="1.84721">
        <ele>625.9555664</ele>
        <time>2013-01-25T14:04:35Z</time>
      </trkpt>
      <trkpt lat="42.93546" lon="1.84715">
        <ele>626.4362793</ele>
        <time>2013-01-25T14:04:40Z</time>
      </trkpt>
      <trkpt lat="42.93546" lon="1.84713">
        <ele>626.4362793</ele>
        <time>2013-01-25T14:04:41Z</time>
      </trkpt>
      <trkpt lat="42.93549" lon="1.84704">
        <ele>626.9169922</ele>
        <time>2013-01-25T14:04:46Z</time>
      </trkpt>
      <trkpt lat="42.9355" lon="1.847">
        <ele>628.8395996</ele>
        <time>2013-01-25T14:04:50Z</time>
      </trkpt>
      <trkpt lat="42.93553" lon="1.84694">
        <ele>629.3200684</ele>
        <time>2013-01-25T14:04:55Z</time>
      </trkpt>
      <trkpt lat="42.93554" lon="1.84689">
        <ele>629.8007813</ele>
        <time>2013-01-25T14:05:01Z</time>
      </trkpt>
      <trkpt lat="42.93556" lon="1.84686">
        <ele>628.8395996</ele>
        <time>2013-01-25T14:05:08Z</time>
      </trkpt>
      <trkpt lat="42.93559" lon="1.8468">
        <ele>629.3200684</ele>
        <time>2013-01-25T14:05:12Z</time>
      </trkpt>
      <trkpt lat="42.93561" lon="1.84678">
        <ele>630.762207</ele>
        <time>2013-01-25T14:05:14Z</time>
      </trkpt>
      <trkpt lat="42.93565" lon="1.84672">
        <ele>632.6848145</ele>
        <time>2013-01-25T14:05:19Z</time>
      </trkpt>
      <trkpt lat="42.9357" lon="1.84666">
        <ele>634.6074219</ele>
        <time>2013-01-25T14:05:24Z</time>
      </trkpt>
      <trkpt lat="42.93577" lon="1.84656">
        <ele>635.0881348</ele>
        <time>2013-01-25T14:05:30Z</time>
      </trkpt>
      <trkpt lat="42.93579" lon="1.84648">
        <ele>637.0107422</ele>
        <time>2013-01-25T14:05:34Z</time>
      </trkpt>
      <trkpt lat="42.93583" lon="1.8464">
        <ele>637.972168</ele>
        <time>2013-01-25T14:05:38Z</time>
      </trkpt>
      <trkpt lat="42.93587" lon="1.84633">
        <ele>638.4528809</ele>
        <time>2013-01-25T14:05:41Z</time>
      </trkpt>
      <trkpt lat="42.93592" lon="1.84628">
        <ele>638.9335938</ele>
        <time>2013-01-25T14:05:44Z</time>
      </trkpt>
      <trkpt lat="42.93596" lon="1.84615">
        <ele>638.9335938</ele>
        <time>2013-01-25T14:05:50Z</time>
      </trkpt>
      <trkpt lat="42.93599" lon="1.84606">
        <ele>640.3754883</ele>
        <time>2013-01-25T14:05:54Z</time>
      </trkpt>
      <trkpt lat="42.93603" lon="1.84594">
        <ele>642.2980957</ele>
        <time>2013-01-25T14:06:00Z</time>
      </trkpt>
      <trkpt lat="42.93604" lon="1.84592">
        <ele>642.2980957</ele>
        <time>2013-01-25T14:06:01Z</time>
      </trkpt>
      <trkpt lat="42.93607" lon="1.84581">
        <ele>642.7788086</ele>
        <time>2013-01-25T14:06:06Z</time>
      </trkpt>
      <trkpt lat="42.9361" lon="1.84576">
        <ele>643.2592773</ele>
        <time>2013-01-25T14:06:09Z</time>
      </trkpt>
      <trkpt lat="42.93617" lon="1.84569">
        <ele>645.6625977</ele>
        <time>2013-01-25T14:06:14Z</time>
      </trkpt>
      <trkpt lat="42.93621" lon="1.84563">
        <ele>647.1044922</ele>
        <time>2013-01-25T14:06:18Z</time>
      </trkpt>
      <trkpt lat="42.93626" lon="1.84558">
        <ele>647.5852051</ele>
        <time>2013-01-25T14:06:22Z</time>
      </trkpt>
      <trkpt lat="42.93629" lon="1.84547">
        <ele>649.5078125</ele>
        <time>2013-01-25T14:06:27Z</time>
      </trkpt>
      <trkpt lat="42.93632" lon="1.84539">
        <ele>650.949707</ele>
        <time>2013-01-25T14:06:30Z</time>
      </trkpt>
      <trkpt lat="42.93636" lon="1.84531">
        <ele>651.9111328</ele>
        <time>2013-01-25T14:06:34Z</time>
      </trkpt>
      <trkpt lat="42.93644" lon="1.84517">
        <ele>652.8725586</ele>
        <time>2013-01-25T14:06:40Z</time>
      </trkpt>
      <trkpt lat="42.9365" lon="1.84507">
        <ele>652.8725586</ele>
        <time>2013-01-25T14:06:45Z</time>
      </trkpt>
      <trkpt lat="42.93655" lon="1.84499">
        <ele>653.8339844</ele>
        <time>2013-01-25T14:06:49Z</time>
      </trkpt>
      <trkpt lat="42.93664" lon="1.8449">
        <ele>654.3146973</ele>
        <time>2013-01-25T14:06:54Z</time>
      </trkpt>
      <trkpt lat="42.93665" lon="1.84488">
        <ele>654.795166</ele>
        <time>2013-01-25T14:06:55Z</time>
      </trkpt>
      <trkpt lat="42.93671" lon="1.84479">
        <ele>655.7565918</ele>
        <time>2013-01-25T14:07:00Z</time>
      </trkpt>
      <trkpt lat="42.93672" lon="1.84476">
        <ele>655.7565918</ele>
        <time>2013-01-25T14:07:01Z</time>
      </trkpt>
      <trkpt lat="42.93676" lon="1.84466">
        <ele>655.7565918</ele>
        <time>2013-01-25T14:07:05Z</time>
      </trkpt>
      <trkpt lat="42.93684" lon="1.84456">
        <ele>655.7565918</ele>
        <time>2013-01-25T14:07:11Z</time>
      </trkpt>
      <trkpt lat="42.93691" lon="1.84451">
        <ele>655.7565918</ele>
        <time>2013-01-25T14:07:15Z</time>
      </trkpt>
      <trkpt lat="42.93694" lon="1.84447">
        <ele>655.7565918</ele>
        <time>2013-01-25T14:07:20Z</time>
      </trkpt>
      <trkpt lat="42.93697" lon="1.84445">
        <ele>655.2758789</ele>
        <time>2013-01-25T14:07:26Z</time>
      </trkpt>
      <trkpt lat="42.93701" lon="1.84437">
        <ele>655.7565918</ele>
        <time>2013-01-25T14:07:33Z</time>
      </trkpt>
      <trkpt lat="42.93703" lon="1.84431">
        <ele>657.1984863</ele>
        <time>2013-01-25T14:07:37Z</time>
      </trkpt>
      <trkpt lat="42.93706" lon="1.84416">
        <ele>658.6403809</ele>
        <time>2013-01-25T14:07:43Z</time>
      </trkpt>
      <trkpt lat="42.93708" lon="1.84405">
        <ele>660.5629883</ele>
        <time>2013-01-25T14:07:47Z</time>
      </trkpt>
      <trkpt lat="42.93709" lon="1.84403">
        <ele>661.0437012</ele>
        <time>2013-01-25T14:07:48Z</time>
      </trkpt>
      <trkpt lat="42.93711" lon="1.84394">
        <ele>660.5629883</ele>
        <time>2013-01-25T14:07:53Z</time>
      </trkpt>
      <trkpt lat="42.93711" lon="1.84381">
        <ele>660.5629883</ele>
        <time>2013-01-25T14:07:58Z</time>
      </trkpt>
      <trkpt lat="42.93713" lon="1.84374">
        <ele>660.5629883</ele>
        <time>2013-01-25T14:08:01Z</time>
      </trkpt>
      <trkpt lat="42.93713" lon="1.84366">
        <ele>659.6018066</ele>
        <time>2013-01-25T14:08:05Z</time>
      </trkpt>
      <trkpt lat="42.93715" lon="1.8436">
        <ele>660.0822754</ele>
        <time>2013-01-25T14:08:08Z</time>
      </trkpt>
      <trkpt lat="42.93718" lon="1.84348">
        <ele>661.5244141</ele>
        <time>2013-01-25T14:08:13Z</time>
      </trkpt>
      <trkpt lat="42.93724" lon="1.84345">
        <ele>662.9663086</ele>
        <time>2013-01-25T14:08:17Z</time>
      </trkpt>
      <trkpt lat="42.93729" lon="1.84339">
        <ele>663.4470215</ele>
        <time>2013-01-25T14:08:22Z</time>
      </trkpt>
      <trkpt lat="42.93731" lon="1.84335">
        <ele>663.4470215</ele>
        <time>2013-01-25T14:08:26Z</time>
      </trkpt>
      <trkpt lat="42.93734" lon="1.8433">
        <ele>665.3696289</ele>
        <time>2013-01-25T14:08:31Z</time>
      </trkpt>
      <trkpt lat="42.93735" lon="1.84325">
        <ele>666.8115234</ele>
        <time>2013-01-25T14:08:34Z</time>
      </trkpt>
      <trkpt lat="42.93733" lon="1.84313">
        <ele>668.734375</ele>
        <time>2013-01-25T14:08:39Z</time>
      </trkpt>
      <trkpt lat="42.93732" lon="1.84306">
        <ele>669.2150879</ele>
        <time>2013-01-25T14:08:41Z</time>
      </trkpt>
      <trkpt lat="42.93737" lon="1.84298">
        <ele>669.2150879</ele>
        <time>2013-01-25T14:08:45Z</time>
      </trkpt>
      <trkpt lat="42.93739" lon="1.84295">
        <ele>669.6958008</ele>
        <time>2013-01-25T14:08:47Z</time>
      </trkpt>
      <trkpt lat="42.93742" lon="1.84285">
        <ele>670.1762695</ele>
        <time>2013-01-25T14:08:52Z</time>
      </trkpt>
      <trkpt lat="42.93744" lon="1.8428">
        <ele>671.6181641</ele>
        <time>2013-01-25T14:08:55Z</time>
      </trkpt>
      <trkpt lat="42.93748" lon="1.84268">
        <ele>673.5410156</ele>
        <time>2013-01-25T14:09:01Z</time>
      </trkpt>
      <trkpt lat="42.9375" lon="1.84264">
        <ele>674.0214844</ele>
        <time>2013-01-25T14:09:03Z</time>
      </trkpt>
      <trkpt lat="42.93753" lon="1.84244">
        <ele>674.0214844</ele>
        <time>2013-01-25T14:09:11Z</time>
      </trkpt>
      <trkpt lat="42.93756" lon="1.84237">
        <ele>674.0214844</ele>
        <time>2013-01-25T14:09:14Z</time>
      </trkpt>
      <trkpt lat="42.9376" lon="1.84227">
        <ele>674.0214844</ele>
        <time>2013-01-25T14:09:18Z</time>
      </trkpt>
      <trkpt lat="42.93763" lon="1.84222">
        <ele>674.9829102</ele>
        <time>2013-01-25T14:09:21Z</time>
      </trkpt>
      <trkpt lat="42.93766" lon="1.84217">
        <ele>674.9829102</ele>
        <time>2013-01-25T14:09:24Z</time>
      </trkpt>
      <trkpt lat="42.9377" lon="1.8421">
        <ele>674.5021973</ele>
        <time>2013-01-25T14:09:28Z</time>
      </trkpt>
      <trkpt lat="42.93769" lon="1.84202">
        <ele>674.9829102</ele>
        <time>2013-01-25T14:09:32Z</time>
      </trkpt>
      <trkpt lat="42.93772" lon="1.84195">
        <ele>676.9055176</ele>
        <time>2013-01-25T14:09:36Z</time>
      </trkpt>
      <trkpt lat="42.93777" lon="1.84189">
        <ele>679.3085938</ele>
        <time>2013-01-25T14:09:41Z</time>
      </trkpt>
      <trkpt lat="42.93778" lon="1.84184">
        <ele>680.7507324</ele>
        <time>2013-01-25T14:09:45Z</time>
      </trkpt>
      <trkpt lat="42.93783" lon="1.84175">
        <ele>680.2700195</ele>
        <time>2013-01-25T14:09:50Z</time>
      </trkpt>
      <trkpt lat="42.93785" lon="1.8417">
        <ele>679.7893066</ele>
        <time>2013-01-25T14:09:54Z</time>
      </trkpt>
      <trkpt lat="42.93786" lon="1.84165">
        <ele>678.828125</ele>
        <time>2013-01-25T14:09:58Z</time>
      </trkpt>
      <trkpt lat="42.93781" lon="1.84156">
        <ele>678.828125</ele>
        <time>2013-01-25T14:10:05Z</time>
      </trkpt>
      <trkpt lat="42.9378" lon="1.84154">
        <ele>678.3474121</ele>
        <time>2013-01-25T14:10:06Z</time>
      </trkpt>
      <trkpt lat="42.93783" lon="1.84145">
        <ele>676.9055176</ele>
        <time>2013-01-25T14:10:11Z</time>
      </trkpt>
      <trkpt lat="42.93785" lon="1.84141">
        <ele>676.4248047</ele>
        <time>2013-01-25T14:10:13Z</time>
      </trkpt>
      <trkpt lat="42.93788" lon="1.8413">
        <ele>674.9829102</ele>
        <time>2013-01-25T14:10:18Z</time>
      </trkpt>
      <trkpt lat="42.93791" lon="1.84123">
        <ele>674.0214844</ele>
        <time>2013-01-25T14:10:22Z</time>
      </trkpt>
      <trkpt lat="42.93792" lon="1.84112">
        <ele>674.5021973</ele>
        <time>2013-01-25T14:10:27Z</time>
      </trkpt>
      <trkpt lat="42.93795" lon="1.84108">
        <ele>674.9829102</ele>
        <time>2013-01-25T14:10:30Z</time>
      </trkpt>
      <trkpt lat="42.938" lon="1.84104">
        <ele>676.4248047</ele>
        <time>2013-01-25T14:10:34Z</time>
      </trkpt>
      <trkpt lat="42.93803" lon="1.84102">
        <ele>676.9055176</ele>
        <time>2013-01-25T14:10:36Z</time>
      </trkpt>
      <trkpt lat="42.93804" lon="1.84096">
        <ele>677.3862305</ele>
        <time>2013-01-25T14:10:40Z</time>
      </trkpt>
      <trkpt lat="42.93805" lon="1.84091">
        <ele>677.8666992</ele>
        <time>2013-01-25T14:10:43Z</time>
      </trkpt>
      <trkpt lat="42.93807" lon="1.84078">
        <ele>680.2700195</ele>
        <time>2013-01-25T14:10:48Z</time>
      </trkpt>
      <trkpt lat="42.93814" lon="1.84058">
        <ele>682.6733398</ele>
        <time>2013-01-25T14:10:56Z</time>
      </trkpt>
      <trkpt lat="42.93814" lon="1.84056">
        <ele>682.6733398</ele>
        <time>2013-01-25T14:10:57Z</time>
      </trkpt>
      <trkpt lat="42.93817" lon="1.84049">
        <ele>684.5961914</ele>
        <time>2013-01-25T14:11:01Z</time>
      </trkpt>
      <trkpt lat="42.93817" lon="1.84044">
        <ele>687.4799805</ele>
        <time>2013-01-25T14:11:05Z</time>
      </trkpt>
      <trkpt lat="42.93817" lon="1.84041">
        <ele>687.4799805</ele>
        <time>2013-01-25T14:11:06Z</time>
      </trkpt>
      <trkpt lat="42.93819" lon="1.84032">
        <ele>688.4414063</ele>
        <time>2013-01-25T14:11:12Z</time>
      </trkpt>
      <trkpt lat="42.9382" lon="1.84029">
        <ele>688.9221191</ele>
        <time>2013-01-25T14:11:14Z</time>
      </trkpt>
      <trkpt lat="42.93823" lon="1.8402">
        <ele>689.8833008</ele>
        <time>2013-01-25T14:11:19Z</time>
      </trkpt>
      <trkpt lat="42.93824" lon="1.84019">
        <ele>689.8833008</ele>
        <time>2013-01-25T14:11:20Z</time>
      </trkpt>
      <trkpt lat="42.93829" lon="1.84009">
        <ele>691.3251953</ele>
        <time>2013-01-25T14:11:27Z</time>
      </trkpt>
      <trkpt lat="42.93829" lon="1.84007">
        <ele>691.8059082</ele>
        <time>2013-01-25T14:11:28Z</time>
      </trkpt>
      <trkpt lat="42.93833" lon="1.83998">
        <ele>691.3251953</ele>
        <time>2013-01-25T14:11:33Z</time>
      </trkpt>
      <trkpt lat="42.93833" lon="1.83996">
        <ele>691.8059082</ele>
        <time>2013-01-25T14:11:34Z</time>
      </trkpt>
      <trkpt lat="42.93835" lon="1.83992">
        <ele>691.3251953</ele>
        <time>2013-01-25T14:11:38Z</time>
      </trkpt>
      <trkpt lat="42.93834" lon="1.83983">
        <ele>692.2866211</ele>
        <time>2013-01-25T14:11:44Z</time>
      </trkpt>
      <trkpt lat="42.93834" lon="1.83981">
        <ele>692.2866211</ele>
        <time>2013-01-25T14:11:45Z</time>
      </trkpt>
      <trkpt lat="42.93835" lon="1.83975">
        <ele>693.7285156</ele>
        <time>2013-01-25T14:11:49Z</time>
      </trkpt>
      <trkpt lat="42.93839" lon="1.83972">
        <ele>694.2092285</ele>
        <time>2013-01-25T14:11:54Z</time>
      </trkpt>
      <trkpt lat="42.93842" lon="1.8397">
        <ele>694.6896973</ele>
        <time>2013-01-25T14:11:59Z</time>
      </trkpt>
      <trkpt lat="42.93846" lon="1.83966">
        <ele>695.651123</ele>
        <time>2013-01-25T14:12:04Z</time>
      </trkpt>
      <trkpt lat="42.9385" lon="1.83961">
        <ele>695.651123</ele>
        <time>2013-01-25T14:12:10Z</time>
      </trkpt>
      <trkpt lat="42.93851" lon="1.83958">
        <ele>696.6125488</ele>
        <time>2013-01-25T14:12:12Z</time>
      </trkpt>
      <trkpt lat="42.93852" lon="1.83955">
        <ele>696.6125488</ele>
        <time>2013-01-25T14:12:14Z</time>
      </trkpt>
      <trkpt lat="42.93857" lon="1.83947">
        <ele>697.0930176</ele>
        <time>2013-01-25T14:12:21Z</time>
      </trkpt>
      <trkpt lat="42.93861" lon="1.83941">
        <ele>698.0544434</ele>
        <time>2013-01-25T14:12:26Z</time>
      </trkpt>
      <trkpt lat="42.93863" lon="1.83933">
        <ele>698.5349121</ele>
        <time>2013-01-25T14:12:31Z</time>
      </trkpt>
      <trkpt lat="42.93866" lon="1.83925">
        <ele>699.015625</ele>
        <time>2013-01-25T14:12:37Z</time>
      </trkpt>
      <trkpt lat="42.93867" lon="1.83919">
        <ele>699.9770508</ele>
        <time>2013-01-25T14:12:41Z</time>
      </trkpt>
      <trkpt lat="42.93868" lon="1.83916">
        <ele>700.4580078</ele>
        <time>2013-01-25T14:12:43Z</time>
      </trkpt>
      <trkpt lat="42.93873" lon="1.8391">
        <ele>700.9384766</ele>
        <time>2013-01-25T14:12:50Z</time>
      </trkpt>
      <trkpt lat="42.93874" lon="1.83909">
        <ele>701.4191895</ele>
        <time>2013-01-25T14:12:51Z</time>
      </trkpt>
      <trkpt lat="42.93877" lon="1.83903">
        <ele>701.4191895</ele>
        <time>2013-01-25T14:12:56Z</time>
      </trkpt>
      <trkpt lat="42.9388" lon="1.83893">
        <ele>701.8999023</ele>
        <time>2013-01-25T14:13:02Z</time>
      </trkpt>
      <trkpt lat="42.93881" lon="1.83891">
        <ele>701.8999023</ele>
        <time>2013-01-25T14:13:03Z</time>
      </trkpt>
      <trkpt lat="42.93884" lon="1.83888">
        <ele>701.8999023</ele>
        <time>2013-01-25T14:13:05Z</time>
      </trkpt>
      <trkpt lat="42.93887" lon="1.83886">
        <ele>703.8225098</ele>
        <time>2013-01-25T14:13:12Z</time>
      </trkpt>
      <trkpt lat="42.93891" lon="1.83883">
        <ele>704.7836914</ele>
        <time>2013-01-25T14:13:17Z</time>
      </trkpt>
      <trkpt lat="42.93896" lon="1.83879">
        <ele>705.2644043</ele>
        <time>2013-01-25T14:13:21Z</time>
      </trkpt>
      <trkpt lat="42.93897" lon="1.83877">
        <ele>704.7836914</ele>
        <time>2013-01-25T14:13:23Z</time>
      </trkpt>
      <trkpt lat="42.93902" lon="1.83872">
        <ele>706.7062988</ele>
        <time>2013-01-25T14:13:28Z</time>
      </trkpt>
      <trkpt lat="42.93904" lon="1.83862">
        <ele>709.1096191</ele>
        <time>2013-01-25T14:13:32Z</time>
      </trkpt>
      <trkpt lat="42.93913" lon="1.83854">
        <ele>712.954834</ele>
        <time>2013-01-25T14:13:38Z</time>
      </trkpt>
      <trkpt lat="42.93915" lon="1.83849">
        <ele>714.3967285</ele>
        <time>2013-01-25T14:13:41Z</time>
      </trkpt>
      <trkpt lat="42.93916" lon="1.83844">
        <ele>713.9160156</ele>
        <time>2013-01-25T14:13:46Z</time>
      </trkpt>
      <trkpt lat="42.93918" lon="1.83837">
        <ele>713.9160156</ele>
        <time>2013-01-25T14:13:51Z</time>
      </trkpt>
      <trkpt lat="42.93919" lon="1.83833">
        <ele>714.3967285</ele>
        <time>2013-01-25T14:13:54Z</time>
      </trkpt>
      <trkpt lat="42.93921" lon="1.83825">
        <ele>712.4741211</ele>
        <time>2013-01-25T14:13:59Z</time>
      </trkpt>
      <trkpt lat="42.9392" lon="1.83811">
        <ele>712.4741211</ele>
        <time>2013-01-25T14:14:04Z</time>
      </trkpt>
      <trkpt lat="42.93922" lon="1.83798">
        <ele>712.954834</ele>
        <time>2013-01-25T14:14:10Z</time>
      </trkpt>
      <trkpt lat="42.93927" lon="1.83788">
        <ele>713.4355469</ele>
        <time>2013-01-25T14:14:15Z</time>
      </trkpt>
      <trkpt lat="42.9393" lon="1.83782">
        <ele>713.4355469</ele>
        <time>2013-01-25T14:14:18Z</time>
      </trkpt>
      <trkpt lat="42.93931" lon="1.8377">
        <ele>711.9936523</ele>
        <time>2013-01-25T14:14:23Z</time>
      </trkpt>
      <trkpt lat="42.93934" lon="1.8376">
        <ele>711.0322266</ele>
        <time>2013-01-25T14:14:27Z</time>
      </trkpt>
      <trkpt lat="42.93938" lon="1.83757">
        <ele>711.5129395</ele>
        <time>2013-01-25T14:14:30Z</time>
      </trkpt>
      <trkpt lat="42.93944" lon="1.8375">
        <ele>712.4741211</ele>
        <time>2013-01-25T14:14:36Z</time>
      </trkpt>
      <trkpt lat="42.93947" lon="1.83743">
        <ele>712.954834</ele>
        <time>2013-01-25T14:14:39Z</time>
      </trkpt>
      <trkpt lat="42.93952" lon="1.83728">
        <ele>714.3967285</ele>
        <time>2013-01-25T14:14:44Z</time>
      </trkpt>
      <trkpt lat="42.93953" lon="1.83721">
        <ele>714.8774414</ele>
        <time>2013-01-25T14:14:48Z</time>
      </trkpt>
      <trkpt lat="42.93954" lon="1.83715">
        <ele>715.8388672</ele>
        <time>2013-01-25T14:14:51Z</time>
      </trkpt>
      <trkpt lat="42.93957" lon="1.83711">
        <ele>716.3195801</ele>
        <time>2013-01-25T14:14:54Z</time>
      </trkpt>
      <trkpt lat="42.93961" lon="1.83704">
        <ele>717.2810059</ele>
        <time>2013-01-25T14:14:58Z</time>
      </trkpt>
      <trkpt lat="42.93964" lon="1.83696">
        <ele>718.2421875</ele>
        <time>2013-01-25T14:15:02Z</time>
      </trkpt>
      <trkpt lat="42.93969" lon="1.83688">
        <ele>719.2036133</ele>
        <time>2013-01-25T14:15:06Z</time>
      </trkpt>
      <trkpt lat="42.93972" lon="1.83682">
        <ele>721.1262207</ele>
        <time>2013-01-25T14:15:09Z</time>
      </trkpt>
      <trkpt lat="42.93978" lon="1.83673">
        <ele>724.0100098</ele>
        <time>2013-01-25T14:15:14Z</time>
      </trkpt>
      <trkpt lat="42.93981" lon="1.8367">
        <ele>724.9714355</ele>
        <time>2013-01-25T14:15:16Z</time>
      </trkpt>
      <trkpt lat="42.93986" lon="1.83661">
        <ele>725.9326172</ele>
        <time>2013-01-25T14:15:21Z</time>
      </trkpt>
      <trkpt lat="42.93992" lon="1.8365">
        <ele>727.3747559</ele>
        <time>2013-01-25T14:15:27Z</time>
      </trkpt>
      <trkpt lat="42.93994" lon="1.83648">
        <ele>727.8552246</ele>
        <time>2013-01-25T14:15:33Z</time>
      </trkpt>
      <trkpt lat="42.93994" lon="1.83645">
        <ele>727.8552246</ele>
        <time>2013-01-25T14:15:35Z</time>
      </trkpt>
      <trkpt lat="42.93996" lon="1.83632">
        <ele>726.894043</ele>
        <time>2013-01-25T14:15:40Z</time>
      </trkpt>
      <trkpt lat="42.93997" lon="1.83624">
        <ele>725.9326172</ele>
        <time>2013-01-25T14:15:43Z</time>
      </trkpt>
      <trkpt lat="42.94003" lon="1.83617">
        <ele>725.9326172</ele>
        <time>2013-01-25T14:15:49Z</time>
      </trkpt>
      <trkpt lat="42.94006" lon="1.83608">
        <ele>725.9326172</ele>
        <time>2013-01-25T14:15:54Z</time>
      </trkpt>
      <trkpt lat="42.94007" lon="1.83605">
        <ele>726.4133301</ele>
        <time>2013-01-25T14:15:55Z</time>
      </trkpt>
      <trkpt lat="42.9401" lon="1.83597">
        <ele>726.894043</ele>
        <time>2013-01-25T14:15:59Z</time>
      </trkpt>
      <trkpt lat="42.94015" lon="1.83586">
        <ele>728.8166504</ele>
        <time>2013-01-25T14:16:05Z</time>
      </trkpt>
      <trkpt lat="42.94017" lon="1.83582">
        <ele>730.2585449</ele>
        <time>2013-01-25T14:16:08Z</time>
      </trkpt>
      <trkpt lat="42.9402" lon="1.83575">
        <ele>730.2585449</ele>
        <time>2013-01-25T14:16:11Z</time>
      </trkpt>
      <trkpt lat="42.94021" lon="1.83573">
        <ele>730.2585449</ele>
        <time>2013-01-25T14:16:12Z</time>
      </trkpt>
      <trkpt lat="42.94021" lon="1.83567">
        <ele>730.2585449</ele>
        <time>2013-01-25T14:16:14Z</time>
      </trkpt>
      <trkpt lat="42.94027" lon="1.83553">
        <ele>732.1813965</ele>
        <time>2013-01-25T14:16:20Z</time>
      </trkpt>
      <trkpt lat="42.94031" lon="1.83544">
        <ele>732.1813965</ele>
        <time>2013-01-25T14:16:24Z</time>
      </trkpt>
      <trkpt lat="42.94036" lon="1.83535">
        <ele>732.6621094</ele>
        <time>2013-01-25T14:16:29Z</time>
      </trkpt>
      <trkpt lat="42.94041" lon="1.83529">
        <ele>734.1040039</ele>
        <time>2013-01-25T14:16:34Z</time>
      </trkpt>
      <trkpt lat="42.94047" lon="1.83524">
        <ele>736.0266113</ele>
        <time>2013-01-25T14:16:39Z</time>
      </trkpt>
      <trkpt lat="42.94053" lon="1.83515">
        <ele>737.9492188</ele>
        <time>2013-01-25T14:16:47Z</time>
      </trkpt>
      <trkpt lat="42.94055" lon="1.83514">
        <ele>739.3911133</ele>
        <time>2013-01-25T14:16:53Z</time>
      </trkpt>
      <trkpt lat="42.94056" lon="1.83516">
        <ele>739.3911133</ele>
        <time>2013-01-25T14:17:03Z</time>
      </trkpt>
      <trkpt lat="42.94054" lon="1.83513">
        <ele>739.3911133</ele>
        <time>2013-01-25T14:17:06Z</time>
      </trkpt>
      <trkpt lat="42.94054" lon="1.83504">
        <ele>738.9106445</ele>
        <time>2013-01-25T14:17:11Z</time>
      </trkpt>
      <trkpt lat="42.94059" lon="1.83497">
        <ele>740.3525391</ele>
        <time>2013-01-25T14:17:15Z</time>
      </trkpt>
      <trkpt lat="42.94063" lon="1.83491">
        <ele>741.3137207</ele>
        <time>2013-01-25T14:17:19Z</time>
      </trkpt>
      <trkpt lat="42.94067" lon="1.83486">
        <ele>741.7944336</ele>
        <time>2013-01-25T14:17:24Z</time>
      </trkpt>
      <trkpt lat="42.94067" lon="1.83479">
        <ele>742.2751465</ele>
        <time>2013-01-25T14:17:28Z</time>
      </trkpt>
      <trkpt lat="42.9407" lon="1.83467">
        <ele>741.3137207</ele>
        <time>2013-01-25T14:17:34Z</time>
      </trkpt>
      <trkpt lat="42.94071" lon="1.83458">
        <ele>741.7944336</ele>
        <time>2013-01-25T14:17:38Z</time>
      </trkpt>
      <trkpt lat="42.94073" lon="1.83446">
        <ele>741.7944336</ele>
        <time>2013-01-25T14:17:43Z</time>
      </trkpt>
      <trkpt lat="42.94077" lon="1.8343">
        <ele>741.3137207</ele>
        <time>2013-01-25T14:17:49Z</time>
      </trkpt>
      <trkpt lat="42.94079" lon="1.83425">
        <ele>740.3525391</ele>
        <time>2013-01-25T14:17:51Z</time>
      </trkpt>
      <trkpt lat="42.94086" lon="1.83408">
        <ele>738.9106445</ele>
        <time>2013-01-25T14:17:57Z</time>
      </trkpt>
      <trkpt lat="42.94089" lon="1.834">
        <ele>739.3911133</ele>
        <time>2013-01-25T14:18:01Z</time>
      </trkpt>
      <trkpt lat="42.9409" lon="1.83394">
        <ele>738.4299316</ele>
        <time>2013-01-25T14:18:03Z</time>
      </trkpt>
      <trkpt lat="42.94094" lon="1.83384">
        <ele>739.3911133</ele>
        <time>2013-01-25T14:18:07Z</time>
      </trkpt>
      <trkpt lat="42.94099" lon="1.83371">
        <ele>740.3525391</ele>
        <time>2013-01-25T14:18:12Z</time>
      </trkpt>
      <trkpt lat="42.94106" lon="1.83363">
        <ele>740.3525391</ele>
        <time>2013-01-25T14:18:17Z</time>
      </trkpt>
      <trkpt lat="42.94107" lon="1.83362">
        <ele>740.8330078</ele>
        <time>2013-01-25T14:18:18Z</time>
      </trkpt>
      <trkpt lat="42.94109" lon="1.83359">
        <ele>740.8330078</ele>
        <time>2013-01-25T14:18:20Z</time>
      </trkpt>
      <trkpt lat="42.94106" lon="1.83354">
        <ele>740.3525391</ele>
        <time>2013-01-25T14:18:26Z</time>
      </trkpt>
      <trkpt lat="42.94106" lon="1.83351">
        <ele>740.3525391</ele>
        <time>2013-01-25T14:18:28Z</time>
      </trkpt>
      <trkpt lat="42.94104" lon="1.83345">
        <ele>741.3137207</ele>
        <time>2013-01-25T14:18:33Z</time>
      </trkpt>
      <trkpt lat="42.94102" lon="1.83342">
        <ele>741.3137207</ele>
        <time>2013-01-25T14:18:36Z</time>
      </trkpt>
      <trkpt lat="42.94103" lon="1.8333">
        <ele>740.3525391</ele>
        <time>2013-01-25T14:18:41Z</time>
      </trkpt>
      <trkpt lat="42.94104" lon="1.83321">
        <ele>740.8330078</ele>
        <time>2013-01-25T14:18:47Z</time>
      </trkpt>
      <trkpt lat="42.94106" lon="1.83316">
        <ele>743.2363281</ele>
        <time>2013-01-25T14:18:53Z</time>
      </trkpt>
      <trkpt lat="42.94109" lon="1.83315">
        <ele>744.1977539</ele>
        <time>2013-01-25T14:18:58Z</time>
      </trkpt>
      <trkpt lat="42.94111" lon="1.83313">
        <ele>745.1589355</ele>
        <time>2013-01-25T14:19:02Z</time>
      </trkpt>
      <trkpt lat="42.94114" lon="1.83311">
        <ele>745.6396484</ele>
        <time>2013-01-25T14:19:08Z</time>
      </trkpt>
      <trkpt lat="42.94117" lon="1.83308">
        <ele>746.6010742</ele>
        <time>2013-01-25T14:19:14Z</time>
      </trkpt>
      <trkpt lat="42.94119" lon="1.83307">
        <ele>748.0432129</ele>
        <time>2013-01-25T14:19:18Z</time>
      </trkpt>
      <trkpt lat="42.94126" lon="1.83308">
        <ele>749.4851074</ele>
        <time>2013-01-25T14:19:26Z</time>
      </trkpt>
      <trkpt lat="42.9413" lon="1.83308">
        <ele>749.4851074</ele>
        <time>2013-01-25T14:19:31Z</time>
      </trkpt>
      <trkpt lat="42.94134" lon="1.83303">
        <ele>752.8496094</ele>
        <time>2013-01-25T14:19:37Z</time>
      </trkpt>
      <trkpt lat="42.94135" lon="1.833">
        <ele>753.3303223</ele>
        <time>2013-01-25T14:19:38Z</time>
      </trkpt>
      <trkpt lat="42.94141" lon="1.8329">
        <ele>753.8110352</ele>
        <time>2013-01-25T14:19:44Z</time>
      </trkpt>
      <trkpt lat="42.94146" lon="1.83281">
        <ele>756.2141113</ele>
        <time>2013-01-25T14:19:52Z</time>
      </trkpt>
      <trkpt lat="42.94148" lon="1.8327">
        <ele>757.1755371</ele>
        <time>2013-01-25T14:19:57Z</time>
      </trkpt>
      <trkpt lat="42.94149" lon="1.83263">
        <ele>758.1369629</ele>
        <time>2013-01-25T14:19:59Z</time>
      </trkpt>
      <trkpt lat="42.94156" lon="1.83254">
        <ele>757.65625</ele>
        <time>2013-01-25T14:20:04Z</time>
      </trkpt>
      <trkpt lat="42.94161" lon="1.83253">
        <ele>759.0981445</ele>
        <time>2013-01-25T14:20:08Z</time>
      </trkpt>
      <trkpt lat="42.94164" lon="1.83248">
        <ele>758.6174316</ele>
        <time>2013-01-25T14:20:13Z</time>
      </trkpt>
      <trkpt lat="42.94167" lon="1.8324">
        <ele>759.0981445</ele>
        <time>2013-01-25T14:20:21Z</time>
      </trkpt>
      <trkpt lat="42.94168" lon="1.83239">
        <ele>757.1755371</ele>
        <time>2013-01-25T14:20:32Z</time>
      </trkpt>
      <trkpt lat="42.94168" lon="1.83235">
        <ele>756.6948242</ele>
        <time>2013-01-25T14:20:35Z</time>
      </trkpt>
      <trkpt lat="42.94165" lon="1.83229">
        <ele>756.2141113</ele>
        <time>2013-01-25T14:20:38Z</time>
      </trkpt>
      <trkpt lat="42.94163" lon="1.83218">
        <ele>755.2529297</ele>
        <time>2013-01-25T14:20:44Z</time>
      </trkpt>
      <trkpt lat="42.94167" lon="1.83215">
        <ele>756.2141113</ele>
        <time>2013-01-25T14:20:48Z</time>
      </trkpt>
      <trkpt lat="42.9417" lon="1.83212">
        <ele>757.1755371</ele>
        <time>2013-01-25T14:20:53Z</time>
      </trkpt>
      <trkpt lat="42.94176" lon="1.8321">
        <ele>759.0981445</ele>
        <time>2013-01-25T14:20:57Z</time>
      </trkpt>
      <trkpt lat="42.9418" lon="1.83204">
        <ele>762.4626465</ele>
        <time>2013-01-25T14:21:01Z</time>
      </trkpt>
      <trkpt lat="42.94183" lon="1.83196">
        <ele>764.8662109</ele>
        <time>2013-01-25T14:21:06Z</time>
      </trkpt>
      <trkpt lat="42.94186" lon="1.83188">
        <ele>766.7888184</ele>
        <time>2013-01-25T14:21:11Z</time>
      </trkpt>
      <trkpt lat="42.94186" lon="1.83186">
        <ele>766.3081055</ele>
        <time>2013-01-25T14:21:12Z</time>
      </trkpt>
      <trkpt lat="42.94188" lon="1.83175">
        <ele>768.7114258</ele>
        <time>2013-01-25T14:21:19Z</time>
      </trkpt>
      <trkpt lat="42.9419" lon="1.83171">
        <ele>768.2307129</ele>
        <time>2013-01-25T14:21:24Z</time>
      </trkpt>
      <trkpt lat="42.94195" lon="1.83162">
        <ele>767.75</ele>
        <time>2013-01-25T14:21:29Z</time>
      </trkpt>
      <trkpt lat="42.94199" lon="1.83153">
        <ele>768.2307129</ele>
        <time>2013-01-25T14:21:33Z</time>
      </trkpt>
      <trkpt lat="42.94202" lon="1.83145">
        <ele>768.2307129</ele>
        <time>2013-01-25T14:21:37Z</time>
      </trkpt>
      <trkpt lat="42.94204" lon="1.83142">
        <ele>768.7114258</ele>
        <time>2013-01-25T14:21:39Z</time>
      </trkpt>
      <trkpt lat="42.94208" lon="1.83134">
        <ele>769.1921387</ele>
        <time>2013-01-25T14:21:44Z</time>
      </trkpt>
      <trkpt lat="42.94212" lon="1.83127">
        <ele>770.1533203</ele>
        <time>2013-01-25T14:21:48Z</time>
      </trkpt>
      <trkpt lat="42.94214" lon="1.83124">
        <ele>770.6340332</ele>
        <time>2013-01-25T14:21:50Z</time>
      </trkpt>
      <trkpt lat="42.94219" lon="1.83111">
        <ele>771.1147461</ele>
        <time>2013-01-25T14:21:56Z</time>
      </trkpt>
      <trkpt lat="42.9422" lon="1.83109">
        <ele>771.1147461</ele>
        <time>2013-01-25T14:21:57Z</time>
      </trkpt>
      <trkpt lat="42.94225" lon="1.83099">
        <ele>771.5952148</ele>
        <time>2013-01-25T14:22:03Z</time>
      </trkpt>
      <trkpt lat="42.94226" lon="1.83096">
        <ele>771.1147461</ele>
        <time>2013-01-25T14:22:05Z</time>
      </trkpt>
      <trkpt lat="42.94233" lon="1.83086">
        <ele>773.0373535</ele>
        <time>2013-01-25T14:22:11Z</time>
      </trkpt>
      <trkpt lat="42.94234" lon="1.83084">
        <ele>773.9985352</ele>
        <time>2013-01-25T14:22:13Z</time>
      </trkpt>
      <trkpt lat="42.94241" lon="1.83073">
        <ele>777.84375</ele>
        <time>2013-01-25T14:22:23Z</time>
      </trkpt>
      <trkpt lat="42.94244" lon="1.83069">
        <ele>776.8825684</ele>
        <time>2013-01-25T14:22:26Z</time>
      </trkpt>
      <trkpt lat="42.94247" lon="1.83059">
        <ele>779.2856445</ele>
        <time>2013-01-25T14:22:33Z</time>
      </trkpt>
      <trkpt lat="42.94253" lon="1.83051">
        <ele>780.7280273</ele>
        <time>2013-01-25T14:22:39Z</time>
      </trkpt>
      <trkpt lat="42.94254" lon="1.83045">
        <ele>781.2087402</ele>
        <time>2013-01-25T14:22:41Z</time>
      </trkpt>
      <trkpt lat="42.94258" lon="1.83035">
        <ele>782.6506348</ele>
        <time>2013-01-25T14:22:46Z</time>
      </trkpt>
      <trkpt lat="42.94261" lon="1.83021">
        <ele>784.0925293</ele>
        <time>2013-01-25T14:22:51Z</time>
      </trkpt>
      <trkpt lat="42.94263" lon="1.83015">
        <ele>783.6118164</ele>
        <time>2013-01-25T14:22:53Z</time>
      </trkpt>
      <trkpt lat="42.94267" lon="1.83009">
        <ele>784.0925293</ele>
        <time>2013-01-25T14:22:57Z</time>
      </trkpt>
      <trkpt lat="42.9427" lon="1.83005">
        <ele>786.0151367</ele>
        <time>2013-01-25T14:23:00Z</time>
      </trkpt>
      <trkpt lat="42.94273" lon="1.82996">
        <ele>787.9377441</ele>
        <time>2013-01-25T14:23:04Z</time>
      </trkpt>
      <trkpt lat="42.94276" lon="1.82989">
        <ele>789.3796387</ele>
        <time>2013-01-25T14:23:08Z</time>
      </trkpt>
      <trkpt lat="42.94279" lon="1.82976">
        <ele>790.3410645</ele>
        <time>2013-01-25T14:23:14Z</time>
      </trkpt>
      <trkpt lat="42.94284" lon="1.82962">
        <ele>790.3410645</ele>
        <time>2013-01-25T14:23:21Z</time>
      </trkpt>
      <trkpt lat="42.94286" lon="1.82954">
        <ele>790.3410645</ele>
        <time>2013-01-25T14:23:24Z</time>
      </trkpt>
      <trkpt lat="42.94289" lon="1.82941">
        <ele>791.3022461</ele>
        <time>2013-01-25T14:23:30Z</time>
      </trkpt>
      <trkpt lat="42.94291" lon="1.82929">
        <ele>792.2636719</ele>
        <time>2013-01-25T14:23:35Z</time>
      </trkpt>
      <trkpt lat="42.94293" lon="1.8292">
        <ele>792.7443848</ele>
        <time>2013-01-25T14:23:39Z</time>
      </trkpt>
      <trkpt lat="42.94295" lon="1.82915">
        <ele>792.2636719</ele>
        <time>2013-01-25T14:23:41Z</time>
      </trkpt>
      <trkpt lat="42.94298" lon="1.82904">
        <ele>793.2248535</ele>
        <time>2013-01-25T14:23:46Z</time>
      </trkpt>
      <trkpt lat="42.943" lon="1.82891">
        <ele>795.6281738</ele>
        <time>2013-01-25T14:23:51Z</time>
      </trkpt>
      <trkpt lat="42.94301" lon="1.82878">
        <ele>797.5510254</ele>
        <time>2013-01-25T14:23:56Z</time>
      </trkpt>
      <trkpt lat="42.94303" lon="1.82871">
        <ele>798.512207</ele>
        <time>2013-01-25T14:24:00Z</time>
      </trkpt>
      <trkpt lat="42.94306" lon="1.8286">
        <ele>799.4736328</ele>
        <time>2013-01-25T14:24:04Z</time>
      </trkpt>
      <trkpt lat="42.94308" lon="1.82848">
        <ele>798.9929199</ele>
        <time>2013-01-25T14:24:08Z</time>
      </trkpt>
      <trkpt lat="42.94312" lon="1.82835">
        <ele>799.9543457</ele>
        <time>2013-01-25T14:24:13Z</time>
      </trkpt>
      <trkpt lat="42.94314" lon="1.82828">
        <ele>800.4350586</ele>
        <time>2013-01-25T14:24:16Z</time>
      </trkpt>
      <trkpt lat="42.94315" lon="1.82826">
        <ele>800.4350586</ele>
        <time>2013-01-25T14:24:22Z</time>
      </trkpt>
      <trkpt lat="42.94321" lon="1.82821">
        <ele>800.4350586</ele>
        <time>2013-01-25T14:24:27Z</time>
      </trkpt>
      <trkpt lat="42.94328" lon="1.82809">
        <ele>798.0317383</ele>
        <time>2013-01-25T14:24:34Z</time>
      </trkpt>
      <trkpt lat="42.9433" lon="1.82802">
        <ele>797.5510254</ele>
        <time>2013-01-25T14:24:38Z</time>
      </trkpt>
      <trkpt lat="42.9433" lon="1.828">
        <ele>797.5510254</ele>
        <time>2013-01-25T14:24:39Z</time>
      </trkpt>
      <trkpt lat="42.9433" lon="1.82795">
        <ele>799.9543457</ele>
        <time>2013-01-25T14:24:45Z</time>
      </trkpt>
      <trkpt lat="42.94329" lon="1.82789">
        <ele>800.9155273</ele>
        <time>2013-01-25T14:24:50Z</time>
      </trkpt>
      <trkpt lat="42.9433" lon="1.82781">
        <ele>800.4350586</ele>
        <time>2013-01-25T14:24:56Z</time>
      </trkpt>
      <trkpt lat="42.9433" lon="1.82776">
        <ele>800.4350586</ele>
        <time>2013-01-25T14:25:01Z</time>
      </trkpt>
      <trkpt lat="42.94331" lon="1.82764">
        <ele>800.9155273</ele>
        <time>2013-01-25T14:25:05Z</time>
      </trkpt>
      <trkpt lat="42.94332" lon="1.82758">
        <ele>800.4350586</ele>
        <time>2013-01-25T14:25:07Z</time>
      </trkpt>
      <trkpt lat="42.94336" lon="1.82745">
        <ele>805.2414551</ele>
        <time>2013-01-25T14:25:12Z</time>
      </trkpt>
      <trkpt lat="42.9434" lon="1.82735">
        <ele>807.1640625</ele>
        <time>2013-01-25T14:25:17Z</time>
      </trkpt>
      <trkpt lat="42.94345" lon="1.82723">
        <ele>809.5673828</ele>
        <time>2013-01-25T14:25:23Z</time>
      </trkpt>
      <trkpt lat="42.94347" lon="1.82714">
        <ele>811.4899902</ele>
        <time>2013-01-25T14:25:27Z</time>
      </trkpt>
      <trkpt lat="42.94349" lon="1.82707">
        <ele>811.0092773</ele>
        <time>2013-01-25T14:25:31Z</time>
      </trkpt>
      <trkpt lat="42.94351" lon="1.82696">
        <ele>809.5673828</ele>
        <time>2013-01-25T14:25:36Z</time>
      </trkpt>
      <trkpt lat="42.94352" lon="1.82691">
        <ele>809.0866699</ele>
        <time>2013-01-25T14:25:39Z</time>
      </trkpt>
      <trkpt lat="42.94353" lon="1.8269">
        <ele>806.6833496</ele>
        <time>2013-01-25T14:25:47Z</time>
      </trkpt>
      <trkpt lat="42.94353" lon="1.82688">
        <ele>806.6833496</ele>
        <time>2013-01-25T14:25:48Z</time>
      </trkpt>
      <trkpt lat="42.94355" lon="1.82682">
        <ele>806.6833496</ele>
        <time>2013-01-25T14:25:53Z</time>
      </trkpt>
      <trkpt lat="42.94355" lon="1.82672">
        <ele>806.2026367</ele>
        <time>2013-01-25T14:25:57Z</time>
      </trkpt>
      <trkpt lat="42.94357" lon="1.82655">
        <ele>805.722168</ele>
        <time>2013-01-25T14:26:03Z</time>
      </trkpt>
      <trkpt lat="42.94357" lon="1.82644">
        <ele>805.2414551</ele>
        <time>2013-01-25T14:26:07Z</time>
      </trkpt>
      <trkpt lat="42.94363" lon="1.82628">
        <ele>803.7995605</ele>
        <time>2013-01-25T14:26:13Z</time>
      </trkpt>
      <trkpt lat="42.94368" lon="1.82614">
        <ele>803.7995605</ele>
        <time>2013-01-25T14:26:18Z</time>
      </trkpt>
      <trkpt lat="42.94371" lon="1.82602">
        <ele>803.3188477</ele>
        <time>2013-01-25T14:26:23Z</time>
      </trkpt>
      <trkpt lat="42.94376" lon="1.82586">
        <ele>801.3962402</ele>
        <time>2013-01-25T14:26:28Z</time>
      </trkpt>
      <trkpt lat="42.94382" lon="1.82572">
        <ele>801.8769531</ele>
        <time>2013-01-25T14:26:34Z</time>
      </trkpt>
      <trkpt lat="42.94384" lon="1.82562">
        <ele>803.3188477</ele>
        <time>2013-01-25T14:26:38Z</time>
      </trkpt>
      <trkpt lat="42.9439" lon="1.82551">
        <ele>804.2802734</ele>
        <time>2013-01-25T14:26:43Z</time>
      </trkpt>
      <trkpt lat="42.94394" lon="1.8254">
        <ele>805.722168</ele>
        <time>2013-01-25T14:26:49Z</time>
      </trkpt>
      <trkpt lat="42.94396" lon="1.82533">
        <ele>807.1640625</ele>
        <time>2013-01-25T14:26:53Z</time>
      </trkpt>
      <trkpt lat="42.94399" lon="1.82528">
        <ele>808.1254883</ele>
        <time>2013-01-25T14:26:57Z</time>
      </trkpt>
      <trkpt lat="42.94404" lon="1.82519">
        <ele>809.5673828</ele>
        <time>2013-01-25T14:27:02Z</time>
      </trkpt>
      <trkpt lat="42.94405" lon="1.82516">
        <ele>809.0866699</ele>
        <time>2013-01-25T14:27:03Z</time>
      </trkpt>
      <trkpt lat="42.94409" lon="1.82506">
        <ele>809.5673828</ele>
        <time>2013-01-25T14:27:09Z</time>
      </trkpt>
      <trkpt lat="42.94411" lon="1.82501">
        <ele>810.0478516</ele>
        <time>2013-01-25T14:27:13Z</time>
      </trkpt>
      <trkpt lat="42.94412" lon="1.825">
        <ele>810.5285645</ele>
        <time>2013-01-25T14:27:17Z</time>
      </trkpt>
      <trkpt lat="42.94413" lon="1.82498">
        <ele>810.5285645</ele>
        <time>2013-01-25T14:27:26Z</time>
      </trkpt>
      <trkpt lat="42.94416" lon="1.82494">
        <ele>809.0866699</ele>
        <time>2013-01-25T14:27:29Z</time>
      </trkpt>
      <trkpt lat="42.9442" lon="1.82488">
        <ele>808.1254883</ele>
        <time>2013-01-25T14:27:34Z</time>
      </trkpt>
      <trkpt lat="42.94424" lon="1.82483">
        <ele>807.1640625</ele>
        <time>2013-01-25T14:27:38Z</time>
      </trkpt>
      <trkpt lat="42.94426" lon="1.82474">
        <ele>806.6833496</ele>
        <time>2013-01-25T14:27:43Z</time>
      </trkpt>
      <trkpt lat="42.94431" lon="1.82467">
        <ele>807.6447754</ele>
        <time>2013-01-25T14:27:48Z</time>
      </trkpt>
      <trkpt lat="42.94437" lon="1.8246">
        <ele>809.5673828</ele>
        <time>2013-01-25T14:27:54Z</time>
      </trkpt>
      <trkpt lat="42.9444" lon="1.82453">
        <ele>810.5285645</ele>
        <time>2013-01-25T14:27:57Z</time>
      </trkpt>
      <trkpt lat="42.94446" lon="1.82443">
        <ele>812.451416</ele>
        <time>2013-01-25T14:28:03Z</time>
      </trkpt>
      <trkpt lat="42.94451" lon="1.82441">
        <ele>814.3740234</ele>
        <time>2013-01-25T14:28:06Z</time>
      </trkpt>
      <trkpt lat="42.94452" lon="1.82439">
        <ele>814.8547363</ele>
        <time>2013-01-25T14:28:07Z</time>
      </trkpt>
      <trkpt lat="42.94454" lon="1.82432">
        <ele>814.8547363</ele>
        <time>2013-01-25T14:28:10Z</time>
      </trkpt>
      <trkpt lat="42.94458" lon="1.82416">
        <ele>814.8547363</ele>
        <time>2013-01-25T14:28:16Z</time>
      </trkpt>
      <trkpt lat="42.94461" lon="1.82406">
        <ele>814.8547363</ele>
        <time>2013-01-25T14:28:20Z</time>
      </trkpt>
      <trkpt lat="42.94467" lon="1.82399">
        <ele>814.8547363</ele>
        <time>2013-01-25T14:28:24Z</time>
      </trkpt>
      <trkpt lat="42.94472" lon="1.82389">
        <ele>813.4128418</ele>
        <time>2013-01-25T14:28:29Z</time>
      </trkpt>
      <trkpt lat="42.94475" lon="1.82385">
        <ele>812.9321289</ele>
        <time>2013-01-25T14:28:32Z</time>
      </trkpt>
      <trkpt lat="42.94476" lon="1.82376">
        <ele>812.451416</ele>
        <time>2013-01-25T14:28:35Z</time>
      </trkpt>
      <trkpt lat="42.94477" lon="1.82369">
        <ele>812.451416</ele>
        <time>2013-01-25T14:28:37Z</time>
      </trkpt>
      <trkpt lat="42.94483" lon="1.82366">
        <ele>813.4128418</ele>
        <time>2013-01-25T14:28:42Z</time>
      </trkpt>
      <trkpt lat="42.94485" lon="1.82365">
        <ele>813.8933105</ele>
        <time>2013-01-25T14:28:43Z</time>
      </trkpt>
      <trkpt lat="42.94488" lon="1.82364">
        <ele>814.3740234</ele>
        <time>2013-01-25T14:28:45Z</time>
      </trkpt>
      <trkpt lat="42.94496" lon="1.82357">
        <ele>816.2966309</ele>
        <time>2013-01-25T14:28:50Z</time>
      </trkpt>
      <trkpt lat="42.94499" lon="1.8235">
        <ele>819.1806641</ele>
        <time>2013-01-25T14:28:53Z</time>
      </trkpt>
      <trkpt lat="42.94504" lon="1.82333">
        <ele>820.1418457</ele>
        <time>2013-01-25T14:28:58Z</time>
      </trkpt>
      <trkpt lat="42.94511" lon="1.82321">
        <ele>820.6225586</ele>
        <time>2013-01-25T14:29:03Z</time>
      </trkpt>
      <trkpt lat="42.94512" lon="1.82319">
        <ele>820.1418457</ele>
        <time>2013-01-25T14:29:04Z</time>
      </trkpt>
      <trkpt lat="42.9452" lon="1.82312">
        <ele>818.2192383</ele>
        <time>2013-01-25T14:29:10Z</time>
      </trkpt>
      <trkpt lat="42.94529" lon="1.82303">
        <ele>815.3354492</ele>
        <time>2013-01-25T14:29:16Z</time>
      </trkpt>
      <trkpt lat="42.94531" lon="1.823">
        <ele>813.8933105</ele>
        <time>2013-01-25T14:29:18Z</time>
      </trkpt>
      <trkpt lat="42.94539" lon="1.8229">
        <ele>813.8933105</ele>
        <time>2013-01-25T14:29:23Z</time>
      </trkpt>
      <trkpt lat="42.94545" lon="1.82281">
        <ele>813.4128418</ele>
        <time>2013-01-25T14:29:27Z</time>
      </trkpt>
      <trkpt lat="42.94551" lon="1.82273">
        <ele>812.9321289</ele>
        <time>2013-01-25T14:29:31Z</time>
      </trkpt>
      <trkpt lat="42.94558" lon="1.82263">
        <ele>812.451416</ele>
        <time>2013-01-25T14:29:36Z</time>
      </trkpt>
      <trkpt lat="42.9456" lon="1.82259">
        <ele>812.9321289</ele>
        <time>2013-01-25T14:29:38Z</time>
      </trkpt>
      <trkpt lat="42.94564" lon="1.82248">
        <ele>812.451416</ele>
        <time>2013-01-25T14:29:44Z</time>
      </trkpt>
      <trkpt lat="42.94566" lon="1.82239">
        <ele>816.2966309</ele>
        <time>2013-01-25T14:29:51Z</time>
      </trkpt>
      <trkpt lat="42.94569" lon="1.82231">
        <ele>816.2966309</ele>
        <time>2013-01-25T14:29:54Z</time>
      </trkpt>
      <trkpt lat="42.94575" lon="1.82221">
        <ele>817.7385254</ele>
        <time>2013-01-25T14:29:58Z</time>
      </trkpt>
      <trkpt lat="42.9458" lon="1.82203">
        <ele>815.8161621</ele>
        <time>2013-01-25T14:30:04Z</time>
      </trkpt>
      <trkpt lat="42.94582" lon="1.82192">
        <ele>815.8161621</ele>
        <time>2013-01-25T14:30:08Z</time>
      </trkpt>
      <trkpt lat="42.94583" lon="1.82184">
        <ele>815.8161621</ele>
        <time>2013-01-25T14:30:10Z</time>
      </trkpt>
      <trkpt lat="42.9459" lon="1.82174">
        <ele>814.3740234</ele>
        <time>2013-01-25T14:30:14Z</time>
      </trkpt>
      <trkpt lat="42.94593" lon="1.82172">
        <ele>815.3354492</ele>
        <time>2013-01-25T14:30:16Z</time>
      </trkpt>
      <trkpt lat="42.94596" lon="1.82168">
        <ele>814.3740234</ele>
        <time>2013-01-25T14:30:18Z</time>
      </trkpt>
      <trkpt lat="42.94604" lon="1.82157">
        <ele>812.451416</ele>
        <time>2013-01-25T14:30:23Z</time>
      </trkpt>
      <trkpt lat="42.94605" lon="1.82153">
        <ele>812.9321289</ele>
        <time>2013-01-25T14:30:24Z</time>
      </trkpt>
      <trkpt lat="42.9461" lon="1.82145">
        <ele>812.451416</ele>
        <time>2013-01-25T14:30:27Z</time>
      </trkpt>
      <trkpt lat="42.94619" lon="1.82138">
        <ele>810.0478516</ele>
        <time>2013-01-25T14:30:32Z</time>
      </trkpt>
      <trkpt lat="42.94621" lon="1.82136">
        <ele>810.0478516</ele>
        <time>2013-01-25T14:30:33Z</time>
      </trkpt>
      <trkpt lat="42.94628" lon="1.82127">
        <ele>810.5285645</ele>
        <time>2013-01-25T14:30:38Z</time>
      </trkpt>
      <trkpt lat="42.94634" lon="1.82117">
        <ele>810.0478516</ele>
        <time>2013-01-25T14:30:42Z</time>
      </trkpt>
      <trkpt lat="42.94639" lon="1.82105">
        <ele>810.5285645</ele>
        <time>2013-01-25T14:30:47Z</time>
      </trkpt>
      <trkpt lat="42.94644" lon="1.82096">
        <ele>810.5285645</ele>
        <time>2013-01-25T14:30:51Z</time>
      </trkpt>
      <trkpt lat="42.94645" lon="1.82094">
        <ele>810.0478516</ele>
        <time>2013-01-25T14:30:52Z</time>
      </trkpt>
      <trkpt lat="42.94647" lon="1.82091">
        <ele>810.0478516</ele>
        <time>2013-01-25T14:30:55Z</time>
      </trkpt>
      <trkpt lat="42.94649" lon="1.8209">
        <ele>811.0092773</ele>
        <time>2013-01-25T14:31:01Z</time>
      </trkpt>
      <trkpt lat="42.94651" lon="1.82088">
        <ele>811.4899902</ele>
        <time>2013-01-25T14:31:07Z</time>
      </trkpt>
      <trkpt lat="42.94652" lon="1.82086">
        <ele>811.0092773</ele>
        <time>2013-01-25T14:31:09Z</time>
      </trkpt>
      <trkpt lat="42.94657" lon="1.82075">
        <ele>811.9707031</ele>
        <time>2013-01-25T14:31:14Z</time>
      </trkpt>
      <trkpt lat="42.94662" lon="1.82068">
        <ele>812.451416</ele>
        <time>2013-01-25T14:31:18Z</time>
      </trkpt>
      <trkpt lat="42.94667" lon="1.82059">
        <ele>813.4128418</ele>
        <time>2013-01-25T14:31:23Z</time>
      </trkpt>
      <trkpt lat="42.94669" lon="1.82053">
        <ele>812.451416</ele>
        <time>2013-01-25T14:31:26Z</time>
      </trkpt>
      <trkpt lat="42.94674" lon="1.82046">
        <ele>812.9321289</ele>
        <time>2013-01-25T14:31:30Z</time>
      </trkpt>
      <trkpt lat="42.94679" lon="1.8204">
        <ele>813.8933105</ele>
        <time>2013-01-25T14:31:34Z</time>
      </trkpt>
      <trkpt lat="42.94685" lon="1.82033">
        <ele>813.4128418</ele>
        <time>2013-01-25T14:31:38Z</time>
      </trkpt>
      <trkpt lat="42.9469" lon="1.82024">
        <ele>813.4128418</ele>
        <time>2013-01-25T14:31:42Z</time>
      </trkpt>
      <trkpt lat="42.94693" lon="1.82019">
        <ele>811.0092773</ele>
        <time>2013-01-25T14:31:48Z</time>
      </trkpt>
      <trkpt lat="42.94697" lon="1.82017">
        <ele>810.5285645</ele>
        <time>2013-01-25T14:31:52Z</time>
      </trkpt>
      <trkpt lat="42.94704" lon="1.82013">
        <ele>812.451416</ele>
        <time>2013-01-25T14:31:59Z</time>
      </trkpt>
      <trkpt lat="42.94707" lon="1.82008">
        <ele>812.451416</ele>
        <time>2013-01-25T14:32:03Z</time>
      </trkpt>
      <trkpt lat="42.9471" lon="1.82002">
        <ele>814.8547363</ele>
        <time>2013-01-25T14:32:07Z</time>
      </trkpt>
      <trkpt lat="42.94714" lon="1.81996">
        <ele>814.8547363</ele>
        <time>2013-01-25T14:32:12Z</time>
      </trkpt>
      <trkpt lat="42.9472" lon="1.81987">
        <ele>815.8161621</ele>
        <time>2013-01-25T14:32:19Z</time>
      </trkpt>
      <trkpt lat="42.94721" lon="1.81986">
        <ele>816.2966309</ele>
        <time>2013-01-25T14:32:20Z</time>
      </trkpt>
      <trkpt lat="42.94727" lon="1.81975">
        <ele>817.7385254</ele>
        <time>2013-01-25T14:32:26Z</time>
      </trkpt>
      <trkpt lat="42.94732" lon="1.81967">
        <ele>816.7773438</ele>
        <time>2013-01-25T14:32:30Z</time>
      </trkpt>
      <trkpt lat="42.94739" lon="1.81956">
        <ele>818.2192383</ele>
        <time>2013-01-25T14:32:35Z</time>
      </trkpt>
      <trkpt lat="42.94745" lon="1.81944">
        <ele>816.2966309</ele>
        <time>2013-01-25T14:32:40Z</time>
      </trkpt>
      <trkpt lat="42.94751" lon="1.81931">
        <ele>812.451416</ele>
        <time>2013-01-25T14:32:45Z</time>
      </trkpt>
      <trkpt lat="42.9476" lon="1.81918">
        <ele>815.3354492</ele>
        <time>2013-01-25T14:32:51Z</time>
      </trkpt>
      <trkpt lat="42.94767" lon="1.81911">
        <ele>815.8161621</ele>
        <time>2013-01-25T14:32:55Z</time>
      </trkpt>
      <trkpt lat="42.94774" lon="1.81898">
        <ele>813.8933105</ele>
        <time>2013-01-25T14:33:00Z</time>
      </trkpt>
      <trkpt lat="42.94777" lon="1.81894">
        <ele>814.3740234</ele>
        <time>2013-01-25T14:33:02Z</time>
      </trkpt>
      <trkpt lat="42.94788" lon="1.81884">
        <ele>811.0092773</ele>
        <time>2013-01-25T14:33:08Z</time>
      </trkpt>
      <trkpt lat="42.94792" lon="1.81879">
        <ele>811.9707031</ele>
        <time>2013-01-25T14:33:12Z</time>
      </trkpt>
      <trkpt lat="42.94797" lon="1.81871">
        <ele>812.451416</ele>
        <time>2013-01-25T14:33:17Z</time>
      </trkpt>
      <trkpt lat="42.94801" lon="1.81862">
        <ele>811.0092773</ele>
        <time>2013-01-25T14:33:22Z</time>
      </trkpt>
      <trkpt lat="42.94803" lon="1.81859">
        <ele>809.5673828</ele>
        <time>2013-01-25T14:33:24Z</time>
      </trkpt>
      <trkpt lat="42.94807" lon="1.81848">
        <ele>803.3188477</ele>
        <time>2013-01-25T14:33:30Z</time>
      </trkpt>
      <trkpt lat="42.94808" lon="1.81841">
        <ele>800.9155273</ele>
        <time>2013-01-25T14:33:32Z</time>
      </trkpt>
      <trkpt lat="42.94814" lon="1.81836">
        <ele>797.5510254</ele>
        <time>2013-01-25T14:33:36Z</time>
      </trkpt>
      <trkpt lat="42.94818" lon="1.81834">
        <ele>798.0317383</ele>
        <time>2013-01-25T14:33:38Z</time>
      </trkpt>
      <trkpt lat="42.94821" lon="1.81828">
        <ele>804.2802734</ele>
        <time>2013-01-25T14:33:46Z</time>
      </trkpt>
      <trkpt lat="42.94827" lon="1.81824">
        <ele>806.6833496</ele>
        <time>2013-01-25T14:33:50Z</time>
      </trkpt>
      <trkpt lat="42.94831" lon="1.81822">
        <ele>810.0478516</ele>
        <time>2013-01-25T14:33:53Z</time>
      </trkpt>
      <trkpt lat="42.94832" lon="1.81822">
        <ele>814.8547363</ele>
        <time>2013-01-25T14:33:55Z</time>
      </trkpt>
      <trkpt lat="42.94838" lon="1.81815">
        <ele>814.3740234</ele>
        <time>2013-01-25T14:34:01Z</time>
      </trkpt>
      <trkpt lat="42.94845" lon="1.81812">
        <ele>814.8547363</ele>
        <time>2013-01-25T14:34:07Z</time>
      </trkpt>
      <trkpt lat="42.94851" lon="1.81808">
        <ele>814.3740234</ele>
        <time>2013-01-25T14:34:11Z</time>
      </trkpt>
      <trkpt lat="42.94855" lon="1.81803">
        <ele>812.451416</ele>
        <time>2013-01-25T14:34:15Z</time>
      </trkpt>
      <trkpt lat="42.94858" lon="1.81801">
        <ele>811.9707031</ele>
        <time>2013-01-25T14:34:18Z</time>
      </trkpt>
      <trkpt lat="42.94861" lon="1.81799">
        <ele>812.451416</ele>
        <time>2013-01-25T14:34:27Z</time>
      </trkpt>
      <trkpt lat="42.94867" lon="1.81799">
        <ele>813.8933105</ele>
        <time>2013-01-25T14:34:39Z</time>
      </trkpt>
      <trkpt lat="42.94873" lon="1.81794">
        <ele>811.4899902</ele>
        <time>2013-01-25T14:34:43Z</time>
      </trkpt>
      <trkpt lat="42.9488" lon="1.81792">
        <ele>808.1254883</ele>
        <time>2013-01-25T14:34:49Z</time>
      </trkpt>
      <trkpt lat="42.94882" lon="1.81792">
        <ele>807.1640625</ele>
        <time>2013-01-25T14:34:51Z</time>
      </trkpt>
      <trkpt lat="42.94884" lon="1.8179">
        <ele>805.2414551</ele>
        <time>2013-01-25T14:34:54Z</time>
      </trkpt>
      <trkpt lat="42.94886" lon="1.81787">
        <ele>804.2802734</ele>
        <time>2013-01-25T14:34:56Z</time>
      </trkpt>
      <trkpt lat="42.94898" lon="1.81781">
        <ele>800.4350586</ele>
        <time>2013-01-25T14:35:03Z</time>
      </trkpt>
      <trkpt lat="42.94905" lon="1.81773">
        <ele>795.6281738</ele>
        <time>2013-01-25T14:35:08Z</time>
      </trkpt>
      <trkpt lat="42.94908" lon="1.8177">
        <ele>794.1862793</ele>
        <time>2013-01-25T14:35:10Z</time>
      </trkpt>
      <trkpt lat="42.94916" lon="1.81767">
        <ele>788.418457</ele>
        <time>2013-01-25T14:35:14Z</time>
      </trkpt>
      <trkpt lat="42.94925" lon="1.81763">
        <ele>781.689209</ele>
        <time>2013-01-25T14:35:20Z</time>
      </trkpt>
      <trkpt lat="42.94926" lon="1.81763">
        <ele>780.7280273</ele>
        <time>2013-01-25T14:35:21Z</time>
      </trkpt>
      <trkpt lat="42.94932" lon="1.81763">
        <ele>783.1311035</ele>
        <time>2013-01-25T14:35:25Z</time>
      </trkpt>
      <trkpt lat="42.9494" lon="1.81771">
        <ele>781.2087402</ele>
        <time>2013-01-25T14:35:30Z</time>
      </trkpt>
      <trkpt lat="42.94941" lon="1.81773">
        <ele>781.689209</ele>
        <time>2013-01-25T14:35:31Z</time>
      </trkpt>
      <trkpt lat="42.9495" lon="1.81781">
        <ele>779.7663574</ele>
        <time>2013-01-25T14:35:35Z</time>
      </trkpt>
      <trkpt lat="42.9496" lon="1.81794">
        <ele>775.4404297</ele>
        <time>2013-01-25T14:35:41Z</time>
      </trkpt>
      <trkpt lat="42.94973" lon="1.81803">
        <ele>772.5566406</ele>
        <time>2013-01-25T14:35:47Z</time>
      </trkpt>
      <trkpt lat="42.94984" lon="1.81812">
        <ele>770.1533203</ele>
        <time>2013-01-25T14:35:53Z</time>
      </trkpt>
      <trkpt lat="42.94997" lon="1.81821">
        <ele>769.6728516</ele>
        <time>2013-01-25T14:35:59Z</time>
      </trkpt>
      <trkpt lat="42.95011" lon="1.81829">
        <ele>769.1921387</ele>
        <time>2013-01-25T14:36:05Z</time>
      </trkpt>
      <trkpt lat="42.95023" lon="1.8184">
        <ele>769.1921387</ele>
        <time>2013-01-25T14:36:11Z</time>
      </trkpt>
      <trkpt lat="42.95037" lon="1.81852">
        <ele>768.2307129</ele>
        <time>2013-01-25T14:36:17Z</time>
      </trkpt>
      <trkpt lat="42.95043" lon="1.81858">
        <ele>767.75</ele>
        <time>2013-01-25T14:36:20Z</time>
      </trkpt>
      <trkpt lat="42.95049" lon="1.8187">
        <ele>767.75</ele>
        <time>2013-01-25T14:36:25Z</time>
      </trkpt>
      <trkpt lat="42.95052" lon="1.81875">
        <ele>769.1921387</ele>
        <time>2013-01-25T14:36:30Z</time>
      </trkpt>
      <trkpt lat="42.95056" lon="1.81876">
        <ele>777.3632813</ele>
        <time>2013-01-25T14:36:46Z</time>
      </trkpt>
      <trkpt lat="42.95064" lon="1.81885">
        <ele>777.84375</ele>
        <time>2013-01-25T14:36:51Z</time>
      </trkpt>
      <trkpt lat="42.95065" lon="1.81886">
        <ele>777.3632813</ele>
        <time>2013-01-25T14:36:52Z</time>
      </trkpt>
      <trkpt lat="42.95069" lon="1.81889">
        <ele>776.4018555</ele>
        <time>2013-01-25T14:36:54Z</time>
      </trkpt>
      <trkpt lat="42.95078" lon="1.81894">
        <ele>775.4404297</ele>
        <time>2013-01-25T14:36:59Z</time>
      </trkpt>
      <trkpt lat="42.95095" lon="1.81902">
        <ele>772.5566406</ele>
        <time>2013-01-25T14:37:06Z</time>
      </trkpt>
      <trkpt lat="42.95113" lon="1.81905">
        <ele>767.2695313</ele>
        <time>2013-01-25T14:37:13Z</time>
      </trkpt>
      <trkpt lat="42.95125" lon="1.8191">
        <ele>764.385498</ele>
        <time>2013-01-25T14:37:18Z</time>
      </trkpt>
      <trkpt lat="42.95141" lon="1.81918">
        <ele>761.5014648</ele>
        <time>2013-01-25T14:37:25Z</time>
      </trkpt>
      <trkpt lat="42.95152" lon="1.81925">
        <ele>761.5014648</ele>
        <time>2013-01-25T14:37:30Z</time>
      </trkpt>
      <trkpt lat="42.95159" lon="1.81929">
        <ele>760.5400391</ele>
        <time>2013-01-25T14:37:33Z</time>
      </trkpt>
      <trkpt lat="42.95172" lon="1.81936">
        <ele>760.0593262</ele>
        <time>2013-01-25T14:37:39Z</time>
      </trkpt>
      <trkpt lat="42.95179" lon="1.81942">
        <ele>758.1369629</ele>
        <time>2013-01-25T14:37:43Z</time>
      </trkpt>
      <trkpt lat="42.95186" lon="1.81947">
        <ele>756.2141113</ele>
        <time>2013-01-25T14:37:47Z</time>
      </trkpt>
      <trkpt lat="42.9519" lon="1.81949">
        <ele>755.2529297</ele>
        <time>2013-01-25T14:37:50Z</time>
      </trkpt>
      <trkpt lat="42.95189" lon="1.81951">
        <ele>757.65625</ele>
        <time>2013-01-25T14:37:57Z</time>
      </trkpt>
      <trkpt lat="42.95189" lon="1.81951">
        <ele>758.1369629</ele>
        <time>2013-01-25T14:38:05Z</time>
      </trkpt>
      <trkpt lat="42.95191" lon="1.81951">
        <ele>757.65625</ele>
        <time>2013-01-25T14:38:08Z</time>
      </trkpt>
      <trkpt lat="42.95204" lon="1.81963">
        <ele>755.7336426</ele>
        <time>2013-01-25T14:38:15Z</time>
      </trkpt>
      <trkpt lat="42.95215" lon="1.81973">
        <ele>753.3303223</ele>
        <time>2013-01-25T14:38:21Z</time>
      </trkpt>
      <trkpt lat="42.95225" lon="1.81981">
        <ele>752.8496094</ele>
        <time>2013-01-25T14:38:26Z</time>
      </trkpt>
      <trkpt lat="42.95237" lon="1.81987">
        <ele>750.4465332</ele>
        <time>2013-01-25T14:38:32Z</time>
      </trkpt>
      <trkpt lat="42.95247" lon="1.81989">
        <ele>748.5236816</ele>
        <time>2013-01-25T14:38:37Z</time>
      </trkpt>
      <trkpt lat="42.95259" lon="1.81991">
        <ele>748.0432129</ele>
        <time>2013-01-25T14:38:42Z</time>
      </trkpt>
      <trkpt lat="42.95268" lon="1.81995">
        <ele>746.1203613</ele>
        <time>2013-01-25T14:38:46Z</time>
      </trkpt>
      <trkpt lat="42.95276" lon="1.82005">
        <ele>742.2751465</ele>
        <time>2013-01-25T14:38:52Z</time>
      </trkpt>
      <trkpt lat="42.95278" lon="1.82005">
        <ele>742.7558594</ele>
        <time>2013-01-25T14:38:58Z</time>
      </trkpt>
      <trkpt lat="42.95279" lon="1.82007">
        <ele>737.9492188</ele>
        <time>2013-01-25T14:39:06Z</time>
      </trkpt>
      <trkpt lat="42.9528" lon="1.82008">
        <ele>738.4299316</ele>
        <time>2013-01-25T14:39:14Z</time>
      </trkpt>
      <trkpt lat="42.95284" lon="1.82011">
        <ele>741.3137207</ele>
        <time>2013-01-25T14:39:24Z</time>
      </trkpt>
      <trkpt lat="42.95288" lon="1.8202">
        <ele>740.3525391</ele>
        <time>2013-01-25T14:39:28Z</time>
      </trkpt>
      <trkpt lat="42.95296" lon="1.8203">
        <ele>739.3911133</ele>
        <time>2013-01-25T14:39:33Z</time>
      </trkpt>
      <trkpt lat="42.95305" lon="1.82041">
        <ele>737.4685059</ele>
        <time>2013-01-25T14:39:40Z</time>
      </trkpt>
      <trkpt lat="42.95309" lon="1.82048">
        <ele>735.5458984</ele>
        <time>2013-01-25T14:39:45Z</time>
      </trkpt>
      <trkpt lat="42.95316" lon="1.82058">
        <ele>734.1040039</ele>
        <time>2013-01-25T14:39:52Z</time>
      </trkpt>
      <trkpt lat="42.95318" lon="1.82059">
        <ele>733.623291</ele>
        <time>2013-01-25T14:39:57Z</time>
      </trkpt>
      <trkpt lat="42.95323" lon="1.82064">
        <ele>731.7004395</ele>
        <time>2013-01-25T14:40:09Z</time>
      </trkpt>
      <trkpt lat="42.95325" lon="1.82066">
        <ele>730.7392578</ele>
        <time>2013-01-25T14:40:10Z</time>
      </trkpt>
      <trkpt lat="42.95338" lon="1.82075">
        <ele>729.777832</ele>
        <time>2013-01-25T14:40:16Z</time>
      </trkpt>
      <trkpt lat="42.95348" lon="1.8208">
        <ele>728.3359375</ele>
        <time>2013-01-25T14:40:21Z</time>
      </trkpt>
      <trkpt lat="42.95361" lon="1.82078">
        <ele>725.4519043</ele>
        <time>2013-01-25T14:40:27Z</time>
      </trkpt>
      <trkpt lat="42.95371" lon="1.8208">
        <ele>723.529541</ele>
        <time>2013-01-25T14:40:31Z</time>
      </trkpt>
      <trkpt lat="42.95374" lon="1.82084">
        <ele>724.9714355</ele>
        <time>2013-01-25T14:40:37Z</time>
      </trkpt>
      <trkpt lat="42.95376" lon="1.82085">
        <ele>725.9326172</ele>
        <time>2013-01-25T14:40:44Z</time>
      </trkpt>
      <trkpt lat="42.9538" lon="1.82085">
        <ele>725.4519043</ele>
        <time>2013-01-25T14:40:49Z</time>
      </trkpt>
      <trkpt lat="42.95386" lon="1.8209">
        <ele>724.9714355</ele>
        <time>2013-01-25T14:40:56Z</time>
      </trkpt>
      <trkpt lat="42.9539" lon="1.82095">
        <ele>725.9326172</ele>
        <time>2013-01-25T14:41:00Z</time>
      </trkpt>
      <trkpt lat="42.95393" lon="1.82107">
        <ele>726.4133301</ele>
        <time>2013-01-25T14:41:05Z</time>
      </trkpt>
      <trkpt lat="42.95397" lon="1.8212">
        <ele>724.4907227</ele>
        <time>2013-01-25T14:41:09Z</time>
      </trkpt>
      <trkpt lat="42.95399" lon="1.82123">
        <ele>724.4907227</ele>
        <time>2013-01-25T14:41:10Z</time>
      </trkpt>
      <trkpt lat="42.95406" lon="1.82136">
        <ele>720.6455078</ele>
        <time>2013-01-25T14:41:15Z</time>
      </trkpt>
      <trkpt lat="42.95414" lon="1.82149">
        <ele>717.7614746</ele>
        <time>2013-01-25T14:41:20Z</time>
      </trkpt>
      <trkpt lat="42.95424" lon="1.82164">
        <ele>716.800293</ele>
        <time>2013-01-25T14:41:27Z</time>
      </trkpt>
      <trkpt lat="42.95433" lon="1.82174">
        <ele>716.3195801</ele>
        <time>2013-01-25T14:41:32Z</time>
      </trkpt>
      <trkpt lat="42.95438" lon="1.82183">
        <ele>716.800293</ele>
        <time>2013-01-25T14:41:36Z</time>
      </trkpt>
      <trkpt lat="42.95451" lon="1.82206">
        <ele>719.2036133</ele>
        <time>2013-01-25T14:41:44Z</time>
      </trkpt>
      <trkpt lat="42.95463" lon="1.82221">
        <ele>720.6455078</ele>
        <time>2013-01-25T14:41:50Z</time>
      </trkpt>
      <trkpt lat="42.95473" lon="1.8223">
        <ele>720.1647949</ele>
        <time>2013-01-25T14:41:56Z</time>
      </trkpt>
      <trkpt lat="42.95482" lon="1.82235">
        <ele>719.6843262</ele>
        <time>2013-01-25T14:42:02Z</time>
      </trkpt>
      <trkpt lat="42.95491" lon="1.8224">
        <ele>719.2036133</ele>
        <time>2013-01-25T14:42:06Z</time>
      </trkpt>
      <trkpt lat="42.95498" lon="1.82247">
        <ele>718.7229004</ele>
        <time>2013-01-25T14:42:10Z</time>
      </trkpt>
      <trkpt lat="42.95499" lon="1.82265">
        <ele>717.7614746</ele>
        <time>2013-01-25T14:42:15Z</time>
      </trkpt>
      <trkpt lat="42.955" lon="1.82281">
        <ele>717.7614746</ele>
        <time>2013-01-25T14:42:20Z</time>
      </trkpt>
      <trkpt lat="42.95501" lon="1.823">
        <ele>717.7614746</ele>
        <time>2013-01-25T14:42:26Z</time>
      </trkpt>
      <trkpt lat="42.95504" lon="1.82314">
        <ele>717.7614746</ele>
        <time>2013-01-25T14:42:31Z</time>
      </trkpt>
      <trkpt lat="42.95513" lon="1.8233">
        <ele>717.2810059</ele>
        <time>2013-01-25T14:42:37Z</time>
      </trkpt>
      <trkpt lat="42.9552" lon="1.82346">
        <ele>717.7614746</ele>
        <time>2013-01-25T14:42:42Z</time>
      </trkpt>
      <trkpt lat="42.95526" lon="1.82358">
        <ele>717.2810059</ele>
        <time>2013-01-25T14:42:46Z</time>
      </trkpt>
      <trkpt lat="42.95533" lon="1.82373">
        <ele>716.3195801</ele>
        <time>2013-01-25T14:42:51Z</time>
      </trkpt>
      <trkpt lat="42.95538" lon="1.82393">
        <ele>714.8774414</ele>
        <time>2013-01-25T14:42:57Z</time>
      </trkpt>
      <trkpt lat="42.9554" lon="1.82409">
        <ele>714.3967285</ele>
        <time>2013-01-25T14:43:02Z</time>
      </trkpt>
      <trkpt lat="42.95544" lon="1.8243">
        <ele>712.954834</ele>
        <time>2013-01-25T14:43:08Z</time>
      </trkpt>
      <trkpt lat="42.95546" lon="1.82446">
        <ele>712.4741211</ele>
        <time>2013-01-25T14:43:13Z</time>
      </trkpt>
      <trkpt lat="42.95557" lon="1.82467">
        <ele>708.1484375</ele>
        <time>2013-01-25T14:43:20Z</time>
      </trkpt>
      <trkpt lat="42.95565" lon="1.82482">
        <ele>707.1870117</ele>
        <time>2013-01-25T14:43:25Z</time>
      </trkpt>
      <trkpt lat="42.95567" lon="1.82495">
        <ele>707.1870117</ele>
        <time>2013-01-25T14:43:29Z</time>
      </trkpt>
      <trkpt lat="42.9557" lon="1.82511">
        <ele>706.2255859</ele>
        <time>2013-01-25T14:43:34Z</time>
      </trkpt>
      <trkpt lat="42.95572" lon="1.82518">
        <ele>706.2255859</ele>
        <time>2013-01-25T14:43:36Z</time>
      </trkpt>
      <trkpt lat="42.95578" lon="1.82537">
        <ele>705.2644043</ele>
        <time>2013-01-25T14:43:42Z</time>
      </trkpt>
      <trkpt lat="42.95583" lon="1.82561">
        <ele>703.3417969</ele>
        <time>2013-01-25T14:43:49Z</time>
      </trkpt>
      <trkpt lat="42.95587" lon="1.82579">
        <ele>703.8225098</ele>
        <time>2013-01-25T14:43:55Z</time>
      </trkpt>
      <trkpt lat="42.95587" lon="1.82581">
        <ele>703.3417969</ele>
        <time>2013-01-25T14:43:57Z</time>
      </trkpt>
      <trkpt lat="42.95592" lon="1.82583">
        <ele>704.3032227</ele>
        <time>2013-01-25T14:44:04Z</time>
      </trkpt>
      <trkpt lat="42.95594" lon="1.82582">
        <ele>705.2644043</ele>
        <time>2013-01-25T14:44:06Z</time>
      </trkpt>
      <trkpt lat="42.95596" lon="1.82583">
        <ele>705.7451172</ele>
        <time>2013-01-25T14:44:08Z</time>
      </trkpt>
      <trkpt lat="42.95601" lon="1.82586">
        <ele>705.7451172</ele>
        <time>2013-01-25T14:44:12Z</time>
      </trkpt>
      <trkpt lat="42.95608" lon="1.82584">
        <ele>705.2644043</ele>
        <time>2013-01-25T14:44:18Z</time>
      </trkpt>
      <trkpt lat="42.95611" lon="1.82581">
        <ele>705.7451172</ele>
        <time>2013-01-25T14:44:23Z</time>
      </trkpt>
      <trkpt lat="42.95615" lon="1.82579">
        <ele>707.1870117</ele>
        <time>2013-01-25T14:44:30Z</time>
      </trkpt>
      <trkpt lat="42.95622" lon="1.82581">
        <ele>707.6677246</ele>
        <time>2013-01-25T14:44:36Z</time>
      </trkpt>
      <trkpt lat="42.95631" lon="1.82586">
        <ele>706.7062988</ele>
        <time>2013-01-25T14:44:43Z</time>
      </trkpt>
      <trkpt lat="42.95637" lon="1.82595">
        <ele>705.7451172</ele>
        <time>2013-01-25T14:44:50Z</time>
      </trkpt>
      <trkpt lat="42.9564" lon="1.82603">
        <ele>704.3032227</ele>
        <time>2013-01-25T14:44:55Z</time>
      </trkpt>
      <trkpt lat="42.95645" lon="1.82598">
        <ele>708.1484375</ele>
        <time>2013-01-25T14:45:04Z</time>
      </trkpt>
      <trkpt lat="42.95648" lon="1.82594">
        <ele>709.1096191</ele>
        <time>2013-01-25T14:45:10Z</time>
      </trkpt>
      <trkpt lat="42.95651" lon="1.82591">
        <ele>710.0708008</ele>
        <time>2013-01-25T14:45:15Z</time>
      </trkpt>
      <trkpt lat="42.95657" lon="1.8259">
        <ele>711.9936523</ele>
        <time>2013-01-25T14:45:21Z</time>
      </trkpt>
      <trkpt lat="42.95663" lon="1.82589">
        <ele>715.3581543</ele>
        <time>2013-01-25T14:45:28Z</time>
      </trkpt>
      <trkpt lat="42.95665" lon="1.82587">
        <ele>716.800293</ele>
        <time>2013-01-25T14:45:32Z</time>
      </trkpt>
      <trkpt lat="42.95668" lon="1.82586">
        <ele>718.2421875</ele>
        <time>2013-01-25T14:45:37Z</time>
      </trkpt>
      <trkpt lat="42.95672" lon="1.82582">
        <ele>719.2036133</ele>
        <time>2013-01-25T14:45:43Z</time>
      </trkpt>
      <trkpt lat="42.95675" lon="1.82581">
        <ele>719.2036133</ele>
        <time>2013-01-25T14:45:45Z</time>
      </trkpt>
      <trkpt lat="42.95681" lon="1.8258">
        <ele>719.6843262</ele>
        <time>2013-01-25T14:45:53Z</time>
      </trkpt>
      <trkpt lat="42.95678" lon="1.8258">
        <ele>719.2036133</ele>
        <time>2013-01-25T14:45:57Z</time>
      </trkpt>
      <trkpt lat="42.95674" lon="1.82585">
        <ele>718.7229004</ele>
        <time>2013-01-25T14:46:03Z</time>
      </trkpt>
      <trkpt lat="42.95672" lon="1.8259">
        <ele>718.2421875</ele>
        <time>2013-01-25T14:46:07Z</time>
      </trkpt>
      <trkpt lat="42.95668" lon="1.82587">
        <ele>716.800293</ele>
        <time>2013-01-25T14:46:13Z</time>
      </trkpt>
      <trkpt lat="42.95663" lon="1.82586">
        <ele>713.9160156</ele>
        <time>2013-01-25T14:46:18Z</time>
      </trkpt>
      <trkpt lat="42.95661" lon="1.82591">
        <ele>712.954834</ele>
        <time>2013-01-25T14:46:23Z</time>
      </trkpt>
      <trkpt lat="42.95653" lon="1.82603">
        <ele>711.0322266</ele>
        <time>2013-01-25T14:46:30Z</time>
      </trkpt>
      <trkpt lat="42.9565" lon="1.82604">
        <ele>710.5515137</ele>
        <time>2013-01-25T14:46:32Z</time>
      </trkpt>
      <trkpt lat="42.95649" lon="1.82604">
        <ele>710.5515137</ele>
        <time>2013-01-25T14:46:34Z</time>
      </trkpt>
      <trkpt lat="42.95647" lon="1.82609">
        <ele>709.1096191</ele>
        <time>2013-01-25T14:46:40Z</time>
      </trkpt>
      <trkpt lat="42.95642" lon="1.82617">
        <ele>707.1870117</ele>
        <time>2013-01-25T14:46:46Z</time>
      </trkpt>
      <trkpt lat="42.95634" lon="1.82618">
        <ele>705.7451172</ele>
        <time>2013-01-25T14:46:50Z</time>
      </trkpt>
      <trkpt lat="42.95624" lon="1.82614">
        <ele>705.2644043</ele>
        <time>2013-01-25T14:46:55Z</time>
      </trkpt>
      <trkpt lat="42.95619" lon="1.82613">
        <ele>705.2644043</ele>
        <time>2013-01-25T14:46:57Z</time>
      </trkpt>
      <trkpt lat="42.95606" lon="1.82604">
        <ele>706.2255859</ele>
        <time>2013-01-25T14:47:04Z</time>
      </trkpt>
      <trkpt lat="42.95596" lon="1.82593">
        <ele>707.6677246</ele>
        <time>2013-01-25T14:47:11Z</time>
      </trkpt>
      <trkpt lat="42.95592" lon="1.82586">
        <ele>707.6677246</ele>
        <time>2013-01-25T14:47:17Z</time>
      </trkpt>
      <trkpt lat="42.95592" lon="1.82589">
        <ele>708.1484375</ele>
        <time>2013-01-25T14:47:19Z</time>
      </trkpt>
      <trkpt lat="42.95586" lon="1.82612">
        <ele>707.6677246</ele>
        <time>2013-01-25T14:47:27Z</time>
      </trkpt>
      <trkpt lat="42.95585" lon="1.82632">
        <ele>707.6677246</ele>
        <time>2013-01-25T14:47:33Z</time>
      </trkpt>
      <trkpt lat="42.95582" lon="1.82647">
        <ele>707.6677246</ele>
        <time>2013-01-25T14:47:38Z</time>
      </trkpt>
      <trkpt lat="42.95581" lon="1.82664">
        <ele>707.6677246</ele>
        <time>2013-01-25T14:47:43Z</time>
      </trkpt>
      <trkpt lat="42.95581" lon="1.8268">
        <ele>707.6677246</ele>
        <time>2013-01-25T14:47:48Z</time>
      </trkpt>
      <trkpt lat="42.95583" lon="1.82698">
        <ele>707.1870117</ele>
        <time>2013-01-25T14:47:53Z</time>
      </trkpt>
      <trkpt lat="42.95584" lon="1.8271">
        <ele>706.7062988</ele>
        <time>2013-01-25T14:47:57Z</time>
      </trkpt>
      <trkpt lat="42.95584" lon="1.82726">
        <ele>706.7062988</ele>
        <time>2013-01-25T14:48:02Z</time>
      </trkpt>
      <trkpt lat="42.95584" lon="1.82728">
        <ele>706.7062988</ele>
        <time>2013-01-25T14:48:03Z</time>
      </trkpt>
      <trkpt lat="42.95584" lon="1.8273">
        <ele>707.1870117</ele>
        <time>2013-01-25T14:48:12Z</time>
      </trkpt>
      <trkpt lat="42.95584" lon="1.8273">
        <ele>707.1870117</ele>
        <time>2013-01-25T14:48:22Z</time>
      </trkpt>
      <trkpt lat="42.95586" lon="1.82732">
        <ele>706.7062988</ele>
        <time>2013-01-25T14:48:26Z</time>
      </trkpt>
      <trkpt lat="42.9559" lon="1.8274">
        <ele>705.2644043</ele>
        <time>2013-01-25T14:48:30Z</time>
      </trkpt>
      <trkpt lat="42.95596" lon="1.82744">
        <ele>704.3032227</ele>
        <time>2013-01-25T14:48:34Z</time>
      </trkpt>
      <trkpt lat="42.95598" lon="1.82765">
        <ele>702.3803711</ele>
        <time>2013-01-25T14:48:40Z</time>
      </trkpt>
      <trkpt lat="42.956" lon="1.82779">
        <ele>702.3803711</ele>
        <time>2013-01-25T14:48:44Z</time>
      </trkpt>
      <trkpt lat="42.95603" lon="1.82802">
        <ele>702.861084</ele>
        <time>2013-01-25T14:48:50Z</time>
      </trkpt>
      <trkpt lat="42.95608" lon="1.82828">
        <ele>702.861084</ele>
        <time>2013-01-25T14:48:57Z</time>
      </trkpt>
      <trkpt lat="42.95608" lon="1.82831">
        <ele>702.861084</ele>
        <time>2013-01-25T14:48:58Z</time>
      </trkpt>
      <trkpt lat="42.95609" lon="1.82845">
        <ele>703.3417969</ele>
        <time>2013-01-25T14:49:03Z</time>
      </trkpt>
      <trkpt lat="42.95613" lon="1.82852">
        <ele>703.8225098</ele>
        <time>2013-01-25T14:49:07Z</time>
      </trkpt>
      <trkpt lat="42.95614" lon="1.82858">
        <ele>703.3417969</ele>
        <time>2013-01-25T14:49:12Z</time>
      </trkpt>
      <trkpt lat="42.95614" lon="1.82863">
        <ele>702.861084</ele>
        <time>2013-01-25T14:49:15Z</time>
      </trkpt>
      <trkpt lat="42.95615" lon="1.82865">
        <ele>703.8225098</ele>
        <time>2013-01-25T14:49:17Z</time>
      </trkpt>
      <trkpt lat="42.95616" lon="1.82866">
        <ele>704.3032227</ele>
        <time>2013-01-25T14:49:19Z</time>
      </trkpt>
      <trkpt lat="42.95618" lon="1.82889">
        <ele>704.7836914</ele>
        <time>2013-01-25T14:49:26Z</time>
      </trkpt>
      <trkpt lat="42.9562" lon="1.82907">
        <ele>703.8225098</ele>
        <time>2013-01-25T14:49:31Z</time>
      </trkpt>
      <trkpt lat="42.95621" lon="1.82922">
        <ele>702.3803711</ele>
        <time>2013-01-25T14:49:36Z</time>
      </trkpt>
      <trkpt lat="42.95622" lon="1.82927">
        <ele>701.8999023</ele>
        <time>2013-01-25T14:49:38Z</time>
      </trkpt>
      <trkpt lat="42.95628" lon="1.82937">
        <ele>702.3803711</ele>
        <time>2013-01-25T14:49:44Z</time>
      </trkpt>
      <trkpt lat="42.95629" lon="1.82938">
        <ele>702.3803711</ele>
        <time>2013-01-25T14:49:45Z</time>
      </trkpt>
      <trkpt lat="42.95633" lon="1.8294">
        <ele>704.7836914</ele>
        <time>2013-01-25T14:49:51Z</time>
      </trkpt>
      <trkpt lat="42.95634" lon="1.8294">
        <ele>704.7836914</ele>
        <time>2013-01-25T14:50:00Z</time>
      </trkpt>
      <trkpt lat="42.95634" lon="1.82941">
        <ele>704.3032227</ele>
        <time>2013-01-25T14:50:08Z</time>
      </trkpt>
      <trkpt lat="42.95634" lon="1.82946">
        <ele>704.3032227</ele>
        <time>2013-01-25T14:50:12Z</time>
      </trkpt>
      <trkpt lat="42.95631" lon="1.82955">
        <ele>706.2255859</ele>
        <time>2013-01-25T14:50:18Z</time>
      </trkpt>
      <trkpt lat="42.95629" lon="1.82962">
        <ele>706.2255859</ele>
        <time>2013-01-25T14:50:24Z</time>
      </trkpt>
      <trkpt lat="42.95627" lon="1.82966">
        <ele>706.2255859</ele>
        <time>2013-01-25T14:50:30Z</time>
      </trkpt>
      <trkpt lat="42.95626" lon="1.82968">
        <ele>706.2255859</ele>
        <time>2013-01-25T14:50:37Z</time>
      </trkpt>
      <trkpt lat="42.95626" lon="1.8297">
        <ele>705.2644043</ele>
        <time>2013-01-25T14:50:46Z</time>
      </trkpt>
      <trkpt lat="42.95628" lon="1.82973">
        <ele>706.2255859</ele>
        <time>2013-01-25T14:50:52Z</time>
      </trkpt>
      <trkpt lat="42.9563" lon="1.8297">
        <ele>707.1870117</ele>
        <time>2013-01-25T14:51:01Z</time>
      </trkpt>
      <trkpt lat="42.95632" lon="1.82969">
        <ele>708.1484375</ele>
        <time>2013-01-25T14:51:04Z</time>
      </trkpt>
      <trkpt lat="42.95637" lon="1.82965">
        <ele>709.590332</ele>
        <time>2013-01-25T14:51:09Z</time>
      </trkpt>
      <trkpt lat="42.95639" lon="1.82962">
        <ele>707.6677246</ele>
        <time>2013-01-25T14:51:12Z</time>
      </trkpt>
      <trkpt lat="42.95643" lon="1.82962">
        <ele>708.1484375</ele>
        <time>2013-01-25T14:51:17Z</time>
      </trkpt>
      <trkpt lat="42.95646" lon="1.82965">
        <ele>709.1096191</ele>
        <time>2013-01-25T14:51:22Z</time>
      </trkpt>
      <trkpt lat="42.95649" lon="1.82967">
        <ele>710.5515137</ele>
        <time>2013-01-25T14:51:27Z</time>
      </trkpt>
      <trkpt lat="42.95653" lon="1.82969">
        <ele>712.4741211</ele>
        <time>2013-01-25T14:51:33Z</time>
      </trkpt>
      <trkpt lat="42.95654" lon="1.82969">
        <ele>713.4355469</ele>
        <time>2013-01-25T14:51:39Z</time>
      </trkpt>
      <trkpt lat="42.9566" lon="1.82969">
        <ele>717.2810059</ele>
        <time>2013-01-25T14:51:54Z</time>
      </trkpt>
      <trkpt lat="42.95663" lon="1.82968">
        <ele>719.6843262</ele>
        <time>2013-01-25T14:51:57Z</time>
      </trkpt>
      <trkpt lat="42.95668" lon="1.82969">
        <ele>722.0874023</ele>
        <time>2013-01-25T14:52:02Z</time>
      </trkpt>
      <trkpt lat="42.9567" lon="1.82972">
        <ele>724.0100098</ele>
        <time>2013-01-25T14:52:05Z</time>
      </trkpt>
      <trkpt lat="42.95674" lon="1.82976">
        <ele>724.4907227</ele>
        <time>2013-01-25T14:52:10Z</time>
      </trkpt>
      <trkpt lat="42.95675" lon="1.82978">
        <ele>724.9714355</ele>
        <time>2013-01-25T14:52:11Z</time>
      </trkpt>
      <trkpt lat="42.95679" lon="1.82989">
        <ele>725.4519043</ele>
        <time>2013-01-25T14:52:19Z</time>
      </trkpt>
      <trkpt lat="42.95682" lon="1.82994">
        <ele>724.4907227</ele>
        <time>2013-01-25T14:52:22Z</time>
      </trkpt>
      <trkpt lat="42.95686" lon="1.83007">
        <ele>724.4907227</ele>
        <time>2013-01-25T14:52:28Z</time>
      </trkpt>
      <trkpt lat="42.95687" lon="1.83017">
        <ele>724.0100098</ele>
        <time>2013-01-25T14:52:34Z</time>
      </trkpt>
      <trkpt lat="42.95692" lon="1.83027">
        <ele>724.4907227</ele>
        <time>2013-01-25T14:52:39Z</time>
      </trkpt>
      <trkpt lat="42.95694" lon="1.83037">
        <ele>724.9714355</ele>
        <time>2013-01-25T14:52:43Z</time>
      </trkpt>
      <trkpt lat="42.95695" lon="1.8304">
        <ele>725.4519043</ele>
        <time>2013-01-25T14:52:45Z</time>
      </trkpt>
      <trkpt lat="42.95698" lon="1.83043">
        <ele>727.3747559</ele>
        <time>2013-01-25T14:52:49Z</time>
      </trkpt>
      <trkpt lat="42.95701" lon="1.83048">
        <ele>729.777832</ele>
        <time>2013-01-25T14:52:53Z</time>
      </trkpt>
      <trkpt lat="42.95705" lon="1.83049">
        <ele>731.2199707</ele>
        <time>2013-01-25T14:52:59Z</time>
      </trkpt>
      <trkpt lat="42.95709" lon="1.83051">
        <ele>731.7004395</ele>
        <time>2013-01-25T14:53:02Z</time>
      </trkpt>
      <trkpt lat="42.95713" lon="1.83059">
        <ele>730.7392578</ele>
        <time>2013-01-25T14:53:09Z</time>
      </trkpt>
      <trkpt lat="42.95714" lon="1.83071">
        <ele>730.7392578</ele>
        <time>2013-01-25T14:53:14Z</time>
      </trkpt>
      <trkpt lat="42.95712" lon="1.83082">
        <ele>733.1425781</ele>
        <time>2013-01-25T14:53:19Z</time>
      </trkpt>
      <trkpt lat="42.95709" lon="1.83097">
        <ele>734.5847168</ele>
        <time>2013-01-25T14:53:25Z</time>
      </trkpt>
      <trkpt lat="42.95707" lon="1.83111">
        <ele>736.5073242</ele>
        <time>2013-01-25T14:53:30Z</time>
      </trkpt>
      <trkpt lat="42.95709" lon="1.83128">
        <ele>738.4299316</ele>
        <time>2013-01-25T14:53:36Z</time>
      </trkpt>
      <trkpt lat="42.95709" lon="1.83137">
        <ele>737.4685059</ele>
        <time>2013-01-25T14:53:39Z</time>
      </trkpt>
      <trkpt lat="42.95716" lon="1.83147">
        <ele>737.4685059</ele>
        <time>2013-01-25T14:53:44Z</time>
      </trkpt>
      <trkpt lat="42.95718" lon="1.83149">
        <ele>737.4685059</ele>
        <time>2013-01-25T14:53:45Z</time>
      </trkpt>
      <trkpt lat="42.95722" lon="1.8316">
        <ele>736.5073242</ele>
        <time>2013-01-25T14:53:51Z</time>
      </trkpt>
      <trkpt lat="42.95721" lon="1.83175">
        <ele>737.4685059</ele>
        <time>2013-01-25T14:53:56Z</time>
      </trkpt>
      <trkpt lat="42.95721" lon="1.83181">
        <ele>737.4685059</ele>
        <time>2013-01-25T14:53:58Z</time>
      </trkpt>
      <trkpt lat="42.95723" lon="1.83199">
        <ele>738.9106445</ele>
        <time>2013-01-25T14:54:04Z</time>
      </trkpt>
      <trkpt lat="42.95724" lon="1.83208">
        <ele>740.8330078</ele>
        <time>2013-01-25T14:54:07Z</time>
      </trkpt>
      <trkpt lat="42.95726" lon="1.83223">
        <ele>742.7558594</ele>
        <time>2013-01-25T14:54:12Z</time>
      </trkpt>
      <trkpt lat="42.95726" lon="1.83226">
        <ele>743.2363281</ele>
        <time>2013-01-25T14:54:13Z</time>
      </trkpt>
      <trkpt lat="42.95729" lon="1.83247">
        <ele>746.1203613</ele>
        <time>2013-01-25T14:54:19Z</time>
      </trkpt>
      <trkpt lat="42.95732" lon="1.83267">
        <ele>747.5622559</ele>
        <time>2013-01-25T14:54:25Z</time>
      </trkpt>
      <trkpt lat="42.95733" lon="1.83281">
        <ele>750.4465332</ele>
        <time>2013-01-25T14:54:29Z</time>
      </trkpt>
      <trkpt lat="42.95735" lon="1.83303">
        <ele>750.4465332</ele>
        <time>2013-01-25T14:54:36Z</time>
      </trkpt>
      <trkpt lat="42.95736" lon="1.83323">
        <ele>752.8496094</ele>
        <time>2013-01-25T14:54:42Z</time>
      </trkpt>
      <trkpt lat="42.95733" lon="1.83341">
        <ele>753.8110352</ele>
        <time>2013-01-25T14:54:47Z</time>
      </trkpt>
      <trkpt lat="42.95732" lon="1.83356">
        <ele>753.8110352</ele>
        <time>2013-01-25T14:54:51Z</time>
      </trkpt>
      <trkpt lat="42.9573" lon="1.83375">
        <ele>753.8110352</ele>
        <time>2013-01-25T14:54:56Z</time>
      </trkpt>
      <trkpt lat="42.95734" lon="1.83398">
        <ele>750.927002</ele>
        <time>2013-01-25T14:55:02Z</time>
      </trkpt>
      <trkpt lat="42.95736" lon="1.83412">
        <ele>749.9658203</ele>
        <time>2013-01-25T14:55:06Z</time>
      </trkpt>
      <trkpt lat="42.95732" lon="1.83431">
        <ele>750.927002</ele>
        <time>2013-01-25T14:55:12Z</time>
      </trkpt>
      <trkpt lat="42.9573" lon="1.83445">
        <ele>752.3688965</ele>
        <time>2013-01-25T14:55:16Z</time>
      </trkpt>
      <trkpt lat="42.95728" lon="1.83452">
        <ele>751.8884277</ele>
        <time>2013-01-25T14:55:18Z</time>
      </trkpt>
      <trkpt lat="42.95727" lon="1.8348">
        <ele>752.3688965</ele>
        <time>2013-01-25T14:55:26Z</time>
      </trkpt>
      <trkpt lat="42.95728" lon="1.83497">
        <ele>752.3688965</ele>
        <time>2013-01-25T14:55:31Z</time>
      </trkpt>
      <trkpt lat="42.95728" lon="1.835">
        <ele>752.3688965</ele>
        <time>2013-01-25T14:55:32Z</time>
      </trkpt>
      <trkpt lat="42.95726" lon="1.83513">
        <ele>753.3303223</ele>
        <time>2013-01-25T14:55:36Z</time>
      </trkpt>
      <trkpt lat="42.95727" lon="1.83537">
        <ele>754.291748</ele>
        <time>2013-01-25T14:55:43Z</time>
      </trkpt>
      <trkpt lat="42.95728" lon="1.83555">
        <ele>750.4465332</ele>
        <time>2013-01-25T14:55:48Z</time>
      </trkpt>
      <trkpt lat="42.95725" lon="1.83574">
        <ele>747.081543</ele>
        <time>2013-01-25T14:55:53Z</time>
      </trkpt>
      <trkpt lat="42.95723" lon="1.83593">
        <ele>747.081543</ele>
        <time>2013-01-25T14:55:58Z</time>
      </trkpt>
      <trkpt lat="42.95719" lon="1.83611">
        <ele>748.0432129</ele>
        <time>2013-01-25T14:56:03Z</time>
      </trkpt>
      <trkpt lat="42.95716" lon="1.83628">
        <ele>749.4851074</ele>
        <time>2013-01-25T14:56:08Z</time>
      </trkpt>
      <trkpt lat="42.95716" lon="1.83648">
        <ele>749.9658203</ele>
        <time>2013-01-25T14:56:14Z</time>
      </trkpt>
      <trkpt lat="42.95715" lon="1.83666">
        <ele>748.5236816</ele>
        <time>2013-01-25T14:56:19Z</time>
      </trkpt>
      <trkpt lat="42.95718" lon="1.83688">
        <ele>747.5622559</ele>
        <time>2013-01-25T14:56:25Z</time>
      </trkpt>
      <trkpt lat="42.95722" lon="1.83705">
        <ele>745.6396484</ele>
        <time>2013-01-25T14:56:30Z</time>
      </trkpt>
      <trkpt lat="42.95729" lon="1.83724">
        <ele>745.6396484</ele>
        <time>2013-01-25T14:56:36Z</time>
      </trkpt>
      <trkpt lat="42.95731" lon="1.83741">
        <ele>743.717041</ele>
        <time>2013-01-25T14:56:41Z</time>
      </trkpt>
      <trkpt lat="42.95733" lon="1.8376">
        <ele>742.7558594</ele>
        <time>2013-01-25T14:56:46Z</time>
      </trkpt>
      <trkpt lat="42.95732" lon="1.83779">
        <ele>741.7944336</ele>
        <time>2013-01-25T14:56:51Z</time>
      </trkpt>
      <trkpt lat="42.95732" lon="1.83795">
        <ele>740.8330078</ele>
        <time>2013-01-25T14:56:55Z</time>
      </trkpt>
      <trkpt lat="42.95732" lon="1.83819">
        <ele>742.2751465</ele>
        <time>2013-01-25T14:57:01Z</time>
      </trkpt>
      <trkpt lat="42.95732" lon="1.83836">
        <ele>743.2363281</ele>
        <time>2013-01-25T14:57:06Z</time>
      </trkpt>
      <trkpt lat="42.95735" lon="1.83855">
        <ele>745.1589355</ele>
        <time>2013-01-25T14:57:11Z</time>
      </trkpt>
      <trkpt lat="42.95737" lon="1.83874">
        <ele>739.8718262</ele>
        <time>2013-01-25T14:57:16Z</time>
      </trkpt>
      <trkpt lat="42.95735" lon="1.83897">
        <ele>735.5458984</ele>
        <time>2013-01-25T14:57:22Z</time>
      </trkpt>
      <trkpt lat="42.95734" lon="1.83912">
        <ele>734.1040039</ele>
        <time>2013-01-25T14:57:26Z</time>
      </trkpt>
      <trkpt lat="42.95733" lon="1.83915">
        <ele>733.1425781</ele>
        <time>2013-01-25T14:57:27Z</time>
      </trkpt>
      <trkpt lat="42.95731" lon="1.8393">
        <ele>731.7004395</ele>
        <time>2013-01-25T14:57:31Z</time>
      </trkpt>
      <trkpt lat="42.95729" lon="1.83952">
        <ele>729.2971191</ele>
        <time>2013-01-25T14:57:37Z</time>
      </trkpt>
      <trkpt lat="42.95729" lon="1.83975">
        <ele>728.3359375</ele>
        <time>2013-01-25T14:57:43Z</time>
      </trkpt>
      <trkpt lat="42.95727" lon="1.83992">
        <ele>726.894043</ele>
        <time>2013-01-25T14:57:48Z</time>
      </trkpt>
      <trkpt lat="42.95726" lon="1.83998">
        <ele>726.4133301</ele>
        <time>2013-01-25T14:57:50Z</time>
      </trkpt>
      <trkpt lat="42.95727" lon="1.84013">
        <ele>724.4907227</ele>
        <time>2013-01-25T14:57:54Z</time>
      </trkpt>
      <trkpt lat="42.95724" lon="1.84036">
        <ele>724.0100098</ele>
        <time>2013-01-25T14:58:00Z</time>
      </trkpt>
      <trkpt lat="42.95725" lon="1.84054">
        <ele>723.0488281</ele>
        <time>2013-01-25T14:58:05Z</time>
      </trkpt>
      <trkpt lat="42.95726" lon="1.84073">
        <ele>720.6455078</ele>
        <time>2013-01-25T14:58:10Z</time>
      </trkpt>
      <trkpt lat="42.95725" lon="1.84097">
        <ele>720.6455078</ele>
        <time>2013-01-25T14:58:16Z</time>
      </trkpt>
      <trkpt lat="42.95726" lon="1.84117">
        <ele>719.2036133</ele>
        <time>2013-01-25T14:58:21Z</time>
      </trkpt>
      <trkpt lat="42.95728" lon="1.84136">
        <ele>717.2810059</ele>
        <time>2013-01-25T14:58:26Z</time>
      </trkpt>
      <trkpt lat="42.95727" lon="1.84154">
        <ele>716.3195801</ele>
        <time>2013-01-25T14:58:30Z</time>
      </trkpt>
      <trkpt lat="42.95726" lon="1.8417">
        <ele>715.8388672</ele>
        <time>2013-01-25T14:58:34Z</time>
      </trkpt>
      <trkpt lat="42.95727" lon="1.8419">
        <ele>715.3581543</ele>
        <time>2013-01-25T14:58:39Z</time>
      </trkpt>
      <trkpt lat="42.95728" lon="1.84206">
        <ele>714.3967285</ele>
        <time>2013-01-25T14:58:43Z</time>
      </trkpt>
      <trkpt lat="42.95729" lon="1.84224">
        <ele>713.9160156</ele>
        <time>2013-01-25T14:58:48Z</time>
      </trkpt>
      <trkpt lat="42.95726" lon="1.84239">
        <ele>714.3967285</ele>
        <time>2013-01-25T14:58:52Z</time>
      </trkpt>
      <trkpt lat="42.95728" lon="1.84261">
        <ele>714.3967285</ele>
        <time>2013-01-25T14:58:58Z</time>
      </trkpt>
      <trkpt lat="42.95729" lon="1.8428">
        <ele>715.3581543</ele>
        <time>2013-01-25T14:59:03Z</time>
      </trkpt>
      <trkpt lat="42.95731" lon="1.84305">
        <ele>714.3967285</ele>
        <time>2013-01-25T14:59:09Z</time>
      </trkpt>
      <trkpt lat="42.95731" lon="1.84324">
        <ele>711.0322266</ele>
        <time>2013-01-25T14:59:14Z</time>
      </trkpt>
      <trkpt lat="42.9573" lon="1.84348">
        <ele>708.1484375</ele>
        <time>2013-01-25T14:59:20Z</time>
      </trkpt>
      <trkpt lat="42.95731" lon="1.84366">
        <ele>707.1870117</ele>
        <time>2013-01-25T14:59:25Z</time>
      </trkpt>
      <trkpt lat="42.95731" lon="1.8439">
        <ele>706.2255859</ele>
        <time>2013-01-25T14:59:31Z</time>
      </trkpt>
      <trkpt lat="42.95729" lon="1.84408">
        <ele>707.1870117</ele>
        <time>2013-01-25T14:59:36Z</time>
      </trkpt>
      <trkpt lat="42.95729" lon="1.84431">
        <ele>703.3417969</ele>
        <time>2013-01-25T14:59:42Z</time>
      </trkpt>
      <trkpt lat="42.95728" lon="1.84446">
        <ele>703.3417969</ele>
        <time>2013-01-25T14:59:46Z</time>
      </trkpt>
      <trkpt lat="42.95731" lon="1.84466">
        <ele>700.9384766</ele>
        <time>2013-01-25T14:59:51Z</time>
      </trkpt>
      <trkpt lat="42.95729" lon="1.84494">
        <ele>700.4580078</ele>
        <time>2013-01-25T14:59:58Z</time>
      </trkpt>
      <trkpt lat="42.95728" lon="1.84509">
        <ele>699.9770508</ele>
        <time>2013-01-25T15:00:03Z</time>
      </trkpt>
      <trkpt lat="42.95727" lon="1.84525">
        <ele>697.0930176</ele>
        <time>2013-01-25T15:00:10Z</time>
      </trkpt>
      <trkpt lat="42.95726" lon="1.84542">
        <ele>694.6896973</ele>
        <time>2013-01-25T15:00:15Z</time>
      </trkpt>
      <trkpt lat="42.95726" lon="1.84561">
        <ele>694.6896973</ele>
        <time>2013-01-25T15:00:20Z</time>
      </trkpt>
      <trkpt lat="42.95727" lon="1.84579">
        <ele>693.7285156</ele>
        <time>2013-01-25T15:00:25Z</time>
      </trkpt>
      <trkpt lat="42.95728" lon="1.84601">
        <ele>693.2478027</ele>
        <time>2013-01-25T15:00:31Z</time>
      </trkpt>
      <trkpt lat="42.95728" lon="1.84616">
        <ele>692.767334</ele>
        <time>2013-01-25T15:00:35Z</time>
      </trkpt>
      <trkpt lat="42.95728" lon="1.8464">
        <ele>690.8444824</ele>
        <time>2013-01-25T15:00:42Z</time>
      </trkpt>
      <trkpt lat="42.95727" lon="1.84658">
        <ele>689.8833008</ele>
        <time>2013-01-25T15:00:47Z</time>
      </trkpt>
      <trkpt lat="42.95724" lon="1.84673">
        <ele>689.4025879</ele>
        <time>2013-01-25T15:00:52Z</time>
      </trkpt>
      <trkpt lat="42.95727" lon="1.84689">
        <ele>689.4025879</ele>
        <time>2013-01-25T15:00:57Z</time>
      </trkpt>
      <trkpt lat="42.95726" lon="1.84701">
        <ele>689.4025879</ele>
        <time>2013-01-25T15:01:01Z</time>
      </trkpt>
      <trkpt lat="42.95727" lon="1.84715">
        <ele>688.4414063</ele>
        <time>2013-01-25T15:01:05Z</time>
      </trkpt>
      <trkpt lat="42.9573" lon="1.8473">
        <ele>686.9992676</ele>
        <time>2013-01-25T15:01:10Z</time>
      </trkpt>
      <trkpt lat="42.95729" lon="1.84748">
        <ele>685.0769043</ele>
        <time>2013-01-25T15:01:15Z</time>
      </trkpt>
      <trkpt lat="42.95728" lon="1.84751">
        <ele>685.0769043</ele>
        <time>2013-01-25T15:01:16Z</time>
      </trkpt>
      <trkpt lat="42.95731" lon="1.84768">
        <ele>683.1538086</ele>
        <time>2013-01-25T15:01:22Z</time>
      </trkpt>
      <trkpt lat="42.95732" lon="1.8478">
        <ele>682.192627</ele>
        <time>2013-01-25T15:01:26Z</time>
      </trkpt>
      <trkpt lat="42.95728" lon="1.84789">
        <ele>682.192627</ele>
        <time>2013-01-25T15:01:30Z</time>
      </trkpt>
      <trkpt lat="42.95728" lon="1.84797">
        <ele>682.6733398</ele>
        <time>2013-01-25T15:01:34Z</time>
      </trkpt>
      <trkpt lat="42.9573" lon="1.84809">
        <ele>681.7119141</ele>
        <time>2013-01-25T15:01:38Z</time>
      </trkpt>
      <trkpt lat="42.95732" lon="1.84814">
        <ele>681.7119141</ele>
        <time>2013-01-25T15:01:40Z</time>
      </trkpt>
      <trkpt lat="42.95732" lon="1.84828">
        <ele>680.7507324</ele>
        <time>2013-01-25T15:01:45Z</time>
      </trkpt>
      <trkpt lat="42.9573" lon="1.84843">
        <ele>679.3085938</ele>
        <time>2013-01-25T15:01:50Z</time>
      </trkpt>
      <trkpt lat="42.95728" lon="1.84857">
        <ele>676.4248047</ele>
        <time>2013-01-25T15:01:55Z</time>
      </trkpt>
      <trkpt lat="42.95728" lon="1.84865">
        <ele>674.0214844</ele>
        <time>2013-01-25T15:01:59Z</time>
      </trkpt>
      <trkpt lat="42.9573" lon="1.84874">
        <ele>672.5795898</ele>
        <time>2013-01-25T15:02:03Z</time>
      </trkpt>
      <trkpt lat="42.95733" lon="1.84886">
        <ele>672.5795898</ele>
        <time>2013-01-25T15:02:09Z</time>
      </trkpt>
      <trkpt lat="42.95732" lon="1.8489">
        <ele>672.5795898</ele>
        <time>2013-01-25T15:02:11Z</time>
      </trkpt>
      <trkpt lat="42.9573" lon="1.84899">
        <ele>674.0214844</ele>
        <time>2013-01-25T15:02:16Z</time>
      </trkpt>
      <trkpt lat="42.95731" lon="1.84908">
        <ele>675.9440918</ele>
        <time>2013-01-25T15:02:21Z</time>
      </trkpt>
      <trkpt lat="42.95732" lon="1.84915">
        <ele>675.9440918</ele>
        <time>2013-01-25T15:02:24Z</time>
      </trkpt>
      <trkpt lat="42.95734" lon="1.84921">
        <ele>675.9440918</ele>
        <time>2013-01-25T15:02:27Z</time>
      </trkpt>
      <trkpt lat="42.95736" lon="1.84934">
        <ele>675.9440918</ele>
        <time>2013-01-25T15:02:34Z</time>
      </trkpt>
      <trkpt lat="42.95734" lon="1.84942">
        <ele>674.9829102</ele>
        <time>2013-01-25T15:02:39Z</time>
      </trkpt>
      <trkpt lat="42.95733" lon="1.84945">
        <ele>675.4633789</ele>
        <time>2013-01-25T15:02:41Z</time>
      </trkpt>
      <trkpt lat="42.95735" lon="1.84952">
        <ele>674.5021973</ele>
        <time>2013-01-25T15:02:45Z</time>
      </trkpt>
      <trkpt lat="42.95734" lon="1.84959">
        <ele>674.5021973</ele>
        <time>2013-01-25T15:02:50Z</time>
      </trkpt>
      <trkpt lat="42.95734" lon="1.8497">
        <ele>673.5410156</ele>
        <time>2013-01-25T15:02:56Z</time>
      </trkpt>
      <trkpt lat="42.95731" lon="1.84981">
        <ele>674.0214844</ele>
        <time>2013-01-25T15:03:00Z</time>
      </trkpt>
      <trkpt lat="42.9573" lon="1.84987">
        <ele>674.0214844</ele>
        <time>2013-01-25T15:03:05Z</time>
      </trkpt>
      <trkpt lat="42.95731" lon="1.84998">
        <ele>673.5410156</ele>
        <time>2013-01-25T15:03:11Z</time>
      </trkpt>
      <trkpt lat="42.95731" lon="1.84999">
        <ele>673.5410156</ele>
        <time>2013-01-25T15:03:12Z</time>
      </trkpt>
      <trkpt lat="42.9573" lon="1.85009">
        <ele>673.0603027</ele>
        <time>2013-01-25T15:03:17Z</time>
      </trkpt>
      <trkpt lat="42.95731" lon="1.85017">
        <ele>673.0603027</ele>
        <time>2013-01-25T15:03:21Z</time>
      </trkpt>
      <trkpt lat="42.95731" lon="1.85027">
        <ele>673.0603027</ele>
        <time>2013-01-25T15:03:25Z</time>
      </trkpt>
      <trkpt lat="42.95734" lon="1.85039">
        <ele>672.098877</ele>
        <time>2013-01-25T15:03:31Z</time>
      </trkpt>
      <trkpt lat="42.95732" lon="1.85049">
        <ele>672.098877</ele>
        <time>2013-01-25T15:03:35Z</time>
      </trkpt>
      <trkpt lat="42.95731" lon="1.85051">
        <ele>672.098877</ele>
        <time>2013-01-25T15:03:36Z</time>
      </trkpt>
      <trkpt lat="42.95727" lon="1.85063">
        <ele>673.0603027</ele>
        <time>2013-01-25T15:03:41Z</time>
      </trkpt>
      <trkpt lat="42.95726" lon="1.85064">
        <ele>673.0603027</ele>
        <time>2013-01-25T15:03:42Z</time>
      </trkpt>
      <trkpt lat="42.95723" lon="1.85077">
        <ele>675.9440918</ele>
        <time>2013-01-25T15:03:47Z</time>
      </trkpt>
      <trkpt lat="42.95723" lon="1.85084">
        <ele>676.4248047</ele>
        <time>2013-01-25T15:03:49Z</time>
      </trkpt>
      <trkpt lat="42.9572" lon="1.85098">
        <ele>678.3474121</ele>
        <time>2013-01-25T15:03:54Z</time>
      </trkpt>
      <trkpt lat="42.95719" lon="1.85107">
        <ele>679.7893066</ele>
        <time>2013-01-25T15:03:58Z</time>
      </trkpt>
      <trkpt lat="42.95719" lon="1.85117">
        <ele>679.7893066</ele>
        <time>2013-01-25T15:04:03Z</time>
      </trkpt>
      <trkpt lat="42.95718" lon="1.85127">
        <ele>680.7507324</ele>
        <time>2013-01-25T15:04:08Z</time>
      </trkpt>
      <trkpt lat="42.95717" lon="1.85132">
        <ele>681.2314453</ele>
        <time>2013-01-25T15:04:10Z</time>
      </trkpt>
      <trkpt lat="42.95718" lon="1.85148">
        <ele>679.7893066</ele>
        <time>2013-01-25T15:04:15Z</time>
      </trkpt>
      <trkpt lat="42.95715" lon="1.85162">
        <ele>678.3474121</ele>
        <time>2013-01-25T15:04:20Z</time>
      </trkpt>
      <trkpt lat="42.95714" lon="1.85172">
        <ele>677.3862305</ele>
        <time>2013-01-25T15:04:24Z</time>
      </trkpt>
      <trkpt lat="42.95711" lon="1.85179">
        <ele>675.4633789</ele>
        <time>2013-01-25T15:04:28Z</time>
      </trkpt>
      <trkpt lat="42.9571" lon="1.85185">
        <ele>675.4633789</ele>
        <time>2013-01-25T15:04:31Z</time>
      </trkpt>
      <trkpt lat="42.9571" lon="1.852">
        <ele>677.3862305</ele>
        <time>2013-01-25T15:04:37Z</time>
      </trkpt>
      <trkpt lat="42.95709" lon="1.8521">
        <ele>676.9055176</ele>
        <time>2013-01-25T15:04:43Z</time>
      </trkpt>
      <trkpt lat="42.95707" lon="1.85215">
        <ele>675.9440918</ele>
        <time>2013-01-25T15:04:47Z</time>
      </trkpt>
      <trkpt lat="42.95707" lon="1.85225">
        <ele>675.4633789</ele>
        <time>2013-01-25T15:04:52Z</time>
      </trkpt>
      <trkpt lat="42.95708" lon="1.85236">
        <ele>674.0214844</ele>
        <time>2013-01-25T15:04:56Z</time>
      </trkpt>
      <trkpt lat="42.95706" lon="1.85237">
        <ele>672.098877</ele>
        <time>2013-01-25T15:04:59Z</time>
      </trkpt>
      <trkpt lat="42.95704" lon="1.85243">
        <ele>671.1376953</ele>
        <time>2013-01-25T15:05:03Z</time>
      </trkpt>
      <trkpt lat="42.95703" lon="1.85256">
        <ele>669.6958008</ele>
        <time>2013-01-25T15:05:11Z</time>
      </trkpt>
      <trkpt lat="42.95703" lon="1.85261">
        <ele>669.6958008</ele>
        <time>2013-01-25T15:05:15Z</time>
      </trkpt>
      <trkpt lat="42.95702" lon="1.85266">
        <ele>669.6958008</ele>
        <time>2013-01-25T15:05:19Z</time>
      </trkpt>
      <trkpt lat="42.95701" lon="1.85277">
        <ele>671.1376953</ele>
        <time>2013-01-25T15:05:25Z</time>
      </trkpt>
      <trkpt lat="42.95701" lon="1.85279">
        <ele>671.1376953</ele>
        <time>2013-01-25T15:05:26Z</time>
      </trkpt>
      <trkpt lat="42.95702" lon="1.8529">
        <ele>672.098877</ele>
        <time>2013-01-25T15:05:31Z</time>
      </trkpt>
      <trkpt lat="42.95701" lon="1.85297">
        <ele>672.098877</ele>
        <time>2013-01-25T15:05:34Z</time>
      </trkpt>
      <trkpt lat="42.95701" lon="1.85304">
        <ele>669.6958008</ele>
        <time>2013-01-25T15:05:39Z</time>
      </trkpt>
      <trkpt lat="42.95702" lon="1.85313">
        <ele>669.6958008</ele>
        <time>2013-01-25T15:05:44Z</time>
      </trkpt>
      <trkpt lat="42.95702" lon="1.85315">
        <ele>669.2150879</ele>
        <time>2013-01-25T15:05:45Z</time>
      </trkpt>
      <trkpt lat="42.95702" lon="1.85325">
        <ele>667.2922363</ele>
        <time>2013-01-25T15:05:50Z</time>
      </trkpt>
      <trkpt lat="42.957" lon="1.85338">
        <ele>666.8115234</ele>
        <time>2013-01-25T15:05:55Z</time>
      </trkpt>
      <trkpt lat="42.957" lon="1.85351">
        <ele>667.2922363</ele>
        <time>2013-01-25T15:05:59Z</time>
      </trkpt>
      <trkpt lat="42.957" lon="1.85363">
        <ele>666.8115234</ele>
        <time>2013-01-25T15:06:03Z</time>
      </trkpt>
      <trkpt lat="42.95702" lon="1.85379">
        <ele>665.3696289</ele>
        <time>2013-01-25T15:06:09Z</time>
      </trkpt>
      <trkpt lat="42.957" lon="1.85388">
        <ele>665.3696289</ele>
        <time>2013-01-25T15:06:12Z</time>
      </trkpt>
      <trkpt lat="42.95697" lon="1.85406">
        <ele>663.9274902</ele>
        <time>2013-01-25T15:06:18Z</time>
      </trkpt>
      <trkpt lat="42.95695" lon="1.85421">
        <ele>662.005127</ele>
        <time>2013-01-25T15:06:23Z</time>
      </trkpt>
      <trkpt lat="42.95696" lon="1.8543">
        <ele>660.0822754</ele>
        <time>2013-01-25T15:06:26Z</time>
      </trkpt>
      <trkpt lat="42.95698" lon="1.85437">
        <ele>659.1210938</ele>
        <time>2013-01-25T15:06:31Z</time>
      </trkpt>
      <trkpt lat="42.95702" lon="1.85445">
        <ele>659.6018066</ele>
        <time>2013-01-25T15:06:35Z</time>
      </trkpt>
      <trkpt lat="42.95702" lon="1.85449">
        <ele>659.6018066</ele>
        <time>2013-01-25T15:06:36Z</time>
      </trkpt>
      <trkpt lat="42.95702" lon="1.85465">
        <ele>658.6403809</ele>
        <time>2013-01-25T15:06:42Z</time>
      </trkpt>
      <trkpt lat="42.95702" lon="1.85474">
        <ele>657.1984863</ele>
        <time>2013-01-25T15:06:46Z</time>
      </trkpt>
      <trkpt lat="42.95701" lon="1.85479">
        <ele>656.7177734</ele>
        <time>2013-01-25T15:06:48Z</time>
      </trkpt>
      <trkpt lat="42.95702" lon="1.85486">
        <ele>655.7565918</ele>
        <time>2013-01-25T15:06:51Z</time>
      </trkpt>
      <trkpt lat="42.95701" lon="1.85498">
        <ele>654.3146973</ele>
        <time>2013-01-25T15:06:56Z</time>
      </trkpt>
      <trkpt lat="42.95702" lon="1.85501">
        <ele>653.8339844</ele>
        <time>2013-01-25T15:06:57Z</time>
      </trkpt>
      <trkpt lat="42.95703" lon="1.85514">
        <ele>651.9111328</ele>
        <time>2013-01-25T15:07:02Z</time>
      </trkpt>
      <trkpt lat="42.95701" lon="1.85523">
        <ele>650.4692383</ele>
        <time>2013-01-25T15:07:07Z</time>
      </trkpt>
      <trkpt lat="42.95701" lon="1.85531">
        <ele>648.065918</ele>
        <time>2013-01-25T15:07:14Z</time>
      </trkpt>
      <trkpt lat="42.957" lon="1.8554">
        <ele>647.5852051</ele>
        <time>2013-01-25T15:07:19Z</time>
      </trkpt>
      <trkpt lat="42.95699" lon="1.85549">
        <ele>647.1044922</ele>
        <time>2013-01-25T15:07:23Z</time>
      </trkpt>
      <trkpt lat="42.95698" lon="1.8556">
        <ele>646.6240234</ele>
        <time>2013-01-25T15:07:27Z</time>
      </trkpt>
      <trkpt lat="42.95697" lon="1.85566">
        <ele>646.1433105</ele>
        <time>2013-01-25T15:07:30Z</time>
      </trkpt>
      <trkpt lat="42.95697" lon="1.85581">
        <ele>645.1818848</ele>
        <time>2013-01-25T15:07:36Z</time>
      </trkpt>
      <trkpt lat="42.95696" lon="1.85587">
        <ele>644.7011719</ele>
        <time>2013-01-25T15:07:38Z</time>
      </trkpt>
      <trkpt lat="42.95699" lon="1.85598">
        <ele>643.7399902</ele>
        <time>2013-01-25T15:07:42Z</time>
      </trkpt>
      <trkpt lat="42.95699" lon="1.85604">
        <ele>642.7788086</ele>
        <time>2013-01-25T15:07:45Z</time>
      </trkpt>
      <trkpt lat="42.95695" lon="1.85615">
        <ele>641.3366699</ele>
        <time>2013-01-25T15:07:50Z</time>
      </trkpt>
      <trkpt lat="42.95695" lon="1.85618">
        <ele>640.855957</ele>
        <time>2013-01-25T15:07:52Z</time>
      </trkpt>
      <trkpt lat="42.95696" lon="1.85629">
        <ele>639.8947754</ele>
        <time>2013-01-25T15:07:57Z</time>
      </trkpt>
      <trkpt lat="42.95695" lon="1.85643">
        <ele>637.972168</ele>
        <time>2013-01-25T15:08:03Z</time>
      </trkpt>
      <trkpt lat="42.95694" lon="1.85645">
        <ele>637.972168</ele>
        <time>2013-01-25T15:08:04Z</time>
      </trkpt>
      <trkpt lat="42.95693" lon="1.85655">
        <ele>637.4914551</ele>
        <time>2013-01-25T15:08:10Z</time>
      </trkpt>
      <trkpt lat="42.95693" lon="1.85657">
        <ele>637.4914551</ele>
        <time>2013-01-25T15:08:11Z</time>
      </trkpt>
      <trkpt lat="42.95695" lon="1.85665">
        <ele>636.0495605</ele>
        <time>2013-01-25T15:08:16Z</time>
      </trkpt>
      <trkpt lat="42.95696" lon="1.85673">
        <ele>635.5686035</ele>
        <time>2013-01-25T15:08:20Z</time>
      </trkpt>
      <trkpt lat="42.95699" lon="1.85685">
        <ele>634.126709</ele>
        <time>2013-01-25T15:08:26Z</time>
      </trkpt>
      <trkpt lat="42.95699" lon="1.85686">
        <ele>633.6459961</ele>
        <time>2013-01-25T15:08:27Z</time>
      </trkpt>
      <trkpt lat="42.957" lon="1.85697">
        <ele>631.7233887</ele>
        <time>2013-01-25T15:08:33Z</time>
      </trkpt>
      <trkpt lat="42.95697" lon="1.85707">
        <ele>631.2429199</ele>
        <time>2013-01-25T15:08:37Z</time>
      </trkpt>
      <trkpt lat="42.95699" lon="1.85714">
        <ele>630.2814941</ele>
        <time>2013-01-25T15:08:41Z</time>
      </trkpt>
      <trkpt lat="42.95697" lon="1.85721">
        <ele>630.762207</ele>
        <time>2013-01-25T15:08:44Z</time>
      </trkpt>
      <trkpt lat="42.95692" lon="1.85734">
        <ele>629.8007813</ele>
        <time>2013-01-25T15:08:49Z</time>
      </trkpt>
      <trkpt lat="42.95687" lon="1.85744">
        <ele>629.3200684</ele>
        <time>2013-01-25T15:08:53Z</time>
      </trkpt>
      <trkpt lat="42.95687" lon="1.85745">
        <ele>628.8395996</ele>
        <time>2013-01-25T15:08:54Z</time>
      </trkpt>
      <trkpt lat="42.95687" lon="1.85753">
        <ele>628.3588867</ele>
        <time>2013-01-25T15:08:59Z</time>
      </trkpt>
      <trkpt lat="42.95688" lon="1.85762">
        <ele>626.9169922</ele>
        <time>2013-01-25T15:09:04Z</time>
      </trkpt>
      <trkpt lat="42.95689" lon="1.85768">
        <ele>624.9943848</ele>
        <time>2013-01-25T15:09:07Z</time>
      </trkpt>
      <trkpt lat="42.95689" lon="1.85774">
        <ele>623.0717773</ele>
        <time>2013-01-25T15:09:11Z</time>
      </trkpt>
      <trkpt lat="42.95694" lon="1.85787">
        <ele>622.1103516</ele>
        <time>2013-01-25T15:09:17Z</time>
      </trkpt>
      <trkpt lat="42.95694" lon="1.85799">
        <ele>617.3037109</ele>
        <time>2013-01-25T15:09:23Z</time>
      </trkpt>
      <trkpt lat="42.95696" lon="1.85814">
        <ele>612.9777832</ele>
        <time>2013-01-25T15:09:30Z</time>
      </trkpt>
      <trkpt lat="42.95697" lon="1.8582">
        <ele>612.4970703</ele>
        <time>2013-01-25T15:09:33Z</time>
      </trkpt>
      <trkpt lat="42.95698" lon="1.85822">
        <ele>612.4970703</ele>
        <time>2013-01-25T15:09:35Z</time>
      </trkpt>
      <trkpt lat="42.957" lon="1.85823">
        <ele>612.4970703</ele>
        <time>2013-01-25T15:09:37Z</time>
      </trkpt>
      <trkpt lat="42.95703" lon="1.85836">
        <ele>610.09375</ele>
        <time>2013-01-25T15:09:43Z</time>
      </trkpt>
      <trkpt lat="42.95704" lon="1.85849">
        <ele>607.6906738</ele>
        <time>2013-01-25T15:09:48Z</time>
      </trkpt>
      <trkpt lat="42.95702" lon="1.8586">
        <ele>605.2873535</ele>
        <time>2013-01-25T15:09:52Z</time>
      </trkpt>
      <trkpt lat="42.95697" lon="1.85871">
        <ele>602.8837891</ele>
        <time>2013-01-25T15:09:57Z</time>
      </trkpt>
      <trkpt lat="42.95695" lon="1.85879">
        <ele>600.9611816</ele>
        <time>2013-01-25T15:10:03Z</time>
      </trkpt>
      <trkpt lat="42.95696" lon="1.85886">
        <ele>600.9611816</ele>
        <time>2013-01-25T15:10:07Z</time>
      </trkpt>
      <trkpt lat="42.95695" lon="1.85891">
        <ele>600.4807129</ele>
        <time>2013-01-25T15:10:09Z</time>
      </trkpt>
      <trkpt lat="42.95694" lon="1.85895">
        <ele>600.4807129</ele>
        <time>2013-01-25T15:10:11Z</time>
      </trkpt>
      <trkpt lat="42.95697" lon="1.85905">
        <ele>598.5578613</ele>
        <time>2013-01-25T15:10:16Z</time>
      </trkpt>
      <trkpt lat="42.95703" lon="1.8591">
        <ele>598.0773926</ele>
        <time>2013-01-25T15:10:20Z</time>
      </trkpt>
      <trkpt lat="42.95706" lon="1.85912">
        <ele>597.1159668</ele>
        <time>2013-01-25T15:10:24Z</time>
      </trkpt>
      <trkpt lat="42.95708" lon="1.85912">
        <ele>597.1159668</ele>
        <time>2013-01-25T15:10:33Z</time>
      </trkpt>
      <trkpt lat="42.95711" lon="1.85914">
        <ele>592.7902832</ele>
        <time>2013-01-25T15:10:41Z</time>
      </trkpt>
      <trkpt lat="42.95716" lon="1.85919">
        <ele>591.3481445</ele>
        <time>2013-01-25T15:10:46Z</time>
      </trkpt>
      <trkpt lat="42.95719" lon="1.85925">
        <ele>590.8674316</ele>
        <time>2013-01-25T15:10:50Z</time>
      </trkpt>
      <trkpt lat="42.95723" lon="1.8593">
        <ele>590.3869629</ele>
        <time>2013-01-25T15:10:55Z</time>
      </trkpt>
      <trkpt lat="42.95728" lon="1.85936">
        <ele>589.4255371</ele>
        <time>2013-01-25T15:10:59Z</time>
      </trkpt>
      <trkpt lat="42.95733" lon="1.85944">
        <ele>588.4643555</ele>
        <time>2013-01-25T15:11:03Z</time>
      </trkpt>
      <trkpt lat="42.95732" lon="1.85952">
        <ele>587.0219727</ele>
        <time>2013-01-25T15:11:07Z</time>
      </trkpt>
      <trkpt lat="42.95734" lon="1.85961">
        <ele>584.6188965</ele>
        <time>2013-01-25T15:11:12Z</time>
      </trkpt>
      <trkpt lat="42.95735" lon="1.85975">
        <ele>582.6962891</ele>
        <time>2013-01-25T15:11:19Z</time>
      </trkpt>
      <trkpt lat="42.95736" lon="1.85978">
        <ele>581.2543945</ele>
        <time>2013-01-25T15:11:21Z</time>
      </trkpt>
      <trkpt lat="42.9574" lon="1.85984">
        <ele>578.3703613</ele>
        <time>2013-01-25T15:11:26Z</time>
      </trkpt>
      <trkpt lat="42.95742" lon="1.85985">
        <ele>576.4477539</ele>
        <time>2013-01-25T15:11:29Z</time>
      </trkpt>
      <trkpt lat="42.95744" lon="1.85984">
        <ele>575.4863281</ele>
        <time>2013-01-25T15:11:31Z</time>
      </trkpt>
      <trkpt lat="42.95747" lon="1.85987">
        <ele>573.083252</ele>
        <time>2013-01-25T15:11:36Z</time>
      </trkpt>
      <trkpt lat="42.95748" lon="1.8599">
        <ele>570.1989746</ele>
        <time>2013-01-25T15:11:40Z</time>
      </trkpt>
      <trkpt lat="42.95751" lon="1.85994">
        <ele>567.7956543</ele>
        <time>2013-01-25T15:11:44Z</time>
      </trkpt>
      <trkpt lat="42.95753" lon="1.86">
        <ele>566.3537598</ele>
        <time>2013-01-25T15:11:49Z</time>
      </trkpt>
      <trkpt lat="42.95755" lon="1.86011">
        <ele>564.4311523</ele>
        <time>2013-01-25T15:11:54Z</time>
      </trkpt>
      <trkpt lat="42.95755" lon="1.86013">
        <ele>563.9504395</ele>
        <time>2013-01-25T15:11:55Z</time>
      </trkpt>
      <trkpt lat="42.95757" lon="1.86016">
        <ele>563.4699707</ele>
        <time>2013-01-25T15:12:01Z</time>
      </trkpt>
      <trkpt lat="42.9576" lon="1.86017">
        <ele>562.5085449</ele>
        <time>2013-01-25T15:12:06Z</time>
      </trkpt>
      <trkpt lat="42.9576" lon="1.86017">
        <ele>562.0280762</ele>
        <time>2013-01-25T15:12:11Z</time>
      </trkpt>
      <trkpt lat="42.95762" lon="1.86021">
        <ele>559.6247559</ele>
        <time>2013-01-25T15:12:19Z</time>
      </trkpt>
      <trkpt lat="42.95763" lon="1.86026">
        <ele>558.6633301</ele>
        <time>2013-01-25T15:12:24Z</time>
      </trkpt>
      <trkpt lat="42.95764" lon="1.86028">
        <ele>558.1828613</ele>
        <time>2013-01-25T15:12:28Z</time>
      </trkpt>
      <trkpt lat="42.95766" lon="1.86031">
        <ele>557.7021484</ele>
        <time>2013-01-25T15:12:37Z</time>
      </trkpt>
      <trkpt lat="42.95766" lon="1.86034">
        <ele>555.7792969</ele>
        <time>2013-01-25T15:12:43Z</time>
      </trkpt>
      <trkpt lat="42.95767" lon="1.86037">
        <ele>554.8178711</ele>
        <time>2013-01-25T15:12:49Z</time>
      </trkpt>
      <trkpt lat="42.95768" lon="1.86039">
        <ele>552.8952637</ele>
        <time>2013-01-25T15:12:54Z</time>
      </trkpt>
      <trkpt lat="42.95769" lon="1.86042">
        <ele>550.0114746</ele>
        <time>2013-01-25T15:12:58Z</time>
      </trkpt>
      <trkpt lat="42.95771" lon="1.86046">
        <ele>548.0888672</ele>
        <time>2013-01-25T15:13:03Z</time>
      </trkpt>
      <trkpt lat="42.95772" lon="1.86049">
        <ele>547.6081543</ele>
        <time>2013-01-25T15:13:08Z</time>
      </trkpt>
      <trkpt lat="42.95773" lon="1.86052">
        <ele>547.1274414</ele>
        <time>2013-01-25T15:13:14Z</time>
      </trkpt>
      <trkpt lat="42.95775" lon="1.86053">
        <ele>547.1274414</ele>
        <time>2013-01-25T15:13:18Z</time>
      </trkpt>
      <trkpt lat="42.95778" lon="1.86056">
        <ele>545.6855469</ele>
        <time>2013-01-25T15:13:23Z</time>
      </trkpt>
      <trkpt lat="42.95778" lon="1.86056">
        <ele>546.6468506</ele>
        <time>2013-01-25T15:13:29Z</time>
      </trkpt>
      <trkpt lat="42.95779" lon="1.86056">
        <ele>545.204834</ele>
        <time>2013-01-25T15:13:34Z</time>
      </trkpt>
      <trkpt lat="42.9578" lon="1.8606">
        <ele>543.2821045</ele>
        <time>2013-01-25T15:13:41Z</time>
      </trkpt>
      <trkpt lat="42.9578" lon="1.86062">
        <ele>541.84021</ele>
        <time>2013-01-25T15:13:47Z</time>
      </trkpt>
      <trkpt lat="42.9578" lon="1.86062">
        <ele>541.84021</ele>
        <time>2013-01-25T15:13:48Z</time>
      </trkpt>
      <trkpt lat="42.95783" lon="1.86065">
        <ele>540.8789063</ele>
        <time>2013-01-25T15:13:54Z</time>
      </trkpt>
      <trkpt lat="42.95785" lon="1.86069">
        <ele>538.9562988</ele>
        <time>2013-01-25T15:13:59Z</time>
      </trkpt>
      <trkpt lat="42.95787" lon="1.86072">
        <ele>536.0723877</ele>
        <time>2013-01-25T15:14:05Z</time>
      </trkpt>
      <trkpt lat="42.95789" lon="1.86072">
        <ele>534.1496582</ele>
        <time>2013-01-25T15:14:10Z</time>
      </trkpt>
      <trkpt lat="42.95791" lon="1.86072">
        <ele>533.1883545</ele>
        <time>2013-01-25T15:14:13Z</time>
      </trkpt>
      <trkpt lat="42.95792" lon="1.86075">
        <ele>531.2657471</ele>
        <time>2013-01-25T15:14:18Z</time>
      </trkpt>
      <trkpt lat="42.95793" lon="1.86076">
        <ele>530.7851563</ele>
        <time>2013-01-25T15:14:25Z</time>
      </trkpt>
      <trkpt lat="42.95795" lon="1.86079">
        <ele>529.3431396</ele>
        <time>2013-01-25T15:14:29Z</time>
      </trkpt>
      <trkpt lat="42.95798" lon="1.86082">
        <ele>525.4978027</ele>
        <time>2013-01-25T15:14:35Z</time>
      </trkpt>
      <trkpt lat="42.95802" lon="1.86083">
        <ele>524.0557861</ele>
        <time>2013-01-25T15:14:42Z</time>
      </trkpt>
      <trkpt lat="42.95805" lon="1.86084">
        <ele>522.1331787</ele>
        <time>2013-01-25T15:14:49Z</time>
      </trkpt>
      <trkpt lat="42.95806" lon="1.86086">
        <ele>520.2105713</ele>
        <time>2013-01-25T15:14:53Z</time>
      </trkpt>
      <trkpt lat="42.95811" lon="1.86088">
        <ele>518.2878418</ele>
        <time>2013-01-25T15:15:00Z</time>
      </trkpt>
      <trkpt lat="42.95811" lon="1.86089">
        <ele>518.2878418</ele>
        <time>2013-01-25T15:15:06Z</time>
      </trkpt>
      <trkpt lat="42.95812" lon="1.86089">
        <ele>518.7685547</ele>
        <time>2013-01-25T15:15:12Z</time>
      </trkpt>
      <trkpt lat="42.95818" lon="1.86086">
        <ele>518.7685547</ele>
        <time>2013-01-25T15:15:19Z</time>
      </trkpt>
      <trkpt lat="42.95817" lon="1.86084">
        <ele>519.2492676</ele>
        <time>2013-01-25T15:15:26Z</time>
      </trkpt>
      <trkpt lat="42.95819" lon="1.86082">
        <ele>518.7685547</ele>
        <time>2013-01-25T15:15:32Z</time>
      </trkpt>
      <trkpt lat="42.95823" lon="1.86086">
        <ele>516.8459473</ele>
        <time>2013-01-25T15:15:38Z</time>
      </trkpt>
      <trkpt lat="42.95823" lon="1.86088">
        <ele>516.8459473</ele>
        <time>2013-01-25T15:15:39Z</time>
      </trkpt>
      <trkpt lat="42.95825" lon="1.86093">
        <ele>518.2878418</ele>
        <time>2013-01-25T15:15:49Z</time>
      </trkpt>
      <trkpt lat="42.95827" lon="1.86096">
        <ele>517.807251</ele>
        <time>2013-01-25T15:15:51Z</time>
      </trkpt>
      <trkpt lat="42.95829" lon="1.86099">
        <ele>517.3266602</ele>
        <time>2013-01-25T15:15:57Z</time>
      </trkpt>
      <trkpt lat="42.9583" lon="1.86101">
        <ele>516.8459473</ele>
        <time>2013-01-25T15:16:00Z</time>
      </trkpt>
      <trkpt lat="42.95831" lon="1.86104">
        <ele>515.8846436</ele>
        <time>2013-01-25T15:16:06Z</time>
      </trkpt>
      <trkpt lat="42.95831" lon="1.86105">
        <ele>514.442627</ele>
        <time>2013-01-25T15:16:11Z</time>
      </trkpt>
      <trkpt lat="42.95835" lon="1.86114">
        <ele>511.5587158</ele>
        <time>2013-01-25T15:16:16Z</time>
      </trkpt>
      <trkpt lat="42.95835" lon="1.86129">
        <ele>507.2327881</ele>
        <time>2013-01-25T15:16:22Z</time>
      </trkpt>
      <trkpt lat="42.95832" lon="1.86144">
        <ele>502.9067383</ele>
        <time>2013-01-25T15:16:28Z</time>
      </trkpt>
      <trkpt lat="42.95831" lon="1.86158">
        <ele>499.0615234</ele>
        <time>2013-01-25T15:16:34Z</time>
      </trkpt>
      <trkpt lat="42.95828" lon="1.8617">
        <ele>495.6968994</ele>
        <time>2013-01-25T15:16:38Z</time>
      </trkpt>
      <trkpt lat="42.95825" lon="1.86184">
        <ele>492.3323975</ele>
        <time>2013-01-25T15:16:43Z</time>
      </trkpt>
      <trkpt lat="42.95825" lon="1.86188">
        <ele>490.8903809</ele>
        <time>2013-01-25T15:16:45Z</time>
      </trkpt>
      <trkpt lat="42.95825" lon="1.86201">
        <ele>491.3709717</ele>
        <time>2013-01-25T15:16:49Z</time>
      </trkpt>
      <trkpt lat="42.95824" lon="1.86213">
        <ele>490.40979</ele>
        <time>2013-01-25T15:16:53Z</time>
      </trkpt>
      <trkpt lat="42.95824" lon="1.86218">
        <ele>489.4483643</ele>
        <time>2013-01-25T15:16:55Z</time>
      </trkpt>
      <trkpt lat="42.95818" lon="1.86235">
        <ele>482.7192383</ele>
        <time>2013-01-25T15:17:03Z</time>
      </trkpt>
      <trkpt lat="42.95815" lon="1.86251">
        <ele>480.7966309</ele>
        <time>2013-01-25T15:17:08Z</time>
      </trkpt>
      <trkpt lat="42.9581" lon="1.86265">
        <ele>477.9124756</ele>
        <time>2013-01-25T15:17:13Z</time>
      </trkpt>
      <trkpt lat="42.95807" lon="1.86274">
        <ele>475.9898682</ele>
        <time>2013-01-25T15:17:16Z</time>
      </trkpt>
      <trkpt lat="42.95804" lon="1.86282">
        <ele>475.0286865</ele>
        <time>2013-01-25T15:17:19Z</time>
      </trkpt>
      <trkpt lat="42.95798" lon="1.86297">
        <ele>474.0672607</ele>
        <time>2013-01-25T15:17:24Z</time>
      </trkpt>
      <trkpt lat="42.95798" lon="1.86299">
        <ele>473.5866699</ele>
        <time>2013-01-25T15:17:25Z</time>
      </trkpt>
      <trkpt lat="42.95793" lon="1.86308">
        <ele>473.1060791</ele>
        <time>2013-01-25T15:17:30Z</time>
      </trkpt>
      <trkpt lat="42.95791" lon="1.8631">
        <ele>472.6253662</ele>
        <time>2013-01-25T15:17:35Z</time>
      </trkpt>
      <trkpt lat="42.9579" lon="1.8631">
        <ele>472.6253662</ele>
        <time>2013-01-25T15:17:36Z</time>
      </trkpt>
      <trkpt lat="42.9578" lon="1.86311">
        <ele>472.6253662</ele>
        <time>2013-01-25T15:17:41Z</time>
      </trkpt>
      <trkpt lat="42.9577" lon="1.86308">
        <ele>472.6253662</ele>
        <time>2013-01-25T15:17:45Z</time>
      </trkpt>
      <trkpt lat="42.95762" lon="1.86304">
        <ele>473.1060791</ele>
        <time>2013-01-25T15:17:48Z</time>
      </trkpt>
      <trkpt lat="42.95749" lon="1.86297">
        <ele>473.5866699</ele>
        <time>2013-01-25T15:17:53Z</time>
      </trkpt>
      <trkpt lat="42.95732" lon="1.8629">
        <ele>473.5866699</ele>
        <time>2013-01-25T15:17:59Z</time>
      </trkpt>
      <trkpt lat="42.95719" lon="1.8628">
        <ele>474.5479736</ele>
        <time>2013-01-25T15:18:04Z</time>
      </trkpt>
      <trkpt lat="42.95711" lon="1.86276">
        <ele>474.5479736</ele>
        <time>2013-01-25T15:18:07Z</time>
      </trkpt>
      <trkpt lat="42.95702" lon="1.86265">
        <ele>475.5092773</ele>
        <time>2013-01-25T15:18:11Z</time>
      </trkpt>
      <trkpt lat="42.95694" lon="1.86258">
        <ele>476.4705811</ele>
        <time>2013-01-25T15:18:14Z</time>
      </trkpt>
      <trkpt lat="42.9569" lon="1.86252">
        <ele>476.4705811</ele>
        <time>2013-01-25T15:18:16Z</time>
      </trkpt>
      <trkpt lat="42.95681" lon="1.86241">
        <ele>476.9512939</ele>
        <time>2013-01-25T15:18:20Z</time>
      </trkpt>
      <trkpt lat="42.95672" lon="1.86225">
        <ele>477.4318848</ele>
        <time>2013-01-25T15:18:25Z</time>
      </trkpt>
      <trkpt lat="42.95671" lon="1.8622">
        <ele>476.9512939</ele>
        <time>2013-01-25T15:18:26Z</time>
      </trkpt>
      <trkpt lat="42.95662" lon="1.86204">
        <ele>476.4705811</ele>
        <time>2013-01-25T15:18:31Z</time>
      </trkpt>
      <trkpt lat="42.95656" lon="1.86191">
        <ele>475.9898682</ele>
        <time>2013-01-25T15:18:35Z</time>
      </trkpt>
      <trkpt lat="42.95649" lon="1.86174">
        <ele>474.5479736</ele>
        <time>2013-01-25T15:18:40Z</time>
      </trkpt>
      <trkpt lat="42.95641" lon="1.8616">
        <ele>474.0672607</ele>
        <time>2013-01-25T15:18:45Z</time>
      </trkpt>
      <trkpt lat="42.95638" lon="1.86155">
        <ele>474.0672607</ele>
        <time>2013-01-25T15:18:48Z</time>
      </trkpt>
      <trkpt lat="42.95624" lon="1.86163">
        <ele>473.5866699</ele>
        <time>2013-01-25T15:18:54Z</time>
      </trkpt>
      <trkpt lat="42.95611" lon="1.86173">
        <ele>474.5479736</ele>
        <time>2013-01-25T15:19:00Z</time>
      </trkpt>
      <trkpt lat="42.95609" lon="1.86174">
        <ele>476.4705811</ele>
        <time>2013-01-25T15:19:05Z</time>
      </trkpt>
      <trkpt lat="42.9561" lon="1.86173">
        <ele>477.4318848</ele>
        <time>2013-01-25T15:19:12Z</time>
      </trkpt>
      <trkpt lat="42.95612" lon="1.86175">
        <ele>475.9898682</ele>
        <time>2013-01-25T15:19:17Z</time>
      </trkpt>
      <trkpt lat="42.95611" lon="1.86175">
        <ele>475.0286865</ele>
        <time>2013-01-25T15:19:23Z</time>
      </trkpt>
      <trkpt lat="42.95604" lon="1.86177">
        <ele>475.5092773</ele>
        <time>2013-01-25T15:19:27Z</time>
      </trkpt>
      <trkpt lat="42.95604" lon="1.86177">
        <ele>474.5479736</ele>
        <time>2013-01-25T15:19:29Z</time>
      </trkpt>
      <trkpt lat="42.95594" lon="1.86173">
        <ele>474.0672607</ele>
        <time>2013-01-25T15:19:34Z</time>
      </trkpt>
      <trkpt lat="42.9559" lon="1.86169">
        <ele>474.0672607</ele>
        <time>2013-01-25T15:19:36Z</time>
      </trkpt>
      <trkpt lat="42.95585" lon="1.86162">
        <ele>474.5479736</ele>
        <time>2013-01-25T15:19:39Z</time>
      </trkpt>
      <trkpt lat="42.95571" lon="1.86161">
        <ele>475.0286865</ele>
        <time>2013-01-25T15:19:45Z</time>
      </trkpt>
      <trkpt lat="42.95557" lon="1.86166">
        <ele>475.9898682</ele>
        <time>2013-01-25T15:19:51Z</time>
      </trkpt>
      <trkpt lat="42.95543" lon="1.86174">
        <ele>477.4318848</ele>
        <time>2013-01-25T15:19:57Z</time>
      </trkpt>
      <trkpt lat="42.95532" lon="1.86179">
        <ele>477.9124756</ele>
        <time>2013-01-25T15:20:02Z</time>
      </trkpt>
      <trkpt lat="42.9553" lon="1.86179">
        <ele>477.9124756</ele>
        <time>2013-01-25T15:20:03Z</time>
      </trkpt>
      <trkpt lat="42.9553" lon="1.86178">
        <ele>477.4318848</ele>
        <time>2013-01-25T15:20:09Z</time>
      </trkpt>
      <trkpt lat="42.95529" lon="1.86178">
        <ele>476.4705811</ele>
        <time>2013-01-25T15:20:12Z</time>
      </trkpt>
      <trkpt lat="42.95525" lon="1.86182">
        <ele>476.4705811</ele>
        <time>2013-01-25T15:20:15Z</time>
      </trkpt>
      <trkpt lat="42.95514" lon="1.86193">
        <ele>475.9898682</ele>
        <time>2013-01-25T15:20:21Z</time>
      </trkpt>
      <trkpt lat="42.95505" lon="1.86204">
        <ele>476.9512939</ele>
        <time>2013-01-25T15:20:26Z</time>
      </trkpt>
      <trkpt lat="42.955" lon="1.8621">
        <ele>477.4318848</ele>
        <time>2013-01-25T15:20:30Z</time>
      </trkpt>
      <trkpt lat="42.95499" lon="1.86213">
        <ele>477.4318848</ele>
        <time>2013-01-25T15:20:39Z</time>
      </trkpt>
      <trkpt lat="42.95488" lon="1.86228">
        <ele>477.4318848</ele>
        <time>2013-01-25T15:20:46Z</time>
      </trkpt>
      <trkpt lat="42.95479" lon="1.86239">
        <ele>477.4318848</ele>
        <time>2013-01-25T15:20:51Z</time>
      </trkpt>
      <trkpt lat="42.95477" lon="1.86243">
        <ele>477.4318848</ele>
        <time>2013-01-25T15:20:53Z</time>
      </trkpt>
      <trkpt lat="42.95471" lon="1.86252">
        <ele>478.3931885</ele>
        <time>2013-01-25T15:20:57Z</time>
      </trkpt>
      <trkpt lat="42.95466" lon="1.8626">
        <ele>479.3544922</ele>
        <time>2013-01-25T15:21:05Z</time>
      </trkpt>
      <trkpt lat="42.95467" lon="1.86263">
        <ele>478.8739014</ele>
        <time>2013-01-25T15:21:10Z</time>
      </trkpt>
      <trkpt lat="42.95468" lon="1.86263">
        <ele>478.8739014</ele>
        <time>2013-01-25T15:21:11Z</time>
      </trkpt>
      <trkpt lat="42.95478" lon="1.86266">
        <ele>478.8739014</ele>
        <time>2013-01-25T15:21:16Z</time>
      </trkpt>
      <trkpt lat="42.95486" lon="1.86273">
        <ele>479.835083</ele>
        <time>2013-01-25T15:21:21Z</time>
      </trkpt>
      <trkpt lat="42.95488" lon="1.86275">
        <ele>479.835083</ele>
        <time>2013-01-25T15:21:22Z</time>
      </trkpt>
      <trkpt lat="42.95502" lon="1.86291">
        <ele>482.2385254</ele>
        <time>2013-01-25T15:21:29Z</time>
      </trkpt>
      <trkpt lat="42.95513" lon="1.86303">
        <ele>483.6804199</ele>
        <time>2013-01-25T15:21:34Z</time>
      </trkpt>
      <trkpt lat="42.95527" lon="1.86319">
        <ele>485.1224365</ele>
        <time>2013-01-25T15:21:40Z</time>
      </trkpt>
      <trkpt lat="42.95537" lon="1.86333">
        <ele>484.1611328</ele>
        <time>2013-01-25T15:21:45Z</time>
      </trkpt>
      <trkpt lat="42.95553" lon="1.86352">
        <ele>484.1611328</ele>
        <time>2013-01-25T15:21:52Z</time>
      </trkpt>
      <trkpt lat="42.95562" lon="1.86369">
        <ele>481.7578125</ele>
        <time>2013-01-25T15:21:58Z</time>
      </trkpt>
      <trkpt lat="42.95568" lon="1.86378">
        <ele>480.7966309</ele>
        <time>2013-01-25T15:22:02Z</time>
      </trkpt>
      <trkpt lat="42.95578" lon="1.86386">
        <ele>479.3544922</ele>
        <time>2013-01-25T15:22:07Z</time>
      </trkpt>
      <trkpt lat="42.95592" lon="1.86388">
        <ele>477.4318848</ele>
        <time>2013-01-25T15:22:13Z</time>
      </trkpt>
      <trkpt lat="42.95607" lon="1.86392">
        <ele>476.4705811</ele>
        <time>2013-01-25T15:22:19Z</time>
      </trkpt>
      <trkpt lat="42.95617" lon="1.86396">
        <ele>475.9898682</ele>
        <time>2013-01-25T15:22:23Z</time>
      </trkpt>
      <trkpt lat="42.95622" lon="1.86398">
        <ele>475.5092773</ele>
        <time>2013-01-25T15:22:27Z</time>
      </trkpt>
      <trkpt lat="42.95636" lon="1.86411">
        <ele>475.5092773</ele>
        <time>2013-01-25T15:22:33Z</time>
      </trkpt>
      <trkpt lat="42.95646" lon="1.86423">
        <ele>475.5092773</ele>
        <time>2013-01-25T15:22:38Z</time>
      </trkpt>
      <trkpt lat="42.95648" lon="1.86425">
        <ele>475.9898682</ele>
        <time>2013-01-25T15:22:39Z</time>
      </trkpt>
      <trkpt lat="42.95652" lon="1.86442">
        <ele>475.9898682</ele>
        <time>2013-01-25T15:22:44Z</time>
      </trkpt>
      <trkpt lat="42.95652" lon="1.86445">
        <ele>475.9898682</ele>
        <time>2013-01-25T15:22:48Z</time>
      </trkpt>
      <trkpt lat="42.95653" lon="1.86456">
        <ele>475.0286865</ele>
        <time>2013-01-25T15:22:52Z</time>
      </trkpt>
      <trkpt lat="42.95653" lon="1.86473">
        <ele>475.9898682</ele>
        <time>2013-01-25T15:22:57Z</time>
      </trkpt>
      <trkpt lat="42.95656" lon="1.86483">
        <ele>477.4318848</ele>
        <time>2013-01-25T15:23:00Z</time>
      </trkpt>
      <trkpt lat="42.95662" lon="1.86494">
        <ele>478.3931885</ele>
        <time>2013-01-25T15:23:05Z</time>
      </trkpt>
      <trkpt lat="42.9567" lon="1.86503">
        <ele>478.8739014</ele>
        <time>2013-01-25T15:23:09Z</time>
      </trkpt>
      <trkpt lat="42.95673" lon="1.86508">
        <ele>478.8739014</ele>
        <time>2013-01-25T15:23:11Z</time>
      </trkpt>
      <trkpt lat="42.9568" lon="1.86521">
        <ele>478.8739014</ele>
        <time>2013-01-25T15:23:16Z</time>
      </trkpt>
      <trkpt lat="42.95689" lon="1.86532">
        <ele>481.2772217</ele>
        <time>2013-01-25T15:23:21Z</time>
      </trkpt>
      <trkpt lat="42.9569" lon="1.86537">
        <ele>481.2772217</ele>
        <time>2013-01-25T15:23:26Z</time>
      </trkpt>
      <trkpt lat="42.95696" lon="1.8654">
        <ele>481.7578125</ele>
        <time>2013-01-25T15:23:30Z</time>
      </trkpt>
      <trkpt lat="42.95707" lon="1.86552">
        <ele>482.7192383</ele>
        <time>2013-01-25T15:23:37Z</time>
      </trkpt>
      <trkpt lat="42.95717" lon="1.8656">
        <ele>484.6418457</ele>
        <time>2013-01-25T15:23:42Z</time>
      </trkpt>
      <trkpt lat="42.95727" lon="1.86571">
        <ele>482.2385254</ele>
        <time>2013-01-25T15:23:47Z</time>
      </trkpt>
      <trkpt lat="42.95736" lon="1.86582">
        <ele>481.7578125</ele>
        <time>2013-01-25T15:23:52Z</time>
      </trkpt>
      <trkpt lat="42.95744" lon="1.86591">
        <ele>481.2772217</ele>
        <time>2013-01-25T15:23:56Z</time>
      </trkpt>
      <trkpt lat="42.95747" lon="1.86594">
        <ele>481.2772217</ele>
        <time>2013-01-25T15:23:58Z</time>
      </trkpt>
      <trkpt lat="42.95755" lon="1.86587">
        <ele>478.3931885</ele>
        <time>2013-01-25T15:24:03Z</time>
      </trkpt>
      <trkpt lat="42.95764" lon="1.86577">
        <ele>475.9898682</ele>
        <time>2013-01-25T15:24:08Z</time>
      </trkpt>
      <trkpt lat="42.95774" lon="1.86578">
        <ele>474.0672607</ele>
        <time>2013-01-25T15:24:12Z</time>
      </trkpt>
      <trkpt lat="42.95776" lon="1.8658">
        <ele>473.5866699</ele>
        <time>2013-01-25T15:24:13Z</time>
      </trkpt>
      <trkpt lat="42.95792" lon="1.86591">
        <ele>472.1446533</ele>
        <time>2013-01-25T15:24:20Z</time>
      </trkpt>
      <trkpt lat="42.9581" lon="1.86599">
        <ele>470.7026367</ele>
        <time>2013-01-25T15:24:27Z</time>
      </trkpt>
      <trkpt lat="42.95831" lon="1.86611">
        <ele>470.7026367</ele>
        <time>2013-01-25T15:24:35Z</time>
      </trkpt>
      <trkpt lat="42.95844" lon="1.86617">
        <ele>470.7026367</ele>
        <time>2013-01-25T15:24:40Z</time>
      </trkpt>
      <trkpt lat="42.95854" lon="1.86622">
        <ele>470.7026367</ele>
        <time>2013-01-25T15:24:44Z</time>
      </trkpt>
      <trkpt lat="42.95866" lon="1.8663">
        <ele>471.6639404</ele>
        <time>2013-01-25T15:24:49Z</time>
      </trkpt>
      <trkpt lat="42.95878" lon="1.86637">
        <ele>471.1833496</ele>
        <time>2013-01-25T15:24:54Z</time>
      </trkpt>
      <trkpt lat="42.95894" lon="1.86651">
        <ele>471.1833496</ele>
        <time>2013-01-25T15:25:00Z</time>
      </trkpt>
      <trkpt lat="42.95903" lon="1.86666">
        <ele>471.6639404</ele>
        <time>2013-01-25T15:25:05Z</time>
      </trkpt>
      <trkpt lat="42.95906" lon="1.86673">
        <ele>471.6639404</ele>
        <time>2013-01-25T15:25:07Z</time>
      </trkpt>
      <trkpt lat="42.95916" lon="1.867">
        <ele>471.6639404</ele>
        <time>2013-01-25T15:25:15Z</time>
      </trkpt>
      <trkpt lat="42.95921" lon="1.86722">
        <ele>471.1833496</ele>
        <time>2013-01-25T15:25:21Z</time>
      </trkpt>
      <trkpt lat="42.95928" lon="1.86741">
        <ele>470.7026367</ele>
        <time>2013-01-25T15:25:26Z</time>
      </trkpt>
      <trkpt lat="42.95933" lon="1.86758">
        <ele>471.1833496</ele>
        <time>2013-01-25T15:25:31Z</time>
      </trkpt>
      <trkpt lat="42.95936" lon="1.8677">
        <ele>471.1833496</ele>
        <time>2013-01-25T15:25:35Z</time>
      </trkpt>
      <trkpt lat="42.95946" lon="1.86786">
        <ele>472.6253662</ele>
        <time>2013-01-25T15:25:41Z</time>
      </trkpt>
      <trkpt lat="42.95957" lon="1.86799">
        <ele>471.1833496</ele>
        <time>2013-01-25T15:25:46Z</time>
      </trkpt>
      <trkpt lat="42.95959" lon="1.86801">
        <ele>471.1833496</ele>
        <time>2013-01-25T15:25:47Z</time>
      </trkpt>
      <trkpt lat="42.95969" lon="1.86808">
        <ele>470.2219238</ele>
        <time>2013-01-25T15:25:52Z</time>
      </trkpt>
      <trkpt lat="42.95979" lon="1.86808">
        <ele>469.741333</ele>
        <time>2013-01-25T15:25:56Z</time>
      </trkpt>
      <trkpt lat="42.95993" lon="1.86814">
        <ele>468.7800293</ele>
        <time>2013-01-25T15:26:01Z</time>
      </trkpt>
      <trkpt lat="42.95996" lon="1.86814">
        <ele>469.2607422</ele>
        <time>2013-01-25T15:26:02Z</time>
      </trkpt>
      <trkpt lat="42.96012" lon="1.86814">
        <ele>470.2219238</ele>
        <time>2013-01-25T15:26:08Z</time>
      </trkpt>
      <trkpt lat="42.96026" lon="1.86822">
        <ele>471.1833496</ele>
        <time>2013-01-25T15:26:13Z</time>
      </trkpt>
      <trkpt lat="42.96041" lon="1.86826">
        <ele>474.0672607</ele>
        <time>2013-01-25T15:26:18Z</time>
      </trkpt>
      <trkpt lat="42.96058" lon="1.86829">
        <ele>472.1446533</ele>
        <time>2013-01-25T15:26:24Z</time>
      </trkpt>
      <trkpt lat="42.96071" lon="1.86833">
        <ele>471.6639404</ele>
        <time>2013-01-25T15:26:29Z</time>
      </trkpt>
      <trkpt lat="42.96084" lon="1.86835">
        <ele>471.1833496</ele>
        <time>2013-01-25T15:26:34Z</time>
      </trkpt>
      <trkpt lat="42.96097" lon="1.86843">
        <ele>469.2607422</ele>
        <time>2013-01-25T15:26:39Z</time>
      </trkpt>
      <trkpt lat="42.96111" lon="1.86853">
        <ele>465.8961182</ele>
        <time>2013-01-25T15:26:45Z</time>
      </trkpt>
      <trkpt lat="42.96121" lon="1.86859">
        <ele>463.4927979</ele>
        <time>2013-01-25T15:26:49Z</time>
      </trkpt>
      <trkpt lat="42.96136" lon="1.86868">
        <ele>463.9733887</ele>
        <time>2013-01-25T15:26:55Z</time>
      </trkpt>
      <trkpt lat="42.96153" lon="1.86876">
        <ele>461.5701904</ele>
        <time>2013-01-25T15:27:01Z</time>
      </trkpt>
      <trkpt lat="42.96164" lon="1.86883">
        <ele>460.6087646</ele>
        <time>2013-01-25T15:27:06Z</time>
      </trkpt>
      <trkpt lat="42.96172" lon="1.86887">
        <ele>461.0894775</ele>
        <time>2013-01-25T15:27:09Z</time>
      </trkpt>
      <trkpt lat="42.96184" lon="1.86894">
        <ele>461.5701904</ele>
        <time>2013-01-25T15:27:14Z</time>
      </trkpt>
      <trkpt lat="42.962" lon="1.869">
        <ele>461.0894775</ele>
        <time>2013-01-25T15:27:20Z</time>
      </trkpt>
      <trkpt lat="42.96214" lon="1.869">
        <ele>461.0894775</ele>
        <time>2013-01-25T15:27:25Z</time>
      </trkpt>
      <trkpt lat="42.96225" lon="1.86902">
        <ele>460.6087646</ele>
        <time>2013-01-25T15:27:30Z</time>
      </trkpt>
      <trkpt lat="42.96239" lon="1.86901">
        <ele>460.1281738</ele>
        <time>2013-01-25T15:27:35Z</time>
      </trkpt>
      <trkpt lat="42.96257" lon="1.86906">
        <ele>461.0894775</ele>
        <time>2013-01-25T15:27:41Z</time>
      </trkpt>
      <trkpt lat="42.96275" lon="1.8691">
        <ele>462.0507813</ele>
        <time>2013-01-25T15:27:47Z</time>
      </trkpt>
      <trkpt lat="42.9629" lon="1.86914">
        <ele>462.0507813</ele>
        <time>2013-01-25T15:27:52Z</time>
      </trkpt>
      <trkpt lat="42.96306" lon="1.86921">
        <ele>461.0894775</ele>
        <time>2013-01-25T15:27:58Z</time>
      </trkpt>
      <trkpt lat="42.96321" lon="1.8693">
        <ele>461.0894775</ele>
        <time>2013-01-25T15:28:04Z</time>
      </trkpt>
      <trkpt lat="42.96334" lon="1.86938">
        <ele>460.6087646</ele>
        <time>2013-01-25T15:28:09Z</time>
      </trkpt>
      <trkpt lat="42.96349" lon="1.8695">
        <ele>460.1281738</ele>
        <time>2013-01-25T15:28:15Z</time>
      </trkpt>
      <trkpt lat="42.96364" lon="1.86962">
        <ele>461.5701904</ele>
        <time>2013-01-25T15:28:21Z</time>
      </trkpt>
      <trkpt lat="42.96377" lon="1.86978">
        <ele>462.0507813</ele>
        <time>2013-01-25T15:28:27Z</time>
      </trkpt>
      <trkpt lat="42.96386" lon="1.86995">
        <ele>462.0507813</ele>
        <time>2013-01-25T15:28:32Z</time>
      </trkpt>
      <trkpt lat="42.96392" lon="1.87013">
        <ele>461.5701904</ele>
        <time>2013-01-25T15:28:37Z</time>
      </trkpt>
      <trkpt lat="42.96397" lon="1.87029">
        <ele>461.0894775</ele>
        <time>2013-01-25T15:28:41Z</time>
      </trkpt>
      <trkpt lat="42.96403" lon="1.87046">
        <ele>460.1281738</ele>
        <time>2013-01-25T15:28:46Z</time>
      </trkpt>
      <trkpt lat="42.96406" lon="1.87059">
        <ele>460.1281738</ele>
        <time>2013-01-25T15:28:50Z</time>
      </trkpt>
      <trkpt lat="42.96418" lon="1.87067">
        <ele>461.0894775</ele>
        <time>2013-01-25T15:28:56Z</time>
      </trkpt>
      <trkpt lat="42.96427" lon="1.87074">
        <ele>461.5701904</ele>
        <time>2013-01-25T15:29:00Z</time>
      </trkpt>
      <trkpt lat="42.96445" lon="1.87091">
        <ele>461.0894775</ele>
        <time>2013-01-25T15:29:08Z</time>
      </trkpt>
      <trkpt lat="42.96459" lon="1.87104">
        <ele>460.6087646</ele>
        <time>2013-01-25T15:29:14Z</time>
      </trkpt>
      <trkpt lat="42.96469" lon="1.87115">
        <ele>460.1281738</ele>
        <time>2013-01-25T15:29:19Z</time>
      </trkpt>
      <trkpt lat="42.96481" lon="1.87124">
        <ele>460.6087646</ele>
        <time>2013-01-25T15:29:24Z</time>
      </trkpt>
      <trkpt lat="42.96493" lon="1.87135">
        <ele>461.0894775</ele>
        <time>2013-01-25T15:29:29Z</time>
      </trkpt>
      <trkpt lat="42.96504" lon="1.87147">
        <ele>461.5701904</ele>
        <time>2013-01-25T15:29:34Z</time>
      </trkpt>
      <trkpt lat="42.96513" lon="1.87158">
        <ele>460.1281738</ele>
        <time>2013-01-25T15:29:39Z</time>
      </trkpt>
      <trkpt lat="42.96515" lon="1.8716">
        <ele>460.6087646</ele>
        <time>2013-01-25T15:29:40Z</time>
      </trkpt>
    </trkseg>
  </trk>
</gpx>